ftp/pub/palmer/observations_modified/2019/July/AR190730_BASE.txt

Download

Sample DateTime	Unit Id	WS Avg 2min	WD Avg 2min	WGS 10min	WGD 10min	Air Temp	Rel Humidity	Dew Point	Pyranometer	Quantum	Air Pressure	Snow Level	Rainfall	PW Current	Visibility	CBase 1	CBase 2	CBase 3	Vert Vis
2019/07/30  00:00:00  BASE  2.65776  13   4.116    8    -5.2  94    -6.0  0     0     997.8    NA       0.0000   9999     0     0     0    
2019/07/30  00:01:00  BASE  2.54016  22   4.116    8    -5.2  94    -6.0  0     0     997.8    NA       0.0000   9999     0     0     0    
2019/07/30  00:02:00  BASE  2.56368  31   3.78084  10   -5.3  94    -6.1  0     0     997.8    NA       0.0000   9999     0     0     0    
2019/07/30  00:03:00  BASE  2.53428  47   3.59856  11   -5.4  94    -6.3  0     0     997.8    NA       0.0000   9999     0     0     0    
2019/07/30  00:04:00  BASE  2.65776  67   3.59856  11   -5.6  93    -6.5  0     0     997.8    NA       0.0000   9999     0     0     0    
2019/07/30  00:05:00  BASE  3.00468  73   3.44568  10   -5.8  93    -6.7  0     0     997.8    NA       0.0000   9999     0     0     0    
2019/07/30  00:06:00  BASE  3.03408  73   3.44568  10   -5.9  93    -6.9  0     0     997.8    NA       0.0000   9999     0     0     0    
2019/07/30  00:07:00  BASE  2.92236  71   3.38688  75   -6.0  93    -6.9  0     0     997.8    NA       0.0000   9999     0     0     0    
2019/07/30  00:08:00  BASE  2.74596  68   3.38688  75   -6.0  93    -7.0  0     0     997.8    NA       0.0000   9999     0     0     0    
2019/07/30  00:09:00  BASE  2.5578   63   3.38688  75   -6.0  93    -7.0  0     0     997.8    NA       0.0000   9999     0     0     0    
2019/07/30  00:10:00  BASE  2.4696   55   3.38688  75   -6.0  92    -7.0  0     0     997.8    NA       0.0000   9999     0     0     0    
2019/07/30  00:11:00  BASE  2.48724  47   3.38688  75   -6.0  92    -7.1  0     0     997.8    NA       0.0000   9999     12170 0     0    
2019/07/30  00:12:00  BASE  2.59896  42   3.38688  75   -6.0  91    -7.2  0     0     997.8    NA       0.0000   9999     12110 0     0    
2019/07/30  00:13:00  BASE  2.74008  35   3.38688  75   -6.0  91    -7.3  0     0     997.8    NA       0.0000   9999     11750 0     0    
2019/07/30  00:14:00  BASE  2.8518   29   3.38688  75   -6.0  90    -7.3  0     0     997.8    NA       0.0000   9999     11390 0     0    
2019/07/30  00:15:00  BASE  2.89296  22   3.38688  9    -6.0  90    -7.4  0     0     997.8    NA       0.0000   9999     11450 0     0    
2019/07/30  00:16:00  BASE  2.87532  12   3.38688  9    -6.0  89    -7.4  0     0     997.8    NA       0.0000   9999     11390 0     0    
2019/07/30  00:17:00  BASE  3.06348  9    3.53976  9    -5.9  89    -7.4  0     0     997.8    NA       0.0000   9999     11250 0     0    
2019/07/30  00:18:00  BASE  3.36924  11   3.62796  19   -5.8  89    -7.3  0     0     997.8    NA       0.0000   9999     11550 0     0    
2019/07/30  00:19:00  BASE  3.47508  14   4.08072  15   -5.7  88    -7.3  0     0     997.8    NA       0.0000   9999     10500 0     0    
2019/07/30  00:20:00  BASE  3.6456   15   4.08072  16   -5.6  88    -7.3  0     0     997.8    NA       0.0000   9999     11320 0     0    
2019/07/30  00:21:00  BASE  3.7632   13   4.08072  16   -5.5  87    -7.2  0     0     997.8    NA       0.0000   9999     11390 0     0    
2019/07/30  00:22:00  BASE  3.80436  12   4.08072  15   -5.4  87    -7.3  0     0     997.8    NA       0.0000   9999     11220 0     0    
2019/07/30  00:23:00  BASE  3.91608  13   4.2042   8    -5.4  86    -7.4  0     0     997.8    NA       0.0000   9999     10760 0     0    
2019/07/30  00:24:00  BASE  4.06896  14   4.53936  8    -5.3  85    -7.4  0     0     997.9    NA       0.0000   9999     14340 0     0    
2019/07/30  00:25:00  BASE  4.116    12   4.53936  8    -5.3  85    -7.5  0     0     997.8    NA       0.0000   9999     14080 0     0    
2019/07/30  00:26:00  BASE  3.8514   6    4.53936  8    -5.3  84    -7.6  0     0     997.8    NA       0.0000   9999     13940 0     0    
2019/07/30  00:27:00  BASE  3.45156  358  4.53936  8    -5.3  84    -7.5  0     0     997.8    NA       0.0000   9999     13980 0     0    
2019/07/30  00:28:00  BASE  3.22812  353  4.53936  8    -5.2  84    -7.5  0     0     997.8    NA       0.0000   9999     14040 0     0    
2019/07/30  00:29:00  BASE  3.1752   354  4.53936  8    -5.1  84    -7.4  0     0     997.8    NA       0.0000   9999     0     0     0    
2019/07/30  00:30:00  BASE  3.22224  351  4.53936  8    -5.0  84    -7.2  0     0     997.9    NA       0.0000   9999     15490 0     0    
2019/07/30  00:31:00  BASE  3.31044  353  4.53936  8    -4.9  84    -7.1  0     0     997.9    NA       0.0000   9999     0     0     0    
2019/07/30  00:32:00  BASE  3.46332  350  4.53936  8    -4.9  85    -7.1  0     0     997.9    NA       0.0000   9999     0     0     0    
2019/07/30  00:33:00  BASE  3.43392  347  4.53936  8    -4.8  85    -7.0  0     0     997.9    NA       0.0000   9999     0     0     0    
2019/07/30  00:34:00  BASE  3.1164   352  4.38648  8    -4.8  85    -7.0  0     0     997.9    NA       0.0000   9999     0     0     0    
2019/07/30  00:35:00  BASE  2.92824  354  3.86904  7    -4.8  85    -7.0  0     0     997.9    NA       0.0000   9999     0     0     0    
2019/07/30  00:36:00  BASE  2.8812   353  3.81024  350  -4.8  84    -7.0  0     0     997.9    NA       0.0000   9999     0     0     0    
2019/07/30  00:37:00  BASE  2.92824  353  3.81024  350  -4.8  84    -7.1  0     0     997.8    NA       0.0000   9999     0     0     0    
2019/07/30  00:38:00  BASE  3.19284  355  3.81024  350  -4.8  84    -7.1  0     0     997.8    NA       0.0000   9999     0     0     0    
2019/07/30  00:39:00  BASE  3.3516   350  3.81024  350  -4.8  84    -7.1  0     0     997.8    NA       0.0000   9999     0     0     0    
2019/07/30  00:40:00  BASE  3.30456  347  3.81024  350  -4.7  83    -7.1  0     0     997.8    NA       0.0000   9999     0     0     0    
2019/07/30  00:41:00  BASE  3.19872  356  3.81024  350  -4.7  83    -7.2  0     0     997.8    NA       0.0000   9999     11780 0     0    
2019/07/30  00:42:00  BASE  3.19284  2    3.69264  349  -4.7  82    -7.3  0     0     997.8    NA       0.0000   9999     11520 0     0    
2019/07/30  00:43:00  BASE  3.09288  359  3.59856  355  -4.7  82    -7.4  0     0     997.8    NA       0.0000   9999     11160 0     0    
2019/07/30  00:44:00  BASE  2.81652  354  3.59856  355  -4.7  81    -7.5  0     0     997.8    NA       0.0000   9999     10600 0     0    
2019/07/30  00:45:00  BASE  2.6754   356  3.59856  355  -4.7  81    -7.5  0     0     997.8    NA       0.0000   9999     0     0     0    
2019/07/30  00:46:00  BASE  2.80476  359  3.59856  355  -4.7  80    -7.6  0     0     997.8    NA       0.0000   9999     0     0     0    
2019/07/30  00:47:00  BASE  2.91648  358  3.59856  355  -4.7  80    -7.6  0     0     997.8    NA       0.0000   9999     11750 0     0    
2019/07/30  00:48:00  BASE  2.74596  357  3.56916  354  -4.7  80    -7.6  0     0     997.8    NA       0.0000   9999     11580 0     0    
2019/07/30  00:49:00  BASE  2.65776  1    3.44568  360  -4.7  80    -7.6  0     0     997.8    NA       0.0000   9999     11060 0     0    
2019/07/30  00:50:00  BASE  2.8518   359  3.44568  360  -4.7  80    -7.7  0     0     997.8    NA       0.0000   9999     10630 0     0    
2019/07/30  00:51:00  BASE  3.0576   350  3.59856  350  -4.8  80    -7.7  0     0     997.8    NA       0.0000   9999     10370 0     0    
2019/07/30  00:52:00  BASE  3.16344  347  3.59856  350  -4.8  79    -7.8  0     0     997.8    NA       0.0000   9999     10070 0     0    
2019/07/30  00:53:00  BASE  3.04584  345  3.62796  349  -4.8  79    -7.8  0     0     997.8    NA       0.0000   9999     9940  0     0    
2019/07/30  00:54:00  BASE  3.03996  343  3.62796  349  -4.8  79    -7.8  0     0     997.8    NA       0.0000   9999     9740  0     0    
2019/07/30  00:55:00  BASE  3.23988  343  3.62796  349  -4.8  80    -7.8  0     0     997.8    NA       0.0000   9999     9510  0     0    
2019/07/30  00:56:00  BASE  3.34572  339  3.81024  331  -4.8  80    -7.8  0     0     997.8    NA       0.0000   9999     9290  0     0    
2019/07/30  00:57:00  BASE  3.55152  338  4.38648  335  -4.8  80    -7.7  0     0     997.8    NA       0.0000   9999     9060  0     0    
2019/07/30  00:58:00  BASE  4.0572   341  5.08032  337  -4.8  80    -7.8  0     0     997.8    NA       0.0000   9999     10170 0     0    
2019/07/30  00:59:00  BASE  4.42176  337  5.08032  337  -4.7  78    -7.9  0     0     997.8    NA       0.0000   9999     9350  0     0    
2019/07/30  01:00:00  BASE  4.6746   334  5.2626   333  -4.7  77    -8.1  0     0     997.8    NA       0.0000   9999     0     0     0    
2019/07/30  01:01:00  BASE  4.75692  335  5.2626   333  -4.6  76    -8.3  0     0     997.7    NA       0.0000   9999     10560 0     0    
2019/07/30  01:02:00  BASE  4.98624  341  6.16812  348  -4.5  74    -8.5  0     0     997.6    NA       0.0000   9999     10400 0     0    
2019/07/30  01:03:00  BASE  5.96232  346  7.07952  350  -4.5  73    -8.6  0     0     997.6    NA       0.0000   9999     9650  0     0    
2019/07/30  01:04:00  BASE  6.73848  347  7.4088   354  -4.5  72    -8.7  0     0     997.5    NA       0.0000   9999     0     0     0    
2019/07/30  01:05:00  BASE  6.89724  348  7.47348  354  -4.4  71    -8.9  0     0     997.5    NA       0.0000   9999     9970  0     0    
2019/07/30  01:06:00  BASE  6.73848  351  7.47348  354  -4.3  69    -9.1  0     0     997.5    NA       0.0000   9999     0     0     0    
2019/07/30  01:07:00  BASE  6.80316  347  7.47348  354  -4.2  68    -9.2  0     0     997.5    NA       0.0000   9999     10400 0     0    
2019/07/30  01:08:00  BASE  6.92076  346  7.47348  354  -4.1  67    -9.3  0     0     997.6    NA       0.0000   9999     10830 0     0    
2019/07/30  01:09:00  BASE  6.63264  352  7.47348  354  -4.1  66    -9.5  0     0     997.5    NA       0.0000   9999     10400 0     0    
2019/07/30  01:10:00  BASE  6.53856  358  7.47348  354  -4.1  66    -9.6  0     0     997.6    NA       0.0000   9999     9970  0     0    
2019/07/30  01:11:00  BASE  6.09756  5    7.47348  354  -4.1  66    -9.5  0     0     997.6    NA       0.0000   9999     9880  0     0    
2019/07/30  01:12:00  BASE  5.6742   0    7.47348  354  -4.2  67    -9.5  0     0     997.6    NA       0.0000   9999     9840  0     0    
2019/07/30  01:13:00  BASE  5.99172  352  7.47348  354  -4.3  68    -9.4  0     0     997.6    NA       0.0000   9999     9840  0     0    
2019/07/30  01:14:00  BASE  5.8212   350  7.47348  354  -4.4  69    -9.3  0     0     997.6    NA       0.0000   9999     9510  0     0    
2019/07/30  01:15:00  BASE  5.59188  352  7.47348  354  -4.4  69    -9.2  0     0     997.6    NA       0.0000   9999     9480  0     0    
2019/07/30  01:16:00  BASE  5.80356  354  7.47348  354  -4.4  70    -9.2  0     0     997.7    NA       0.0000   9999     9020  0     0    
2019/07/30  01:17:00  BASE  5.83296  358  7.2324   355  -4.4  70    -9.1  0     0     997.6    NA       0.0000   9999     8990  0     0    
2019/07/30  01:18:00  BASE  5.71536  5    6.98544  353  -4.4  69    -9.2  0     0     997.7    NA       0.0000   9999     8830  0     0    
2019/07/30  01:19:00  BASE  5.07444  6    6.98544  353  -4.3  69    -9.2  0     0     997.7    NA       0.0000   9999     8960  0     0    
2019/07/30  01:20:00  BASE  4.01604  5    6.89724  354  -4.3  68    -9.3  0     0     997.7    NA       0.0000   9999     9710  0     0    
2019/07/30  01:21:00  BASE  2.9988   7    6.89724  354  -4.2  67    -9.4  0     0     997.7    NA       0.0000   9999     9710  0     0    
2019/07/30  01:22:00  BASE  2.058    50   6.89724  354  -4.3  67    -9.6  0     0     997.8    NA       0.0000   9999     9610  0     0    
2019/07/30  01:23:00  BASE  1.66404  127  6.41508  354  -4.5  66    -9.9  0     0     997.8    NA       0.0000   9999     9840  0     0    
2019/07/30  01:24:00  BASE  1.72872  159  6.41508  354  -4.8  67    -10.0 0     0     997.8    NA       0.0000   9999     9740  0     0    
2019/07/30  01:25:00  BASE  1.57584  168  6.321    353  -5.0  67    -10.2 0     0     997.8    NA       0.0000   9999     9840  0     0    
2019/07/30  01:26:00  BASE  1.41708  116  6.321    353  -5.2  67    -10.3 0     0     997.8    NA       0.0000   9999     9610  0     0    
2019/07/30  01:27:00  BASE  1.07604  126  6.16812  3    -5.2  67    -10.4 0     0     997.8    NA       0.0000   9999     9450  0     0    
2019/07/30  01:28:00  BASE  1.4406   193  4.99212  354  -5.2  67    -10.3 0     0     997.8    NA       0.0000   9999     9420  0     0    
2019/07/30  01:29:00  BASE  1.87572  167  4.38648  6    -5.2  67    -10.4 0     0     997.8    NA       0.0000   9999     9580  0     0    
2019/07/30  01:30:00  BASE  1.69344  155  3.29868  12   -5.2  66    -10.6 0     0     997.8    NA       0.0000   9999     9220  0     0    
2019/07/30  01:31:00  BASE  1.77576  194  2.96352  191  -5.1  66    -10.5 0     0     997.8    NA       0.0000   9999     9380  0     0    
2019/07/30  01:32:00  BASE  1.49352  235  2.96352  191  -5.0  66    -10.4 0     0     997.8    NA       0.0000   9999     9320  0     0    
2019/07/30  01:33:00  BASE  1.72284  261  2.96352  191  -4.9  65    -10.4 0     0     997.8    NA       0.0000   9999     9420  0     0    
2019/07/30  01:34:00  BASE  2.06976  289  2.96352  191  -4.8  65    -10.3 0     0     997.8    NA       0.0000   9999     9610  0     0    
2019/07/30  01:35:00  BASE  1.12896  285  2.96352  191  -4.6  65    -10.1 0     0     997.7    NA       0.0000   9999     9680  0     0    
2019/07/30  01:36:00  BASE  0.57624  261  2.96352  191  -4.6  65    -10.2 0     0     997.7    NA       0.0000   9999     9350  0     0    
2019/07/30  01:37:04  BASE  0.57624  270  2.96352  191  -4.6  65    -10.2 0     0     997.7    NA       0.0000   9999     9190  0     0    
2019/07/30  01:38:01  BASE  0.40572  322  2.96352  191  -4.6  65    -10.2 0     0     997.8    NA       0.0000   9999     8990  0     0    
2019/07/30  01:39:00  BASE  1.48764  342  3.48096  347  -4.5  65    -10.1 0     0     997.8    NA       0.0000   9999     8690  0     0    
2019/07/30  01:40:00  BASE  2.8224   328  4.08072  308  -4.5  65    -10.2 0     0     997.8    NA       0.0000   9999     8600  0     0    
2019/07/30  01:41:00  BASE  2.95764  310  4.41588  294  -4.5  65    -10.1 0     0     997.8    NA       0.0000   9999     8660  0     0    
2019/07/30  01:42:00  BASE  2.26968  306  4.41588  294  -4.4  64    -10.1 0     0     997.7    NA       0.0000   9999     9220  0     0    
2019/07/30  01:43:00  BASE  1.5582   359  4.41588  294  -4.3  64    -10.2 0     0     997.8    NA       0.0000   9999     8990  0     0    
2019/07/30  01:44:00  BASE  1.41708  50   4.41588  294  -4.4  63    -10.3 0     0     997.7    NA       0.0000   9999     8790  0     0    
2019/07/30  01:45:00  BASE  1.62876  114  4.41588  294  -4.4  63    -10.4 0     0     997.7    NA       0.0000   9999     8860  0     0    
2019/07/30  01:46:00  BASE  1.59936  166  4.41588  294  -4.5  63    -10.5 0     0     997.7    NA       0.0000   9999     8730  0     0    
2019/07/30  01:47:00  BASE  1.16424  147  4.41588  294  -4.6  63    -10.5 0     0     997.7    NA       0.0000   9999     8920  0     0    
2019/07/30  01:48:00  BASE  1.5876   120  4.41588  294  -4.7  64    -10.5 0     0     997.7    NA       0.0000   9999     9150  0     0    
2019/07/30  01:49:00  BASE  1.95804  119  4.41588  294  -4.8  64    -10.5 0     0     997.7    NA       0.0000   9999     8830  0     0    
2019/07/30  01:50:00  BASE  1.48764  119  4.41588  294  -4.8  65    -10.4 0     0     997.6    NA       0.0000   9999     8960  0     0    
2019/07/30  01:51:00  BASE  1.45824  122  3.69264  298  -4.8  65    -10.4 0     0     997.6    NA       0.0000   9999     8690  0     0    
2019/07/30  01:52:00  BASE  1.5288   133  3.02232  115  -4.9  66    -10.4 0     0     997.6    NA       0.0000   9999     8430  0     0    
2019/07/30  01:53:00  BASE  1.35828  142  3.02232  115  -5.0  66    -10.3 0     0     997.6    NA       0.0000   9999     8300  0     0    
2019/07/30  01:54:00  BASE  1.86396  138  3.02232  115  -5.0  66    -10.3 0     0     997.6    NA       0.0000   9999     8200  0     0    
2019/07/30  01:55:00  BASE  2.34024  140  3.02232  115  -5.1  67    -10.3 0     0     997.5    NA       0.0000   9999     8270  0     0    
2019/07/30  01:56:00  BASE  2.48724  146  3.38688  145  -5.1  68    -10.2 0     0     997.5    NA       0.0000   9999     8170  0     0    
2019/07/30  01:57:00  BASE  2.93412  148  3.59856  153  -5.2  68    -10.1 0     0     997.5    NA       0.0000   9999     7940  0     0    
2019/07/30  01:58:00  BASE  3.63972  142  4.29828  134  -5.2  69    -10.0 0     0     997.5    NA       0.0000   9999     7940  0     0    
2019/07/30  01:59:00  BASE  3.9396   134  4.29828  134  -5.2  70    -9.8  0     0     997.5    NA       0.0000   9999     8010  0     0    
2019/07/30  02:00:00  BASE  3.83376  135  4.29828  134  -5.2  71    -9.7  0     0     997.5    NA       0.0000   9999     7780  0     0    
2019/07/30  02:01:00  BASE  3.77496  134  4.32768  136  -5.1  71    -9.5  0     0     997.5    NA       0.0000   9999     7610  0     0    
2019/07/30  02:02:00  BASE  3.51036  130  4.32768  136  -5.0  72    -9.3  0     0     997.5    NA       0.0000   9999     8070  0     0    
2019/07/30  02:03:00  BASE  3.46332  124  4.32768  136  -5.0  72    -9.2  0     0     997.4    NA       0.0000   9999     8040  0     0    
2019/07/30  02:04:00  BASE  3.9984   120  4.65696  118  -5.0  72    -9.2  0     0     997.4    NA       0.0000   9999     7680  0     0    
2019/07/30  02:05:00  BASE  4.42764  119  4.68636  120  -4.9  72    -9.2  0     0     997.3    NA       0.0000   9999     7780  0     0    
2019/07/30  02:06:00  BASE  4.56876  117  4.93332  110  -4.9  72    -9.1  0     0     997.3    NA       0.0000   9999     7320  0     0    
2019/07/30  02:07:00  BASE  4.7334   115  4.93332  115  -4.8  72    -9.1  0     0     997.3    NA       0.0000   9999     7610  0     0    
2019/07/30  02:08:00  BASE  4.72752  114  4.99212  112  -4.8  73    -9.0  0     0     997.3    NA       0.0000   9999     6890  0     0    
2019/07/30  02:09:00  BASE  4.75692  113  5.10972  115  -4.7  73    -8.9  0     0     997.3    NA       0.0000   9999     7380  0     0    
2019/07/30  02:10:00  BASE  4.87452  114  5.2626   116  -4.7  73    -8.8  0     0     997.3    NA       0.0000   9999     7380  0     0    
2019/07/30  02:11:00  BASE  4.83924  114  5.2626   116  -4.7  73    -8.8  0     0     997.3    NA       0.0000   9999     7810  0     0    
2019/07/30  02:12:00  BASE  4.78632  114  5.2626   116  -4.7  73    -8.8  0     0     997.3    NA       0.0000   9999     6170  0     0    
2019/07/30  02:13:00  BASE  4.85688  112  5.2626   116  -4.7  73    -8.8  0     0     997.3    NA       0.0000   9999     7970  0     0    
2019/07/30  02:14:00  BASE  4.77456  107  5.2626   116  -4.7  73    -8.8  0     0     997.3    NA       0.0000   9999     7580  0     0    
2019/07/30  02:15:00  BASE  4.58052  102  5.2626   116  -4.7  73    -8.8  0     0     997.3    NA       0.0000   9999     7740  0     0    
2019/07/30  02:16:00  BASE  4.31004  102  5.2626   116  -4.7  73    -8.8  0     0     997.3    NA       0.0000   9999     8330  0     0    
2019/07/30  02:17:00  BASE  3.79848  106  5.2626   116  -4.7  73    -8.8  0     0     997.3    NA       0.0000   9999     8660  0     0    
2019/07/30  02:18:00  BASE  3.52212  97   5.2626   116  -4.7  73    -8.8  0     0     997.3    NA       0.0000   9999     8660  0     0    
2019/07/30  02:19:00  BASE  3.59856  91   5.2626   116  -4.7  73    -8.8  0     0     997.3    NA       0.0000   9999     8500  0     0    
2019/07/30  02:20:00  BASE  3.16344  100  5.2332   117  -4.7  73    -8.9  0     0     997.3    NA       0.0000   9999     8630  0     0    
2019/07/30  02:21:00  BASE  3.234    100  5.2038   108  -4.7  72    -8.9  0     0     997.3    NA       0.0000   9999     8240  0     0    
2019/07/30  02:22:00  BASE  4.21596  85   5.62716  71   -4.6  72    -8.9  0     0     997.2    NA       0.0000   9999     7810  0     0    
2019/07/30  02:23:00  BASE  3.62208  87   5.62716  71   -4.5  71    -8.9  0     0     997.2    NA       0.0000   9999     7380  0     0    
2019/07/30  02:24:01  BASE  2.43432  94   5.62716  71   -4.4  71    -8.9  0     0     997.2    NA       0.0000   9999     7580  0     0    
2019/07/30  02:25:00  BASE  2.8812   101  5.62716  71   -4.3  70    -8.9  0     0     997.2    NA       0.0000   9999     7190  0     0    
2019/07/30  02:26:00  BASE  3.48096  114  5.62716  71   -4.3  70    -8.9  0     0     997.2    NA       0.0000   9999     6590  0     0    
2019/07/30  02:27:00  BASE  3.27516  112  5.62716  71   -4.3  70    -9.0  0     0     997.2    NA       0.0000   9999     6760  0     0    
2019/07/30  02:28:00  BASE  2.69304  105  5.62716  71   -4.4  70    -9.1  0     0     997.2    NA       0.0000   9999     6300  0     0    
2019/07/30  02:29:00  BASE  2.69304  97   6.07992  115  -4.4  69    -9.2  0     0     997.1    NA       0.0000   9999     6300  0     0    
2019/07/30  02:30:00  BASE  3.822    92   6.68556  69   -4.5  69    -9.3  0     0     997.1    NA       0.0000   9999     6370  0     0    
2019/07/30  02:31:00  BASE  4.11012  91   6.68556  69   -4.5  68    -9.4  0     0     997.1    NA       0.0000   9999     7480  0     0    
2019/07/30  02:32:00  BASE  3.78084  97   6.68556  69   -4.5  68    -9.5  0     0     997.1    NA       0.0000   9999     7380  0     0    
2019/07/30  02:33:00  BASE  4.21596  110  6.68556  69   -4.5  68    -9.6  0     0     997.1    NA       0.0000   9999     7680  0     0    
2019/07/30  02:34:00  BASE  4.6746   112  6.68556  69   -4.5  67    -9.6  0     0     997.0    NA       0.0000   9999     7480  0     0    
2019/07/30  02:35:00  BASE  4.35708  110  6.68556  69   -4.5  67    -9.7  0     0     997.1    NA       0.0000   9999     6730  0     0    
2019/07/30  02:36:00  BASE  3.63972  116  6.68556  69   -4.4  66    -9.8  0     0     997.0    NA       0.0000   9999     6790  0     0    
2019/07/30  02:37:00  BASE  3.7926   123  6.68556  69   -4.4  66    -9.9  0     0     997.0    NA       0.0000   9999     7050  0     0    
2019/07/30  02:38:00  BASE  4.32768  112  7.07952  77   -4.4  65    -10.0 0     0     996.9    NA       0.0000   9999     7050  0     0    
2019/07/30  02:39:00  BASE  3.80436  98   7.07952  77   -4.4  65    -10.0 0     0     997.0    NA       0.0000   9999     7020  0     0    
2019/07/30  02:40:00  BASE  3.95724  95   8.4084   86   -4.5  65    -10.0 0     0     996.9    NA       0.0000   9999     6860  0     0    
2019/07/30  02:41:00  BASE  5.41548  91   8.4084   86   -4.4  66    -9.9  0     0     996.8    NA       0.0000   9999     6690  0     0    
2019/07/30  02:42:00  BASE  5.71536  100  8.4084   86   -4.4  66    -9.8  0     0     996.8    NA       0.0000   9999     6730  0     0    
2019/07/30  02:43:00  BASE  4.74516  120  8.4084   86   -4.4  67    -9.7  0     0     996.8    NA       0.0000   9999     5710  0     0    
2019/07/30  02:44:00  BASE  4.62756  120  8.4084   86   -4.4  66    -9.7  0     0     996.8    NA       0.0000   9999     5740  0     0    
2019/07/30  02:45:00  BASE  5.42136  106  8.4084   86   -4.3  66    -9.8  0     0     996.8    NA       0.0000   9999     4130  0     0    
2019/07/30  02:46:00  BASE  5.97408  106  8.4084   86   -4.3  65    -9.9  0     0     996.8    NA       0.0000   9999     5020  0     0    
2019/07/30  02:47:00  BASE  6.36216  109  8.4084   86   -4.3  65    -10.0 0     0     996.8    NA       0.0000   9999     5090  0     0    
2019/07/30  02:48:00  BASE  6.69732  103  8.4084   86   -4.4  65    -10.0 0     0     996.8    NA       0.0000   9999     6040  0     0    
2019/07/30  02:49:00  BASE  6.47388  100  8.4084   86   -4.4  65    -10.0 0     0     996.8    NA       0.0000   9999     6000  0     0    
2019/07/30  02:50:00  BASE  5.93292  98   7.3794   90   -4.4  65    -9.9  0     0     996.8    NA       0.0000   9999     5320  0     0    
2019/07/30  02:51:00  BASE  5.73888  93   7.2912   103  -4.4  66    -9.9  0     0     996.8    NA       0.0000   9999     5710  0     0    
2019/07/30  02:52:00  BASE  5.00388  94   7.2912   103  -4.4  66    -9.8  0     0     996.8    NA       0.0000   9999     5970  0     0    
2019/07/30  02:53:00  BASE  4.42176  99   7.2912   103  -4.4  66    -9.9  0     0     996.8    NA       0.0000   9999     3450  0     0    
2019/07/30  02:54:00  BASE  4.31592  98   7.2912   103  -4.5  65    -10.0 0     0     996.8    NA       0.0000   9999     3510  0     0    
2019/07/30  02:55:00  BASE  4.13364  97   7.2912   103  -4.5  65    -10.1 0     0     996.8    NA       0.0000   9999     3710  0     0    
2019/07/30  02:56:00  BASE  3.40452  97   7.2912   103  -4.5  65    -10.1 0     0     996.8    NA       0.0000   9999     3740  0     0    
2019/07/30  02:57:00  BASE  2.5578   101  7.2912   103  -4.6  65    -10.2 0     0     996.8    NA       0.0000   9999     3870  0     0    
2019/07/30  02:58:00  BASE  2.22264  110  6.86784  99   -4.6  65    -10.2 0     0     996.8    NA       0.0000   9999     3810  0     0    
2019/07/30  02:59:00  BASE  1.87572  110  6.2328   105  -4.6  66    -10.0 0     0     996.8    NA       0.0000   9999     3250  0     0    
2019/07/30  03:00:00  BASE  1.40532  105  6.13872  88   -4.6  67    -9.9  0     0     996.8    NA       0.0000   9999     3450  0     0    
2019/07/30  03:01:00  BASE  1.74048  100  5.38608  111  -4.7  67    -9.8  0     0     996.8    NA       0.0000   9999     2990  0     0    
2019/07/30  03:02:00  BASE  3.0576   101  4.99212  103  -4.6  68    -9.6  0     0     996.8    NA       0.0000   9999     3510  0     0    
2019/07/30  03:03:00  BASE  4.06896  105  4.62756  109  -4.6  69    -9.5  0     0     996.7    NA       0.0000   9999     3540  0     0    
2019/07/30  03:04:00  BASE  4.48056  110  4.86864  113  -4.6  69    -9.5  0     0     996.7    NA       0.0000   9999     3940  0     0    
2019/07/30  03:05:00  BASE  4.60992  119  4.93332  124  -4.6  70    -9.4  0     0     996.7    NA       0.0000   9999     4100  0     0    
2019/07/30  03:06:00  BASE  4.26888  122  4.93332  124  -4.6  70    -9.2  0     0     996.7    NA       0.0000   9999     4460  0     0    
2019/07/30  03:07:00  BASE  3.75732  118  4.93332  124  -4.5  70    -9.1  0     0     996.8    NA       0.0000   9999     4760  0     0    
2019/07/30  03:08:00  BASE  3.55152  100  4.93332  124  -4.5  71    -8.9  0     0     996.9    NA       0.0000   9999     4330  0     0    
2019/07/30  03:09:00  BASE  3.79848  80   5.145    72   -4.4  71    -8.8  0     0     996.9    NA       0.0000   9999     3410  0     0    
2019/07/30  03:10:00  BASE  4.11012  80   5.145    72   -4.3  72    -8.7  0     0     996.9    NA       0.0000   9999     5320  0     0    
2019/07/30  03:11:00  BASE  4.1454   93   5.145    72   -4.3  72    -8.6  0     0     996.8    NA       0.0000   9999     3350  0     0    
2019/07/30  03:12:00  BASE  4.26888  102  5.145    72   -4.2  72    -8.6  0     0     996.7    NA       0.0000   9999     3610  0     0    
2019/07/30  03:13:00  BASE  4.21008  101  5.145    72   -4.2  71    -8.6  0     0     996.7    NA       0.0000   9999     3870  0     0    
2019/07/30  03:14:00  BASE  3.68676  91   5.145    72   -4.2  71    -8.6  0     0     996.6    NA       0.0000   9999     4170  0     0    
2019/07/30  03:15:00  BASE  3.41628  89   5.35668  87   -4.2  71    -8.6  0     0     996.6    NA       0.0000   9999     3810  0     0    
2019/07/30  03:16:00  BASE  2.72832  101  5.35668  87   -4.1  71    -8.6  0     0     996.6    NA       0.0000   9999     3740  0     0    
2019/07/30  03:17:00  BASE  1.52292  94   5.35668  87   -4.1  71    -8.6  0     0     996.6    NA       0.0000   9999     3480  0     0    
2019/07/30  03:18:00  BASE  1.92276  25   5.35668  87   -4.0  71    -8.5  0     0     996.6    NA       0.0000   9999     980   0     0    
2019/07/30  03:19:00  BASE  3.63972  4    6.16812  27   -3.9  71    -8.4  0     0     996.6    NA       0.0000   9999     0     0     0    
2019/07/30  03:20:00  BASE  5.10384  25   6.62676  41   -3.7  71    -8.2  0     0     996.6    NA       0.0000   9999     3150  0     0    
2019/07/30  03:21:00  BASE  5.69772  33   6.77376  28   -3.6  71    -8.1  0     0     996.5    NA       0.0000   9999     2300  0     0    
2019/07/30  03:22:00  BASE  6.15636  37   7.77336  34   -3.5  71    -7.9  0     0     996.5    NA       0.0000   9999     0     0     0    
2019/07/30  03:23:00  BASE  7.06776  37   8.92584  32   -3.4  72    -7.8  0     0     996.4    NA       0.0000   9999     0     0     0    
2019/07/30  03:24:00  BASE  7.13244  39   8.92584  32   -3.4  72    -7.7  0     0     996.4    NA       0.0000   9999     0     0     0    
2019/07/30  03:25:00  BASE  7.03248  42   8.92584  32   -3.3  71    -7.8  0     0     996.4    NA       0.0000   9999     0     0     0    
2019/07/30  03:26:00  BASE  7.78512  41   9.04344  34   -3.3  71    -7.8  0     0     996.4    NA       0.0000   9999     3770  0     0    
2019/07/30  03:27:00  BASE  8.36724  43   9.25512  50   -3.3  71    -7.9  0     0     996.3    NA       0.0000   9999     4200  0     0    
2019/07/30  03:28:00  BASE  8.49072  48   9.4668   47   -3.3  70    -7.9  0     0     996.3    NA       0.0000   9999     4630  0     0    
2019/07/30  03:29:00  BASE  8.54364  52   10.0724  52   -3.4  70    -8.0  0     0     996.2    NA       0.0000   9999     4100  0     0    
2019/07/30  03:30:00  BASE  8.3496   48   10.0724  52   -3.4  71    -7.9  0     0     996.2    NA       0.0000   -SN      9000  3770  0    
2019/07/30  03:31:00  BASE  8.04972  39   10.0724  52   -3.4  71    -7.9  0     0     996.2    NA       0.0000   -SN      9999  3710  0    
2019/07/30  03:32:00  BASE  9.2316   34   11.4954  29   -3.5  72    -7.8  0     0     996.1    NA       0.0000   -SN      9999  0     0    
2019/07/30  03:33:00  BASE  10.0136  30   11.4954  29   -3.5  73    -7.6  0     0     996.1    NA       0.0000   -SN      9999  0     0    
2019/07/30  03:34:00  BASE  9.2904   27   11.4954  29   -3.4  73    -7.5  0     0     996.2    NA       0.0000   -SN      9999  0     0    
2019/07/30  03:35:00  BASE  8.96112  26   11.4954  29   -3.4  74    -7.4  0     0     996.2    NA       0.0000   -SN      9999  0     0    
2019/07/30  03:36:00  BASE  8.80236  25   11.4954  29   -3.4  74    -7.3  0     0     996.3    NA       0.0000   -SN      9999  0     0    
2019/07/30  03:37:00  BASE  8.63184  25   11.4954  29   -3.4  74    -7.3  0     0     996.3    NA       0.0000   -SN      9999  0     0    
2019/07/30  03:38:00  BASE  8.34372  24   11.4954  29   -3.3  74    -7.3  0     0     996.4    NA       0.0000   -SN      9999  0     0    
2019/07/30  03:39:00  BASE  8.24376  28   11.4954  29   -3.3  74    -7.3  0     0     996.4    NA       0.0000   -SN      9999  0     0    
2019/07/30  03:40:00  BASE  7.94388  28   11.4954  29   -3.3  74    -7.4  0     0     996.4    NA       0.0000   -SN      9000  0     0    
2019/07/30  03:41:00  BASE  7.5852   27   11.4954  29   -3.3  74    -7.4  0     0     996.4    NA       0.0000   -SN      9999  0     0    
2019/07/30  03:42:00  BASE  7.8204   30   11.2249  25   -3.3  74    -7.4  0     0     996.4    NA       0.0000   -SN      9999  0     0    
2019/07/30  03:43:00  BASE  7.54404  30   10.437   24   -3.3  74    -7.4  0     0     996.5    NA       0.0000   -SN      9999  0     0    
2019/07/30  03:44:00  BASE  7.26768  28   10.043   25   -3.4  74    -7.4  0     0     996.5    NA       0.0000   -SN      9999  0     0    
2019/07/30  03:45:00  BASE  6.95604  28   9.56088  28   -3.4  74    -7.4  0     0     996.5    NA       0.0000   -SN      9999  0     0    
2019/07/30  03:46:00  BASE  6.468    27   9.56088  28   -3.4  74    -7.4  0     0     996.5    NA       0.0000   -SN      9999  0     0    
2019/07/30  03:47:00  BASE  6.2916   24   9.56088  28   -3.4  74    -7.4  0     0     996.6    NA       0.0000   -SN      9999  0     0    
2019/07/30  03:48:00  BASE  6.66204  22   9.56088  28   -3.5  74    -7.4  0     0     996.5    NA       0.0000   -SN      9999  0     0    
2019/07/30  03:49:00  BASE  6.77964  23   9.408    34   -3.5  74    -7.4  0     0     996.6    NA       0.0000   -SN      9999  0     0    
2019/07/30  03:50:00  BASE  6.76788  23   9.408    34   -3.5  74    -7.5  0     0     996.6    NA       0.0000   -SN      9999  0     0    
2019/07/30  03:51:00  BASE  6.77376  22   9.408    34   -3.5  74    -7.5  0     0     996.6    NA       0.0000   -SN      9999  0     0    
2019/07/30  03:52:00  BASE  6.21516  21   8.10852  37   -3.5  74    -7.6  0     0     996.6    NA       0.0000   -SN      9999  0     0    
2019/07/30  03:53:00  BASE  6.13284  22   8.10852  37   -3.6  74    -7.6  0     0     996.6    NA       0.0000   -SN      9999  0     0    
2019/07/30  03:54:00  BASE  6.07404  23   8.07912  19   -3.7  74    -7.7  0     0     996.6    NA       0.0000   -SN      9999  0     0    
2019/07/30  03:55:00  BASE  5.97408  25   8.07912  19   -3.8  74    -7.7  0     0     996.6    NA       0.0000   -SN      9999  0     0    
2019/07/30  03:56:00  BASE  6.48564  26   8.64948  26   -3.9  75    -7.6  0     0     996.5    NA       0.0000   -SN      9999  0     0    
2019/07/30  03:57:00  BASE  7.09128  24   8.64948  26   -3.9  76    -7.6  0     0     996.5    NA       0.0000   -SN      9999  0     0    
2019/07/30  03:58:00  BASE  7.3794   24   8.64948  26   -4.0  77    -7.5  0     0     996.5    NA       0.0000   -SN      9999  360   0    
2019/07/30  03:59:00  BASE  7.17948  26   8.64948  26   -4.0  77    -7.4  0     0     996.5    NA       0.0000   -SN      9999  0     0    
2019/07/30  04:00:00  BASE  7.27944  27   8.64948  26   -4.1  78    -7.3  0     0     996.5    NA       0.0000   -SN      9000  920   0    
2019/07/30  04:01:00  BASE  7.70868  29   8.64948  36   -4.1  79    -7.3  0     0     996.5    NA       0.0000   -SN      7000  0     0    
2019/07/30  04:02:00  BASE  8.03208  30   10.2547  30   -4.1  79    -7.2  0     0     996.4    NA       0.0000   -SN      6000  0     0    
2019/07/30  04:04:00  BASE  9.71376  30   11.1014  22   -4.2  80    -7.1  0     0     996.3    NA       0.0000   -SN      4700  0     0    
2019/07/30  04:05:00  BASE  10.2959  25   12.007   26   -4.2  80    -7.1  0     0     996.4    NA       0.0000   -SN      4600  0     0    
2019/07/30  04:06:01  BASE  9.35508  21   12.007   26   -4.2  81    -7.0  0     0     996.5    NA       0.0000   -SN      6000  0     0    
2019/07/30  04:07:00  BASE  8.19084  23   12.007   26   -4.2  81    -7.0  0     0     996.5    NA       0.0000   -SN      9999  0     0    
2019/07/30  04:08:00  BASE  7.9968   24   12.007   26   -4.2  82    -6.9  0     0     996.5    NA       0.0000   -SN      9999  360   0    
2019/07/30  04:09:00  BASE  8.75532  24   12.007   26   -4.2  82    -6.8  0     0     996.5    NA       0.0000   -SN      9999  360   0    
2019/07/30  04:10:00  BASE  8.96112  24   12.007   26   -4.2  82    -6.8  0     0     996.5    NA       0.0000   -SN      9999  0     0    
2019/07/30  04:11:00  BASE  8.68476  23   12.007   26   -4.2  83    -6.7  0     0     996.5    NA       0.0000   -SN      9999  0     0    
2019/07/30  04:12:00  BASE  8.7612   24   12.007   26   -4.2  83    -6.6  0     0     996.5    NA       0.0000   -SN      9999  0     0    
2019/07/30  04:13:00  BASE  8.41428  25   12.007   26   -4.2  84    -6.6  0     0     996.5    NA       0.0000   -SN      9999  0     0    
2019/07/30  04:14:00  BASE  7.71456  25   12.007   26   -4.2  84    -6.5  0     0     996.5    NA       0.0000   -SN      9000  0     0    
2019/07/30  04:15:00  BASE  7.16184  27   10.1312  19   -4.2  84    -6.5  0     0     996.4    NA       0.0000   -SN      9000  0     0    
2019/07/30  04:16:00  BASE  7.2324   30   10.1312  19   -4.2  84    -6.5  0     0     996.4    NA       0.0000   -SN      8000  0     0    
2019/07/30  04:17:00  BASE  7.17948  31   10.1312  19   -4.2  84    -6.4  0     0     996.4    NA       0.0000   -SN      9000  0     0    
2019/07/30  04:18:00  BASE  7.24416  29   10.1312  19   -4.2  85    -6.4  0     0     996.4    NA       0.0000   -SN      BR    9999  0    
2019/07/30  04:19:00  BASE  7.203    30   10.1312  19   -4.2  85    -6.4  0     0     996.4    NA       0.0000   -SN      BR    9000  0    
2019/07/30  04:20:00  BASE  7.33824  31   10.1312  19   -4.2  85    -6.3  0     0     996.3    NA       0.0000   -SN      BR    9000  0    
2019/07/30  04:21:00  BASE  8.35548  32   10.2547  35   -4.2  85    -6.3  0     0     996.3    NA       0.0000   -SN      BR    9000  390  
2019/07/30  04:22:00  BASE  8.17908  32   10.2547  35   -4.2  85    -6.3  0     0     996.3    NA       0.0000   -SN      BR    7000  0    
2019/07/30  04:23:00  BASE  7.29708  30   10.2547  35   -4.1  85    -6.3  0     0     996.4    NA       0.0000   -SN      BR    8000  0    
2019/07/30  04:24:00  BASE  7.60284  29   10.2547  35   -4.1  85    -6.2  0     0     996.3    NA       0.0000   -SN      BR    9999  0    
2019/07/30  04:25:00  BASE  8.24376  28   10.2547  35   -4.1  86    -6.2  0     0     996.3    NA       0.0000   -SN      BR    9999  0    
2019/07/30  04:26:00  BASE  7.94976  30   10.2547  35   -4.1  86    -6.1  0     0     996.3    NA       0.0000   -SN      BR    9999  0    
2019/07/30  04:27:00  BASE  7.41468  31   10.2547  35   -4.1  86    -6.1  0     0     996.4    NA       0.0000   -SN      BR    9999  0    
2019/07/30  04:28:00  BASE  6.78552  29   10.2547  35   -4.1  86    -6.1  0     0     996.4    NA       0.0000   -SN      9999  0     0    
2019/07/30  04:29:00  BASE  5.97408  28   10.2547  35   -4.1  86    -6.1  0     0     996.5    NA       0.0000   -SN      9999  0     0    
2019/07/30  04:30:00  BASE  5.41548  28   10.2547  35   -4.1  86    -6.1  0     0     996.5    NA       0.0000   -SN      9999  0     0    
2019/07/30  04:31:00  BASE  5.38608  26   9.4374   21   -4.1  86    -6.1  0     0     996.5    NA       0.0000   -SN      9999  0     0    
2019/07/30  04:32:00  BASE  5.50368  22   9.31392  27   -4.1  86    -6.1  0     0     996.5    NA       0.0000   -SN      9999  0     0    
2019/07/30  04:33:00  BASE  6.00348  18   9.31392  27   -4.1  86    -6.1  0     0     996.5    NA       0.0000   -SN      9999  0     0    
2019/07/30  04:34:00  BASE  6.4092   23   9.31392  27   -4.1  86    -6.1  0     0     996.5    NA       0.0000   -SN      9999  0     0    
2019/07/30  04:35:00  BASE  6.4974   21   8.53188  31   -4.1  86    -6.1  0     0     996.4    NA       0.0000   -SN      9999  0     0    
2019/07/30  04:36:00  BASE  7.8204   21   9.77256  33   -4.1  86    -6.1  0     0     996.3    NA       0.0000   -SN      9999  0     0    
2019/07/30  04:37:00  BASE  9.34332  29   11.1308  32   -4.1  86    -6.1  0     0     996.3    NA       0.0000   -SN      9999  0     0    
2019/07/30  04:38:00  BASE  8.85528  29   11.1308  32   -4.1  86    -6.1  0     0     996.3    NA       0.0000   -SN      9999  0     0    
2019/07/30  04:39:00  BASE  7.39116  27   11.1308  32   -4.1  86    -6.1  0     0     996.3    NA       0.0000   -SN      9999  0     0    
2019/07/30  04:40:00  BASE  7.63224  31   11.1308  32   -4.1  86    -6.1  0     0     996.3    NA       0.0000   9999     0     0     0    
2019/07/30  04:41:00  BASE  8.20848  33   11.1308  32   -4.1  86    -6.1  0     0     996.3    NA       0.0000   9999     0     0     0    
2019/07/30  04:42:00  BASE  8.10264  30   11.1308  32   -4.1  86    -6.0  0     0     996.3    NA       0.0000   9999     0     0     0    
2019/07/30  04:43:00  BASE  8.59068  25   11.1308  32   -4.0  86    -6.0  0     0     996.3    NA       0.0000   9999     0     0     0    
2019/07/30  04:44:00  BASE  8.42016  26   11.1308  32   -4.0  86    -6.0  0     0     996.3    NA       0.0000   -SN      9999  0     0    
2019/07/30  04:45:00  BASE  7.97916  24   11.1308  32   -4.0  86    -6.0  0     0     996.2    NA       0.0000   -SN      9999  0     0    
2019/07/30  04:46:00  BASE  8.44368  22   11.1308  32   -3.9  86    -5.9  0     0     996.2    NA       0.0000   -SN      9999  0     0    
2019/07/30  04:47:00  BASE  8.96112  26   11.1014  27   -3.9  86    -5.9  0     0     996.1    NA       0.0000   -SN      9999  0     0    
2019/07/30  04:48:00  BASE  9.2904   28   11.2543  24   -3.9  86    -5.9  0     0     996.1    NA       0.0000   9999     0     0     0    
2019/07/30  04:49:00  BASE  9.702    31   11.86    30   -3.9  86    -5.9  0     0     996.1    NA       0.0000   9999     0     0     0    
2019/07/30  04:50:00  BASE  10.0842  36   12.495   24   -3.8  86    -5.8  0     0     996.0    NA       0.0000   9999     1280  0     0    
2019/07/30  04:51:00  BASE  10.3841  36   12.495   46   -3.8  86    -5.8  0     0     996.0    NA       0.0000   9999     1310  0     0    
2019/07/30  04:52:00  BASE  10.3782  36   12.495   46   -3.8  86    -5.9  0     0     995.9    NA       0.0000   9999     0     0     0    
2019/07/30  04:53:00  BASE  10.0489  39   12.495   46   -3.8  86    -5.9  0     0     995.9    NA       0.0000   9999     0     0     0    
2019/07/30  04:54:00  BASE  10.3135  41   12.495   46   -3.8  85    -5.9  0     0     995.9    NA       0.0000   9999     0     0     0    
2019/07/30  04:55:00  BASE  10.9544  43   12.6773  45   -3.9  85    -6.0  0     0     995.8    NA       0.0000   9999     0     0     0    
2019/07/30  04:56:00  BASE  11.0897  46   12.8537  44   -3.9  85    -6.0  0     0     995.8    NA       0.0000   9999     0     0     0    
2019/07/30  04:57:00  BASE  11.0779  43   13.524   40   -3.9  85    -6.0  0     0     995.6    NA       0.0000   7000     390   0     0    
2019/07/30  04:58:00  BASE  11.3425  42   13.524   40   -3.9  85    -6.1  0     0     995.5    NA       0.0000   -SN      4300  360   4630 
2019/07/30  04:59:00  BASE  11.9364  45   14.6412  43   -3.9  85    -6.1  0     0     995.5    NA       0.0000   -SN      BR    2600  360  
2019/07/30  05:00:00  BASE  12.3774  45   14.6412  43   -4.0  85    -6.1  0     0     995.4    NA       0.0000   -SN      BR    2900  4400 
2019/07/30  05:01:00  BASE  12.1246  44   14.6412  43   -4.0  85    -6.1  0     0     995.4    NA       0.0000   -SN      BR    3600  4360 
2019/07/30  05:02:00  BASE  12.5185  46   14.6412  43   -4.0  85    -6.1  0     0     995.3    NA       0.0000   -SN      BR    3800  4040 
2019/07/30  05:03:00  BASE  12.7478  48   14.6412  43   -4.0  85    -6.1  0     0     995.3    NA       0.0000   -SN      BR    4500  3640 
2019/07/30  05:04:00  BASE  12.4891  49   14.6412  43   -4.0  85    -6.1  0     0     995.3    NA       0.0000   -SN      BR    5000  3610 
2019/07/30  05:05:00  BASE  12.3715  50   14.6412  43   -4.0  86    -6.1  0     0     995.3    NA       0.0000   -SN      BR    6000  3610 
2019/07/30  05:06:00  BASE  11.954   51   14.6412  43   -4.0  86    -6.0  0     0     995.3    NA       0.0000   -SN      BR    7000  3540 
2019/07/30  05:07:00  BASE  11.7541  53   14.6412  43   -4.0  86    -6.0  0     0     995.2    NA       0.0000   -SN      BR    7000  4130 
2019/07/30  05:08:00  BASE  12.101   55   14.6412  43   -4.0  86    -6.0  0     0     995.2    NA       0.0000   -SN      BR    7000  4000 
2019/07/30  05:09:00  BASE  12.3362  58   14.4883  50   -3.9  85    -6.0  0     0     995.1    NA       0.0000   -SN      BR    7000  3970 
2019/07/30  05:10:00  BASE  12.0716  60   14.4883  50   -3.9  85    -6.0  0     0     995.2    NA       0.0000   -SN      BR    7000  3810 
2019/07/30  05:11:00  BASE  11.8129  62   14.4883  50   -3.9  85    -6.1  0     0     995.2    NA       0.0000   -SN      BR    6000  3710 
2019/07/30  05:12:00  BASE  11.9423  61   13.9474  49   -3.9  85    -6.1  0     0     995.2    NA       0.0000   -SN      BR    6000  3810 
2019/07/30  05:13:00  BASE  11.7012  61   13.9474  49   -3.9  85    -6.1  0     0     995.2    NA       0.0000   -SN      BR    6000  3740 
2019/07/30  05:14:00  BASE  11.5483  61   13.4887  52   -4.0  84    -6.2  0     0     995.2    NA       0.0000   -SN      8000  3740  0    
2019/07/30  05:15:00  BASE  12.1775  60   13.4887  59   -4.0  84    -6.2  0     0     995.1    NA       0.0000   HZ       9999  3580  0    
2019/07/30  05:16:00  BASE  12.1892  63   13.4887  59   -4.0  84    -6.3  0     0     995.1    NA       0.0000   HZ       9999  3280  0    
2019/07/30  05:17:00  BASE  11.8423  65   13.4887  59   -4.0  84    -6.3  0     0     995.0    NA       0.0000   HZ       9999  3310  0    
2019/07/30  05:18:00  BASE  11.6953  67   13.4887  64   -3.9  84    -6.3  0     0     995.0    NA       0.0000   HZ       9999  3480  0    
2019/07/30  05:19:00  BASE  11.3131  68   13.4887  64   -3.9  84    -6.2  0     0     995.0    NA       0.0000   HZ       9999  3220  0    
2019/07/30  05:20:00  BASE  10.7075  71   13.4887  64   -3.9  84    -6.2  0     0     995.1    NA       0.0000   HZ       9999  2950  0    
2019/07/30  05:21:00  BASE  9.66672  73   13.4887  64   -3.8  83    -6.3  0     0     995.1    NA       0.0000   HZ       9999  3480  0    
2019/07/30  05:22:00  BASE  8.97288  78   13.4887  64   -3.8  83    -6.3  0     0     995.1    NA       0.0000   9999     0     0     0    
2019/07/30  05:23:00  BASE  8.45544  85   13.4887  64   -3.7  82    -6.3  0     0     995.1    NA       0.0000   9999     3150  0     0    
2019/07/30  05:24:00  BASE  7.97328  92   13.4887  64   -3.7  82    -6.4  0     0     995.0    NA       0.0000   9999     4070  0     0    
2019/07/30  05:25:00  BASE  8.22024  93   13.4887  64   -3.6  81    -6.5  0     0     995.1    NA       0.0000   9999     3180  0     0    
2019/07/30  05:26:00  BASE  8.232    91   13.4887  64   -3.6  80    -6.5  0     0     995.1    NA       0.0000   9999     3280  0     0    
2019/07/30  05:27:00  BASE  7.79688  92   13.4887  64   -3.6  79    -6.6  0     0     995.1    NA       0.0000   9999     3280  0     0    
2019/07/30  05:28:00  BASE  7.2324   95   12.5244  71   -3.6  79    -6.7  0     0     995.0    NA       0.0000   9999     3220  0     0    
2019/07/30  05:29:00  BASE  7.1736   103  12.3127  78   -3.5  78    -6.8  0     0     994.9    NA       0.0000   9999     3180  0     0    
2019/07/30  05:30:00  BASE  6.68556  103  10.6487  72   -3.5  78    -6.9  0     0     995.0    NA       0.0000   9999     3410  0     0    
2019/07/30  05:31:00  BASE  5.92704  103  10.5899  78   -3.5  77    -6.9  0     0     995.0    NA       0.0000   9999     2170  0     0    
2019/07/30  05:32:00  BASE  5.57424  107  9.59028  83   -3.4  77    -6.9  0     0     995.0    NA       0.0000   9999     3050  0     0    
2019/07/30  05:33:01  BASE  5.8212   103  9.59028  83   -3.4  76    -7.0  0     0     995.0    NA       0.0000   9999     2690  0     0    
2019/07/30  05:34:01  BASE  6.01524  103  9.59028  83   -3.4  76    -7.0  0     0     995.1    NA       0.0000   9999     2620  0     0    
2019/07/30  05:35:01  BASE  6.174    105  9.59028  83   -3.3  75    -7.1  0     0     995.0    NA       0.0000   9999     3900  0     0    
2019/07/30  05:36:01  BASE  7.75572  109  11.0132  90   -3.3  75    -7.1  0     0     994.8    NA       0.0000   9999     0     0     0    
2019/07/30  05:37:01  BASE  8.72004  112  11.0132  90   -3.3  75    -7.2  0     0     994.7    NA       0.0000   9999     0     0     0    
2019/07/30  05:38:01  BASE  8.57892  100  11.0132  90   -3.3  75    -7.1  0     0     994.9    NA       0.0000   9000     0     0     0    
2019/07/30  05:39:01  BASE  6.53856  79   11.0132  90   -3.2  75    -7.1  0     0     994.9    NA       0.0000   -SN      5000  0     0    
2019/07/30  05:40:01  BASE  5.56836  62   11.0132  90   -3.2  75    -6.9  0     0     995.0    NA       0.0000   -SN      5000  0     0    
2019/07/30  05:41:01  BASE  7.16184  56   11.0132  90   -3.2  76    -6.8  0     0     994.9    NA       0.0000   -SN      5000  0     0    
2019/07/30  05:42:01  BASE  8.7906   64   14.6412  60   -3.2  77    -6.6  0     0     994.8    NA       0.0000   -SN      3500  0     0    
2019/07/30  05:43:01  BASE  10.4252  75   14.6412  60   -3.2  78    -6.5  0     0     994.7    NA       0.0000   -SN      SQ    3300  0    
2019/07/30  05:44:01  BASE  11.2955  86   14.6412  60   -3.2  79    -6.4  0     0     994.7    NA       0.0000   -SN      3600  0     0    
2019/07/30  05:45:01  BASE  10.4782  104  14.6412  60   -3.3  80    -6.3  0     0     994.7    NA       0.0000   -SN      4700  0     0    
2019/07/30  05:46:01  BASE  8.89644  116  14.6412  60   -3.4  81    -6.2  0     0     994.8    NA       0.0000   -SN      8000  0     0    
2019/07/30  05:47:01  BASE  7.84392  116  14.6412  60   -3.5  81    -6.2  0     0     995.0    NA       0.0000   -SN      9999  0     0    
2019/07/30  05:48:01  BASE  6.6738   120  14.6412  60   -3.6  82    -6.2  0     0     995.0    NA       0.0000   -SN      9999  0     0    
2019/07/30  05:49:01  BASE  5.9682   128  14.6412  60   -3.6  83    -6.1  0     0     995.0    NA       0.0000   -SN      9999  0     0    
2019/07/30  05:50:01  BASE  5.7036   130  14.6412  60   -3.7  84    -6.0  0     0     994.9    NA       0.0000   -SN      9999  3540  0    
2019/07/30  05:51:01  BASE  6.41508  136  14.6412  60   -3.8  85    -5.9  0     0     994.8    NA       0.0000   -SN      BR    9999  3450 
2019/07/30  05:52:01  BASE  7.03248  132  13.4299  75   -3.8  86    -5.8  0     0     994.9    NA       0.0000   -SN      BR    9999  3710 
2019/07/30  05:53:00  BASE  6.81492  126  12.9184  82   -3.8  86    -5.8  0     0     994.8    NA       0.0000   -SN      BR    9999  3510 
2019/07/30  05:54:00  BASE  5.70948  131  10.7663  102  -3.8  87    -5.7  0     0     994.9    NA       0.0000   -SN      9999  3610  0    
2019/07/30  05:55:00  BASE  4.89804  137  9.19632  116  -3.8  87    -5.7  0     0     994.7    NA       0.0000   -SN      9999  0     0    
2019/07/30  05:56:00  BASE  5.60952  137  8.98464  144  -3.8  87    -5.6  0     0     994.7    NA       0.0000   -SN      9999  3350  0    
2019/07/30  05:57:00  BASE  6.46212  129  8.98464  144  -3.9  88    -5.6  0     0     994.7    NA       0.0000   -SN      9999  0     0    
2019/07/30  05:58:00  BASE  7.5852   127  8.98464  144  -3.9  88    -5.5  0     0     994.6    NA       0.0000   -SN      9999  3670  0    
2019/07/30  05:59:00  BASE  7.67928  122  9.07284  121  -3.9  89    -5.5  0     0     994.9    NA       0.0000   -SN      9999  3670  0    
2019/07/30  06:00:00  BASE  6.53268  120  9.07284  121  -3.9  89    -5.4  0     0     994.9    NA       0.0000   -SN      9999  3640  0    
2019/07/30  06:01:01  BASE  6.00348  136  9.07284  121  -3.8  89    -5.4  0     0     994.7    NA       0.0000   -SN      9999  3180  0    
2019/07/30  06:02:00  BASE  5.62716  139  9.07284  121  -3.8  89    -5.4  0     0     994.9    NA       0.0000   -SN      9999  3410  0    
2019/07/30  06:03:00  BASE  5.0862   126  9.07284  121  -3.7  88    -5.4  0     0     994.9    NA       0.0000   -SN      9999  1150  0    
2019/07/30  06:04:01  BASE  5.62128  116  9.61968  67   -3.7  88    -5.4  0     0     994.8    NA       0.0000   -SN      9999  2920  0    
2019/07/30  06:05:00  BASE  7.22652  99   11.2837  105  -3.6  87    -5.4  0     0     994.8    NA       0.0000   -SN      9999  2530  0    
2019/07/30  06:06:00  BASE  6.42684  93   11.2837  105  -3.5  87    -5.3  0     0     994.8    NA       0.0000   -SN      9000  0     0    
2019/07/30  06:07:00  BASE  4.116    83   11.2837  105  -3.4  87    -5.3  0     0     995.0    NA       0.0000   -SN      7000  1050  2260 
2019/07/30  06:08:00  BASE  4.3218   105  11.2837  105  -3.3  86    -5.3  0     0     994.9    NA       0.0000   -SN      8000  980   2300 
2019/07/30  06:09:00  BASE  4.1748   122  11.2837  105  -3.3  86    -5.3  0     0     995.0    NA       0.0000   -SN      8000  1180  0    
2019/07/30  06:10:00  BASE  3.25752  104  11.2837  105  -3.2  86    -5.3  0     0     995.0    NA       0.0000   -SN      9999  1570  0    
2019/07/30  06:11:00  BASE  3.9102   89   11.2837  105  -3.2  85    -5.3  0     0     994.9    NA       0.0000   -SN      9999  980   0    
2019/07/30  06:12:00  BASE  4.21596  71   11.2837  105  -3.2  85    -5.3  0     0     994.7    NA       0.0000   -SN      BR    8000  0    
2019/07/30  06:13:00  BASE  4.95096  68   11.2837  105  -3.1  86    -5.2  0     0     994.7    NA       0.0000   -SN      BR    8000  0    
2019/07/30  06:14:00  BASE  6.30924  97   11.2837  105  -3.1  86    -5.2  0     0     994.8    NA       0.0000   -SN      BR    8000  1480 
2019/07/30  06:15:00  BASE  5.19204  103  9.10224  59   -3.1  86    -5.2  0     0     994.9    NA       0.0000   -SN      BR    7000  1350 
2019/07/30  06:16:00  BASE  4.18068  94   9.10224  59   -3.0  86    -5.1  0     0     994.9    NA       0.0000   -SN      BR    8000  1310 
2019/07/30  06:17:00  BASE  5.292    76   9.10224  59   -3.0  86    -5.1  0     0     994.9    NA       0.0000   -SN      BR    7000  390  
2019/07/30  06:18:00  BASE  5.90352  67   9.10224  59   -3.0  86    -5.1  0     0     994.7    NA       0.0000   -SN      BR    7000  0    
2019/07/30  06:19:00  BASE  6.86196  75   9.4668   61   -2.9  86    -5.0  0     0     994.5    NA       0.0000   -SN      BR    6000  0    
2019/07/30  06:20:00  BASE  8.64948  63   11.1308  46   -2.8  86    -4.8  0     0     994.4    NA       0.0000   -SN      BR    5000  0    
2019/07/30  06:21:00  BASE  9.34332  59   11.1308  46   -2.7  86    -4.7  0     0     994.4    NA       0.0000   -SN      BR    5000  0    
2019/07/30  06:22:00  BASE  9.00816  70   11.1308  46   -2.7  86    -4.7  0     0     994.4    NA       0.0000   -SN      BR    7000  360  
2019/07/30  06:23:00  BASE  8.1144   88   11.1308  46   -2.8  86    -4.8  0     0     994.3    NA       0.0000   -SN      BR    6000  0    
2019/07/30  06:24:00  BASE  6.67968  107  11.1308  46   -2.8  86    -4.8  0     0     994.4    NA       0.0000   -SN      BR    5000  360  
2019/07/30  06:25:00  BASE  6.65616  119  11.1308  46   -2.9  86    -4.9  0     0     994.3    NA       0.0000   -SN      BR    6000  0    
2019/07/30  06:26:00  BASE  9.3786   120  12.8243  113  -3.0  86    -5.0  0     0     993.9    NA       0.0000   -SN      BR    8000  0    
2019/07/30  06:27:00  BASE  8.06736  119  12.8243  113  -3.1  86    -5.0  0     0     994.3    NA       0.0000   -SN      BR    3700  360  
2019/07/30  06:28:00  BASE  5.97408  107  12.8243  113  -3.1  87    -5.0  0     0     994.2    NA       0.0000   -SN      BR    2500  360  
2019/07/30  06:29:00  BASE  7.6146   102  12.8243  113  -3.1  87    -4.9  0     0     994.1    NA       0.0000   -SN      BR    6000  0    
2019/07/30  06:30:00  BASE  5.98584  105  12.8243  113  -3.1  88    -4.8  0     0     994.4    NA       0.0000   -SN      BR    8000  0    
2019/07/30  06:31:00  BASE  2.74596  110  12.8243  113  -3.0  88    -4.7  0     0     994.6    NA       0.0000   -SN      BR    9999  0    
2019/07/30  06:32:00  BASE  3.53976  61   12.8243  113  -3.0  89    -4.6  0     0     994.5    NA       0.0000   -SN      BR    9999  0    
2019/07/30  06:33:01  BASE  5.86824  52   12.8243  113  -2.9  89    -4.4  0     0     994.4    NA       0.0000   -SN      BR    9999  0    
2019/07/30  06:34:01  BASE  8.43192  64   12.8243  45   -2.8  89    -4.3  0     0     994.1    NA       0.0000   -SN      BR    SQ    6000 
2019/07/30  06:35:01  BASE  9.77256  64   12.8243  45   -2.7  90    -4.2  0     0     994.1    NA       0.0000   -SN      BR    SQ    4200 
2019/07/30  06:36:01  BASE  7.81452  62   12.8243  45   -2.6  90    -4.1  0     0     994.2    NA       0.0000   -SN      BR    5000  0    
2019/07/30  06:37:01  BASE  7.1148   42   12.8243  45   -2.6  90    -4.1  0     0     994.1    NA       0.0000   -SN      BR    6000  330  
2019/07/30  06:38:01  BASE  8.30844  18   12.8243  45   -2.6  90    -4.0  0     0     994.0    NA       0.0000   -SN      BR    7000  0    
2019/07/30  06:39:01  BASE  9.72552  7    12.8243  45   -2.5  90    -4.0  0     0     993.8    NA       0.0000   -SN      BR    9999  0    
2019/07/30  06:40:01  BASE  9.10224  338  12.8243  45   -2.5  90    -4.0  0     0     993.9    NA       0.0000   -SN      BR    9999  0    
2019/07/30  06:41:01  BASE  6.86784  315  12.8243  45   -2.5  90    -4.0  0     0     994.1    NA       0.0000   -SN      BR    9999  0    
2019/07/30  06:42:01  BASE  5.53896  347  12.8243  45   -2.5  90    -3.9  0     0     994.1    NA       0.0000   -SN      BR    9999  0    
2019/07/30  06:43:01  BASE  6.43272  32   12.8243  45   -2.5  90    -3.8  0     0     994.1    NA       0.0000   -SN      BR    9999  0    
2019/07/30  06:44:01  BASE  6.63264  43   12.5244  34   -2.5  90    -3.8  0     0     994.1    NA       0.0000   -SN      BR    9999  0    
2019/07/30  06:45:01  BASE  6.73848  39   12.5244  34   -2.4  90    -3.8  0     0     994.0    NA       0.0000   -SN      BR    9999  0    
2019/07/30  06:46:01  BASE  7.57932  44   12.5244  34   -2.4  90    -3.8  0     0     994.1    NA       0.0000   -SN      9999  0     0    
2019/07/30  06:47:01  BASE  6.57384  40   12.5244  34   -2.4  90    -3.8  0     0     994.0    NA       0.0000   -SN      9999  3220  0    
2019/07/30  06:48:01  BASE  5.7036   37   12.248   18   -2.4  90    -3.8  0     0     994.0    NA       0.0000   -SN      9999  0     0    
2019/07/30  06:49:01  BASE  5.60364  47   9.91956  29   -2.3  90    -3.8  0     0     993.9    NA       0.0000   -SN      9999  3150  0    
2019/07/30  06:50:01  BASE  4.46292  71   9.91956  29   -2.3  90    -3.8  0     0     994.0    NA       0.0000   -SN      9999  3310  0    
2019/07/30  06:51:01  BASE  2.8224   52   9.91956  29   -2.3  89    -3.8  0     0     994.1    NA       0.0000   -SN      9999  0     0    
2019/07/30  06:52:01  BASE  4.28652  4    9.91956  29   -2.3  89    -3.9  0     0     994.0    NA       0.0000   -SN      9999  0     0    
2019/07/30  06:53:01  BASE  5.85648  27   9.91956  29   -2.3  89    -3.9  0     0     993.9    NA       0.0000   -SN      9999  0     0    
2019/07/30  06:54:01  BASE  6.67968  32   9.91956  29   -2.3  89    -3.8  0     0     993.9    NA       0.0000   -SN      9999  0     0    
2019/07/30  06:55:01  BASE  7.76748  359  9.77256  23   -2.3  89    -3.8  0     0     993.8    NA       0.0000   -SN      9999  0     0    
2019/07/30  06:56:01  BASE  7.42644  346  9.77256  23   -2.3  89    -3.8  0     0     993.9    NA       0.0000   -SN      9999  0     0    
2019/07/30  06:57:01  BASE  5.86236  346  9.77256  23   -2.2  89    -3.7  0     0     993.9    NA       0.0000   -SN      9999  0     0    
2019/07/30  06:58:01  BASE  4.28652  21   9.77256  23   -2.2  89    -3.8  0     0     993.9    NA       0.0000   -SN      9999  0     0    
2019/07/30  06:59:01  BASE  4.46292  44   9.77256  23   -2.2  89    -3.8  0     0     993.7    NA       0.0000   -SN      9999  0     0    
2019/07/30  07:00:01  BASE  4.19244  28   9.77256  23   -2.3  89    -3.8  0     0     993.7    NA       0.0000   -SN      9999  0     0    
2019/07/30  07:01:01  BASE  2.8518   26   9.77256  23   -2.3  89    -3.9  0     0     993.5    NA       0.0000   -SN      9999  1610  0    
2019/07/30  07:02:01  BASE  3.47508  27   9.77256  23   -2.4  89    -3.9  0     0     993.6    NA       0.0000   -SN      9999  2030  0    
2019/07/30  07:03:01  BASE  5.33316  46   9.77256  23   -2.4  90    -3.8  0     0     993.7    NA       0.0000   -SN      9999  0     0    
2019/07/30  07:04:01  BASE  6.62088  44   9.5256   23   -2.3  90    -3.7  0     0     993.6    NA       0.0000   9999     0     0     0    
2019/07/30  07:05:01  BASE  9.51972  27   14.8823  28   -2.3  90    -3.6  0     0     993.3    NA       0.0000   9999     0     0     0    
2019/07/30  07:06:01  BASE  11.6718  29   14.8823  28   -2.2  90    -3.5  0     0     993.2    NA       0.0000   -SN      SQ    9000  0    
2019/07/30  07:07:01  BASE  10.6252  36   14.8823  28   -2.1  90    -3.5  0     0     993.4    NA       0.0000   -SN      SQ    8000  0    
2019/07/30  07:08:01  BASE  8.28492  40   14.8823  28   -2.0  90    -3.5  0     0     993.6    NA       0.0000   -SN      6000  0     0    
2019/07/30  07:09:01  BASE  6.97368  41   14.8823  28   -2.0  90    -3.5  0     0     993.6    NA       0.0000   -SN      6000  0     0    
2019/07/30  07:10:01  BASE  7.88508  42   14.8823  28   -2.1  90    -3.5  0     0     993.6    NA       0.0000   -SN      BR    7000  0    
2019/07/30  07:11:01  BASE  8.10264  45   14.8823  28   -2.1  90    -3.5  0     0     993.6    NA       0.0000   -SN      BR    7000  0    
2019/07/30  07:12:01  BASE  7.36764  41   14.8823  28   -2.1  90    -3.5  0     0     993.6    NA       0.0000   -SN      BR    8000  0    
2019/07/30  07:13:01  BASE  6.91488  28   14.8823  28   -2.0  90    -3.5  0     0     993.5    NA       0.0000   -SN      BR    9999  0    
2019/07/30  07:14:01  BASE  9.48444  26   14.8823  28   -2.0  90    -3.4  0     0     993.2    NA       0.0000   -SN      BR    9000  0    
2019/07/30  07:15:01  BASE  11.2602  28   14.8235  42   -1.9  90    -3.4  0     0     993.1    NA       0.0000   -SN      BR    SQ    8000 
2019/07/30  07:16:01  BASE  10.5134  25   14.8235  42   -1.9  90    -3.3  0     0     992.9    NA       0.0000   -SN      BR    9999  2100 
2019/07/30  07:17:01  BASE  11.2602  28   14.8235  42   -1.9  90    -3.3  0     0     992.8    NA       0.0000   -SN      BR    9999  0    
2019/07/30  07:18:01  BASE  10.9544  27   14.8235  42   -1.8  90    -3.3  0     0     992.8    NA       0.0000   -SN      BR    9999  0    
2019/07/30  07:19:01  BASE  10.0607  28   14.8235  42   -1.8  89    -3.3  0     0     992.9    NA       0.0000   -SN      BR    9999  0    
2019/07/30  07:20:01  BASE  10.3018  31   14.8235  42   -1.7  89    -3.3  0     0     992.9    NA       0.0000   -SN      BR    9999  2070 
2019/07/30  07:21:01  BASE  11.4013  27   17.4812  18   -1.6  89    -3.3  0     0     992.7    NA       0.0000   -SN      9999  2130  0    
2019/07/30  07:22:01  BASE  12.495   18   17.4812  18   -1.6  88    -3.3  0     0     992.5    NA       0.0000   -SN      9999  0     0    
2019/07/30  07:23:01  BASE  11.9188  14   17.4812  18   -1.6  88    -3.4  0     0     992.6    NA       0.0000   -SN      9999  0     0    
2019/07/30  07:24:01  BASE  10.5487  14   17.4812  18   -1.7  87    -3.6  0     0     992.6    NA       0.0000   -SN      9999  0     0    
2019/07/30  07:25:01  BASE  12.542   18   18.1516  27   -1.8  87    -3.7  0     0     992.3    NA       0.0000   9999     0     0     0    
2019/07/30  07:26:01  BASE  15.3762  26   18.1516  27   -1.9  87    -3.8  0     0     992.0    NA       0.0000   -SN      8000  1840  0    
2019/07/30  07:27:01  BASE  16.8638  26   20.1743  22   -1.9  87    -3.8  0     0     991.7    NA       0.0000   -SN      BR    SQ    5000 
2019/07/30  07:28:01  BASE  16.8403  25   20.1743  22   -2.0  88    -3.7  0     0     991.9    NA       0.0000   -SN      BR    5000  0    
2019/07/30  07:29:01  BASE  15.7702  25   20.1743  22   -2.0  88    -3.6  0     0     991.9    NA       0.0000   -SN      BR    7000  0    
2019/07/30  07:30:01  BASE  15.7231  26   20.1743  22   -1.9  89    -3.6  0     0     991.9    NA       0.0000   -SN      BR    9999  2130 
2019/07/30  07:31:01  BASE  15.9054  25   20.1743  22   -1.9  89    -3.5  0     0     991.8    NA       0.0000   -SN      BR    7000  0    
2019/07/30  07:32:01  BASE  15.7819  26   20.1743  22   -1.9  89    -3.4  0     0     991.9    NA       0.0000   -SN      BR    4700  0    
2019/07/30  07:33:01  BASE  15.8172  25   20.1743  22   -1.9  90    -3.4  0     0     991.9    NA       0.0000   -SN      BR    6000  0    
2019/07/30  07:34:01  BASE  15.8231  23   20.1743  22   -2.0  90    -3.4  0     0     991.9    NA       0.0000   -SN      BR    9000  0    
2019/07/30  07:35:01  BASE  15.1292  22   20.1743  22   -2.0  90    -3.4  0     0     991.9    NA       0.0000   -SN      BR    9999  0    
2019/07/30  07:36:01  BASE  14.8529  22   20.1743  22   -1.9  90    -3.3  0     0     991.8    NA       0.0000   -SN      BR    9999  0    
2019/07/30  07:37:01  BASE  15.3644  25   18.6631  21   -1.9  90    -3.2  0     0     991.8    NA       0.0000   -SN      BR    9999  0    
2019/07/30  07:38:01  BASE  15.5526  27   18.6631  21   -1.8  90    -3.1  0     0     991.9    NA       0.0000   -SN      BR    5000  0    
2019/07/30  07:39:01  BASE  13.9944  28   18.6631  21   -1.7  90    -3.0  0     0     992.1    NA       0.0000   -SN      BR    6000  0    
2019/07/30  07:40:01  BASE  14.2708  28   18.6631  21   -1.6  90    -3.0  0     0     991.9    NA       0.0000   -SN      BR    9999  0    
2019/07/30  07:41:01  BASE  14.9058  23   18.6631  21   -1.6  90    -3.0  0     0     992.1    NA       0.0000   -SN      BR    8000  0    
2019/07/30  07:42:01  BASE  13.6534  23   18.6631  21   -1.6  90    -3.1  0     0     992.1    NA       0.0000   -SN      BR    9999  0    
2019/07/30  07:43:01  BASE  13.2124  22   18.0575  29   -1.7  90    -3.1  0     0     992.1    NA       0.0000   -SN      BR    8000  0    
2019/07/30  07:44:01  BASE  13.7768  19   18.0575  29   -1.7  90    -3.2  0     0     992.0    NA       0.0000   -SN      BR    9999  3150 
2019/07/30  07:45:01  BASE  14.4119  26   18.0575  29   -1.7  90    -3.2  0     0     992.0    NA       0.0000   -SN      BR    9999  0    
2019/07/30  07:46:01  BASE  14.0356  29   18.0575  29   -1.8  90    -3.2  0     0     992.0    NA       0.0000   -SN      BR    8000  0    
2019/07/30  07:47:01  BASE  13.5534  28   16.9403  21   -1.7  90    -3.2  0     0     992.0    NA       0.0000   -SN      BR    9999  0    
2019/07/30  07:48:01  BASE  14.653   30   17.9987  32   -1.7  90    -3.2  0     0     991.9    NA       0.0000   -SN      BR    9000  0    
2019/07/30  07:49:01  BASE  15.6526  31   18.4808  31   -1.8  90    -3.2  0     0     991.8    NA       0.0000   -SN      BR    6000  0    
2019/07/30  07:50:01  BASE  15.6996  31   18.4808  31   -1.8  90    -3.2  0     0     991.8    NA       0.0000   -SN      BR    5000  0    
2019/07/30  07:51:01  BASE  14.9293  27   18.4808  31   -1.9  90    -3.3  0     0     991.9    NA       0.0000   -SN      BR    6000  0    
2019/07/30  07:52:01  BASE  14.2355  25   18.4808  31   -1.9  90    -3.3  0     0     991.9    NA       0.0000   -SN      BR    9999  0    
2019/07/30  07:53:01  BASE  14.6471  28   18.4808  31   -2.0  90    -3.4  0     0     991.9    NA       0.0000   -SN      BR    9000  0    
2019/07/30  07:54:01  BASE  14.0885  26   18.4808  31   -2.0  90    -3.4  0     0     992.0    NA       0.0000   -SN      BR    9000  390  
2019/07/30  07:55:00  BASE  15.2233  25   19.992   28   -2.0  90    -3.4  0     0     991.7    NA       0.0000   -SN      BR    8000  0    
2019/07/30  07:56:01  BASE  15.8525  27   19.992   28   -2.0  91    -3.3  0     0     991.8    NA       0.0000   -SN      BR    7000  0    
2019/07/30  07:57:01  BASE  14.4589  27   19.992   28   -2.0  91    -3.3  0     0     991.8    NA       0.0000   -SN      BR    9999  0    
2019/07/30  07:58:01  BASE  14.8588  28   19.992   28   -2.0  91    -3.2  0     0     991.8    NA       0.0000   -SN      BR    9000  330  
2019/07/30  07:59:01  BASE  15.4291  26   19.992   28   -2.0  91    -3.2  0     0     991.8    NA       0.0000   -SN      BR    7000  0    
2019/07/30  08:00:01  BASE  15.0293  24   19.992   28   -2.0  92    -3.1  0     0     991.8    NA       0.0000   -SN      BR    7000  0    
2019/07/30  08:01:01  BASE  15.3527  24   19.992   28   -1.9  92    -3.1  0     0     991.7    NA       0.0000   -SN      BR    8000  330  
2019/07/30  08:02:01  BASE  16.564   24   19.992   28   -1.9  92    -3.0  0     0     991.6    NA       0.0000   -SN      BR    5000  0    
2019/07/30  08:03:01  BASE  16.805   25   19.992   28   -1.9  92    -3.0  0     0     991.7    NA       0.2540   -SN      BR    3600  0    
2019/07/30  08:04:01  BASE  15.8936  25   19.992   28   -1.8  92    -2.9  0     0     991.7    NA       0.0000   -SN      BR    3500  0    
2019/07/30  08:05:01  BASE  16.3111  24   19.8744  23   -1.8  92    -2.9  0     0     991.5    NA       0.0000   -SN      BR    3300  0    
2019/07/30  08:06:01  BASE  17.199   21   19.9038  22   -1.7  92    -2.9  0     0     991.5    NA       0.0000   -SN      BR    3300  0    
2019/07/30  08:07:01  BASE  16.6992  22   19.9038  22   -1.7  92    -2.8  0     0     991.6    NA       0.0000   -SN      BR    3000  0    
2019/07/30  08:08:01  BASE  16.5875  21   19.9038  22   -1.7  92    -2.7  0     0     991.6    NA       0.0000   -SN      BR    3200  0    
2019/07/30  08:09:01  BASE  16.7286  20   19.9038  22   -1.7  93    -2.7  0     0     991.6    NA       0.0000   -SN      BR    2700  0    
2019/07/30  08:10:01  BASE  16.8932  23   19.9038  22   -1.7  93    -2.7  0     0     991.6    NA       0.0000   -SN      BR    2200  0    
2019/07/30  08:11:01  BASE  16.4816  23   19.9038  22   -1.8  93    -2.7  0     0     991.6    NA       0.0000   -SN      BR    3800  0    
2019/07/30  08:12:00  BASE  14.8882  23   19.9038  22   -1.8  94    -2.7  0     0     991.8    NA       0.0000   -SN      BR    3800  0    
2019/07/30  08:13:01  BASE  15.2998  25   19.9038  22   -1.9  94    -2.7  0     0     991.7    NA       0.0000   -SN      BR    3700  0    
2019/07/30  08:14:01  BASE  16.7521  27   19.9038  22   -1.9  94    -2.7  0     0     991.7    NA       0.0000   -SN      BR    3500  260  
2019/07/30  08:15:01  BASE  17.299   28   19.9038  22   -2.0  95    -2.7  0     0     991.6    NA       0.0000   -SN      BR    3400  0    
2019/07/30  08:16:01  BASE  16.9226  29   19.8156  15   -2.0  95    -2.8  0     0     991.7    NA       0.0000   -SN      BR    2700  0    
2019/07/30  08:17:00  BASE  15.7996  26   19.8156  15   -2.1  95    -2.8  0     0     991.8    NA       0.0000   -SN      BR    2000  1180 
2019/07/30  08:18:00  BASE  15.6467  28   19.3922  27   -2.1  95    -2.8  0     0     991.7    NA       0.0000   -SN      BR    2600  0    
2019/07/30  08:19:01  BASE  16.1406  29   19.3922  27   -2.2  95    -2.9  0     0     991.7    NA       0.0000   -SN      BR    5000  1640 
2019/07/30  08:20:01  BASE  16.3582  25   19.3922  27   -2.2  95    -2.9  0     0     991.7    NA       0.0000   -SN      BR    4600  0    
2019/07/30  08:21:00  BASE  16.858   25   20.0567  28   -2.2  95    -2.9  0     0     991.6    NA       0.0000   -SN      BR    4500  1480 
2019/07/30  08:22:00  BASE  17.0579  25   20.0567  28   -2.1  95    -2.8  0     0     991.6    NA       0.0000   -SN      BR    3000  0    
2019/07/30  08:23:00  BASE  16.2876  26   20.0567  28   -2.1  95    -2.8  0     0     991.8    NA       0.0000   -SN      BR    2300  0    
2019/07/30  08:24:00  BASE  15.6643  28   20.0567  28   -2.1  95    -2.8  0     0     991.9    NA       0.0000   -SN      BR    3400  0    
2019/07/30  08:25:00  BASE  15.5996  28   20.0567  28   -2.0  95    -2.7  0     0     991.8    NA       0.0000   -SN      BR    3300  390  
2019/07/30  08:26:00  BASE  15.7172  27   20.0567  28   -2.0  95    -2.7  0     0     991.9    NA       0.0000   -SN      BR    3800  2990 
2019/07/30  08:27:00  BASE  15.7819  27   20.0567  28   -2.0  96    -2.6  0     0     991.9    NA       0.2540   -SN      BR    3100  360  
2019/07/30  08:28:00  BASE  14.9587  27   20.0567  28   -2.0  96    -2.5  0     0     992.2    NA       0.0000   -SN      BR    2400  0    
2019/07/30  08:29:00  BASE  13.0418  26   20.0567  28   -1.9  96    -2.5  0     0     992.4    NA       0.0000   -SN      BR    4800  360  
2019/07/30  08:30:00  BASE  12.0187  24   20.0567  28   -1.9  96    -2.5  0     0     992.5    NA       0.0000   -SN      BR    9000  0    
2019/07/30  08:31:01  BASE  11.5483  24   18.6925  19   -1.9  95    -2.5  0     0     992.6    NA       0.0000   -SN      BR    9999  430  
2019/07/30  08:32:01  BASE  11.0132  24   17.9693  31   -1.8  95    -2.6  0     0     992.7    NA       0.0000   -SN      BR    9999  390  
2019/07/30  08:33:01  BASE  11.0662  24   17.9693  31   -1.8  94    -2.6  0     0     992.6    NA       0.0000   -SN      BR    9999  390  
2019/07/30  08:34:01  BASE  10.5605  22   17.9693  31   -1.8  94    -2.7  0     0     992.9    NA       0.0000   -SN      BR    9999  3050 
2019/07/30  08:35:01  BASE  9.996    20   17.9693  31   -1.8  93    -2.8  0     0     992.8    NA       0.0000   -SN      BR    9999  2890 
2019/07/30  08:36:01  BASE  10.3253  19   17.9399  26   -1.8  93    -2.9  0     0     992.8    NA       0.0000   -SN      BR    9999  2990 
2019/07/30  08:37:01  BASE  9.56676  24   15.6114  22   -1.8  92    -2.9  0     0     992.8    NA       0.0000   -SN      BR    9999  2890 
2019/07/30  08:38:01  BASE  8.77296  27   14.1884  29   -1.8  91    -3.0  0     0     992.7    NA       0.0000   -SN      9999  2950  0    
2019/07/30  08:39:01  BASE  11.2426  22   15.6114  22   -1.7  91    -3.0  0     0     992.4    NA       0.0000   -SN      9999  1970  2850 
2019/07/30  08:40:01  BASE  12.5362  25   15.6114  22   -1.7  91    -3.0  0     0     992.4    NA       0.0000   -SN      9999  2660  0    
2019/07/30  08:41:01  BASE  11.1955  24   15.6114  22   -1.7  90    -3.1  0     0     992.5    NA       0.0000   -SN      9999  2760  0    
2019/07/30  08:42:01  BASE  10.5722  22   15.6114  22   -1.6  90    -3.1  0     0     992.7    NA       0.0000   -SN      9999  2920  0    
2019/07/30  08:43:01  BASE  10.3018  29   15.6114  22   -1.6  89    -3.1  0     0     992.7    NA       0.0000   -SN      9999  2660  0    
2019/07/30  08:44:01  BASE  9.24336  31   15.6114  22   -1.5  89    -3.2  0     0     992.9    NA       0.0000   -SN      9999  2530  0    
2019/07/30  08:45:01  BASE  8.2614   34   15.6114  22   -1.5  88    -3.2  0     0     992.8    NA       0.0000   -SN      9999  2660  0    
2019/07/30  08:46:01  BASE  7.41468  36   15.6114  22   -1.5  88    -3.2  0     0     992.9    NA       0.0000   -SN      9999  2820  0    
2019/07/30  08:47:00  BASE  6.40332  50   15.6114  22   -1.5  87    -3.3  0     0     993.0    NA       0.0000   -SN      9999  2790  0    
2019/07/30  08:48:01  BASE  5.44488  64   15.6114  22   -1.5  87    -3.4  0     0     993.1    NA       0.0000   -SN      9999  2790  0    
2019/07/30  08:49:01  BASE  3.77496  81   14.6706  28   -1.5  86    -3.5  0     0     993.2    NA       0.0000   -SN      9999  2660  0    
2019/07/30  08:50:01  BASE  3.39864  76   12.9772  17   -1.5  86    -3.5  0     0     993.3    NA       0.0000   9999     2790  0     0    
2019/07/30  08:51:01  BASE  4.66872  52   12.9772  17   -1.5  86    -3.5  0     0     993.2    NA       0.0000   9999     2620  0     0    
2019/07/30  08:52:01  BASE  4.2336   49   12.4656  43   -1.5  87    -3.5  0     0     993.3    NA       0.0000   9999     2790  0     0    
2019/07/30  08:53:00  BASE  2.81652  51   11.1308  47   -1.5  87    -3.4  0     0     993.4    NA       0.0000   9999     2820  0     0    
2019/07/30  08:54:01  BASE  2.15796  31   10.4958  35   -1.5  87    -3.3  0     0     993.3    NA       0.0000   9999     2850  0     0    
2019/07/30  08:55:01  BASE  1.33476  282  9.25512  25   -1.4  87    -3.4  0     0     993.4    NA       0.0000   9999     2850  0     0    
2019/07/30  08:56:01  BASE  0.88788  185  7.4088   40   -1.5  87    -3.5  0     0     993.4    NA       0.0000   9999     2850  0     0    
2019/07/30  08:57:00  BASE  2.10504  144  7.4088   40   -1.7  87    -3.6  0     0     993.4    NA       0.0000   9999     2890  0     0    
2019/07/30  08:58:01  BASE  4.6158   161  7.2912   77   -1.8  87    -3.7  0     0     993.2    NA       0.0000   9999     2820  0     0    
2019/07/30  08:59:01  BASE  5.78004  168  7.4088   175  -2.0  88    -3.8  0     0     993.1    NA       0.0000   9999     2920  0     0    
2019/07/30  09:00:00  BASE  3.91608  157  7.4088   175  -2.2  89    -3.7  0     0     993.3    NA       0.0000   9999     2820  0     0    
2019/07/30  09:01:01  BASE  1.28772  168  7.4088   175  -2.3  91    -3.6  0     0     993.2    NA       0.0000   9999     2820  0     0    
2019/07/30  09:02:00  BASE  0.88788  188  7.4088   175  -2.2  92    -3.4  0     0     993.2    NA       0.0000   9999     2850  0     0    
2019/07/30  09:03:01  BASE  1.1172   175  7.4088   175  -2.1  93    -3.1  0     0     993.3    NA       0.0000   9999     2920  0     0    
2019/07/30  09:04:01  BASE  1.12308  157  7.4088   175  -2.0  93    -2.9  0     0     993.3    NA       0.0000   9999     2890  0     0    
2019/07/30  09:05:01  BASE  2.0874   109  7.4088   175  -1.9  94    -2.8  0     0     993.3    NA       0.0000   9999     2760  0     0    
2019/07/30  09:06:00  BASE  2.92824  91   7.4088   175  -1.8  94    -2.7  0     0     993.4    NA       0.0000   9999     2660  0     0    
2019/07/30  09:07:01  BASE  3.48096  94   7.4088   175  -1.8  93    -2.7  0     0     993.4    NA       0.0000   9999     2660  0     0    
2019/07/30  09:08:01  BASE  3.24576  113  7.4088   175  -1.8  93    -2.8  0     0     993.4    NA       0.0000   9999     2620  0     0    
2019/07/30  09:09:01  BASE  2.793    119  5.05092  95   -1.8  93    -2.9  0     0     993.4    NA       0.0000   9999     2690  0     0    
2019/07/30  09:10:01  BASE  2.7048   112  5.05092  95   -1.9  93    -2.9  0     0     993.3    NA       0.0000   9999     2530  0     0    
2019/07/30  09:11:00  BASE  2.19912  129  5.05092  95   -2.0  93    -3.0  0     0     993.3    NA       0.0000   9999     2690  0     0    
2019/07/30  09:12:01  BASE  2.15208  131  5.05092  95   -2.0  93    -3.0  0     0     993.3    NA       0.0000   9999     2530  0     0    
2019/07/30  09:13:01  BASE  2.69304  94   5.05092  95   -2.0  93    -3.0  0     0     993.3    NA       0.0000   9999     2430  0     0    
2019/07/30  09:14:01  BASE  3.91608  56   6.07992  9    -2.0  94    -2.9  0     0     993.3    NA       0.0000   9999     2690  0     0    
2019/07/30  09:15:01  BASE  3.8514   25   6.07992  9    -1.9  94    -2.7  0     0     993.4    NA       0.0000   9999     2460  0     0    
2019/07/30  09:16:01  BASE  2.34612  344  6.07992  9    -1.8  94    -2.6  0     0     993.3    NA       0.0000   9999     2660  0     0    
2019/07/30  09:17:00  BASE  1.9698   341  6.07992  9    -1.7  94    -2.5  0     0     993.3    NA       0.0000   9999     2690  0     0    
2019/07/30  09:18:01  BASE  4.42176  20   8.25552  34   -1.6  94    -2.4  0     0     993.2    NA       0.0000   9999     2590  0     0    
2019/07/30  09:19:00  BASE  5.0274   43   8.25552  34   -1.5  93    -2.4  0     0     993.3    NA       0.0000   9999     2260  0     0    
2019/07/30  09:20:00  BASE  2.30496  60   8.25552  34   -1.4  93    -2.5  0     0     993.4    NA       0.0000   9999     2660  0     0    
2019/07/30  09:21:00  BASE  1.45236  104  8.25552  34   -1.4  92    -2.6  0     0     993.4    NA       0.0000   9999     2660  0     0    
2019/07/30  09:22:00  BASE  1.81692  110  8.25552  34   -1.4  91    -2.7  0     0     993.4    NA       0.0000   9999     2620  0     0    
2019/07/30  09:23:00  BASE  2.59896  22   8.25552  34   -1.4  91    -2.7  0     0     993.3    NA       0.0000   9999     2660  0     0    
2019/07/30  09:24:01  BASE  4.12188  24   8.25552  34   -1.4  90    -2.8  0     0     993.2    NA       0.0000   9999     2560  0     0    
2019/07/30  09:25:00  BASE  5.25672  40   8.25552  34   -1.4  90    -2.9  0     0     993.3    NA       0.0000   9999     2430  0     0    
2019/07/30  09:26:00  BASE  6.21516  44   8.80236  41   -1.4  90    -2.9  0     0     993.2    NA       0.0000   9999     2460  0     0    
2019/07/30  09:27:00  BASE  6.615    41   8.80236  41   -1.4  89    -3.0  0     0     993.1    NA       0.0000   9999     2490  0     0    
2019/07/30  09:28:00  BASE  7.39704  30   9.86076  22   -1.4  89    -3.0  0     0     993.1    NA       0.0000   9999     2560  0     0    
2019/07/30  09:29:00  BASE  8.66124  25   10.5252  23   -1.4  88    -3.0  0     0     993.0    NA       0.0000   9999     2660  0     0    
2019/07/30  09:30:00  BASE  9.702    26   11.7659  31   -1.4  88    -3.1  0     0     992.9    NA       0.0000   9999     2530  0     0    
2019/07/30  09:31:00  BASE  10.7075  25   12.495   19   -1.3  88    -3.1  0     0     992.7    NA       0.0000   9999     2070  0     0    
2019/07/30  09:32:00  BASE  11.5836  24   13.1594  27   -1.3  87    -3.1  0     0     992.6    NA       0.0000   9999     2230  0     0    
2019/07/30  09:33:00  BASE  12.5303  22   13.6416  20   -1.2  87    -3.1  0     0     992.5    NA       0.0000   9999     1800  0     0    
2019/07/30  09:34:00  BASE  13.0477  21   14.7     23   -1.2  87    -3.1  0     0     992.4    NA       0.0000   9999     1970  0     0    
2019/07/30  09:35:00  BASE  12.8831  22   14.7     23   -1.2  87    -3.1  0     0     992.3    NA       0.0000   9999     1840  0     0    
2019/07/30  09:36:00  BASE  12.7831  22   14.7     23   -1.2  87    -3.0  0     0     992.3    NA       0.0000   9999     2260  0     0    
2019/07/30  09:37:00  BASE  13.277   21   14.7     23   -1.1  87    -3.0  0     0     992.2    NA       0.0000   9999     1800  0     0    
2019/07/30  09:38:00  BASE  13.2829  20   14.7     23   -1.1  87    -2.9  0     0     992.2    NA       0.0000   9999     720   0     0    
2019/07/30  09:39:00  BASE  13.3476  20   14.7     19   -1.1  88    -2.9  0     0     992.2    NA       0.0000   9999     920   0     0    
2019/07/30  09:40:00  BASE  13.4064  22   14.7     19   -1.1  88    -2.9  0     0     992.2    NA       0.0000   9999     1050  0     0    
2019/07/30  09:41:00  BASE  12.8066  25   14.7     19   -1.2  88    -2.9  0     0     992.3    NA       0.0000   9999     1210  0     0    
2019/07/30  09:42:00  BASE  12.4244  26   14.7     19   -1.2  88    -2.9  0     0     992.4    NA       0.0000   9999     1280  0     0    
2019/07/30  09:43:00  BASE  12.201   25   14.7     19   -1.2  88    -3.0  0     0     992.3    NA       0.0000   9999     1940  0     0    
2019/07/30  09:44:00  BASE  12.6244  25   14.7     19   -1.2  88    -3.0  0     0     992.3    NA       0.0000   9999     2170  0     0    
2019/07/30  09:45:00  BASE  12.836   25   14.7     19   -1.2  88    -3.0  0     0     992.3    NA       0.0000   9999     2000  0     0    
2019/07/30  09:46:00  BASE  12.2245  26   14.7     19   -1.3  88    -3.0  0     0     992.4    NA       0.0000   9999     2000  0     0    
2019/07/30  09:47:00  BASE  11.8482  27   14.7     19   -1.3  88    -3.1  0     0     992.5    NA       0.0000   9999     2200  0     0    
2019/07/30  09:48:00  BASE  12.248   27   14.7     19   -1.3  87    -3.1  0     0     992.4    NA       0.0000   9999     620   2330  0    
2019/07/30  09:49:00  BASE  12.5009  26   14.5177  17   -1.3  87    -3.2  0     0     992.5    NA       0.0000   9999     520   0     0    
2019/07/30  09:50:01  BASE  12.7008  24   14.9705  23   -1.3  87    -3.2  0     0     992.4    NA       0.0000   9999     430   0     0    
2019/07/30  09:51:00  BASE  12.8125  25   14.9705  23   -1.3  87    -3.2  0     0     992.5    NA       0.0000   UP       9999  490   0    
2019/07/30  09:52:01  BASE  12.395   27   14.9705  23   -1.3  87    -3.2  0     0     992.5    NA       0.0000   UP       9999  620   0    
2019/07/30  09:53:00  BASE  12.3068  27   14.9705  23   -1.3  87    -3.2  0     0     992.5    NA       0.0000   UP       9999  1080  2620 
2019/07/30  09:54:01  BASE  11.8012  26   14.9705  23   -1.4  87    -3.2  0     0     992.6    NA       0.0000   UP       9999  2030  0    
2019/07/30  09:55:00  BASE  11.5424  26   14.9705  23   -1.4  88    -3.2  0     0     992.6    NA       0.0000   UP       9999  2000  0    
2019/07/30  09:56:00  BASE  11.713   26   14.9705  23   -1.4  88    -3.2  0     0     992.6    NA       0.0000   UP       9999  1710  0    
2019/07/30  09:57:00  BASE  11.807   26   14.9705  23   -1.4  88    -3.2  0     0     992.6    NA       0.0000   UP       9999  1570  0    
2019/07/30  09:58:00  BASE  11.8894  26   14.9705  23   -1.5  88    -3.2  0     0     992.6    NA       0.0000   UP       9999  1710  0    
2019/07/30  09:59:00  BASE  11.3484  28   14.9705  23   -1.5  88    -3.2  0     0     992.6    NA       0.0000   UP       9999  1610  0    
2019/07/30  10:00:00  BASE  11.2249  28   13.8533  26   -1.5  88    -3.3  0     0     992.6    NA       0.0000   9999     1540  0     0    
2019/07/30  10:01:00  BASE  11.9188  28   13.8533  26   -1.6  88    -3.3  0     0     992.6    NA       0.0000   9999     1440  0     0    
2019/07/30  10:02:00  BASE  11.8894  28   13.7004  28   -1.6  88    -3.3  0     0     992.5    NA       0.0000   9999     1710  0     0    
2019/07/30  10:03:00  BASE  11.9834  27   13.7004  28   -1.6  88    -3.3  0     0     992.5    NA       0.0000   9999     2000  0     0    
2019/07/30  10:04:00  BASE  11.9717  26   13.7004  28   -1.6  88    -3.3  0     0     992.5    NA       0.0000   9999     2360  0     0    
2019/07/30  10:05:00  BASE  12.0481  26   13.7004  28   -1.6  88    -3.3  0     0     992.5    NA       0.0000   9999     2300  0     0    
2019/07/30  10:06:00  BASE  11.9952  24   13.7004  28   -1.5  88    -3.3  0     0     992.6    NA       0.0000   9999     2260  0     0    
2019/07/30  10:07:00  BASE  11.66    24   13.7004  28   -1.5  88    -3.3  0     0     992.6    NA       0.0000   9999     2530  0     0    
2019/07/30  10:08:00  BASE  11.6189  24   13.7004  28   -1.5  88    -3.2  0     0     992.6    NA       0.0000   9999     1570  3350  0    
2019/07/30  10:09:01  BASE  11.7835  24   13.7004  28   -1.5  88    -3.2  0     0     992.6    NA       0.0000   9999     1710  0     0    
2019/07/30  10:10:00  BASE  11.713   25   13.7004  28   -1.5  88    -3.2  0     0     992.7    NA       0.0000   9999     2230  3480  0    
2019/07/30  10:11:00  BASE  11.7835  24   13.7004  28   -1.5  88    -3.2  0     0     992.7    NA       0.0000   9999     2460  0     0    
2019/07/30  10:12:00  BASE  12.0481  22   13.4593  25   -1.4  88    -3.2  0     0     992.7    NA       0.0000   9999     890   0     0    
2019/07/30  10:13:00  BASE  11.7482  23   13.4593  25   -1.4  88    -3.1  0     0     992.7    NA       0.0000   9999     690   0     0    
2019/07/30  10:14:00  BASE  11.6953  22   13.4593  25   -1.3  88    -3.1  0     0     992.8    NA       0.0000   9999     820   1570  0    
2019/07/30  10:15:00  BASE  11.6836  23   13.4593  25   -1.3  88    -3.0  0     0     992.8    NA       0.0000   9999     690   0     0    
2019/07/30  10:16:00  BASE  11.4013  27   13.4593  25   -1.3  88    -3.1  0     0     992.8    NA       0.0000   9999     1150  0     0    
2019/07/30  10:17:00  BASE  11.0544  26   13.4593  25   -1.3  88    -3.1  0     0     992.8    NA       0.0000   9999     1150  0     0    
2019/07/30  10:18:00  BASE  10.8956  23   13.4593  25   -1.4  88    -3.1  0     0     992.8    NA       0.0000   9999     1210  0     0    
2019/07/30  10:19:00  BASE  10.9192  23   13.3711  18   -1.4  88    -3.1  0     0     992.9    NA       0.0000   9999     1900  0     0    
2019/07/30  10:20:00  BASE  10.9486  24   13.3711  18   -1.4  88    -3.1  0     0     992.8    NA       0.0000   9999     1740  0     0    
2019/07/30  10:21:00  BASE  10.778   25   13.1888  24   -1.4  88    -3.1  0     0     992.9    NA       0.0000   9999     1540  0     0    
2019/07/30  10:22:00  BASE  10.6369  26   13.036   20   -1.4  88    -3.1  0     0     992.9    NA       0.0000   9999     1480  0     0    
2019/07/30  10:23:01  BASE  10.9897  25   13.036   20   -1.4  88    -3.1  0     0     992.9    NA       0.0000   9999     1870  0     0    
2019/07/30  10:24:00  BASE  11.0132  25   12.5538  24   -1.4  88    -3.1  0     0     992.9    NA       0.0000   9999     1870  0     0    
2019/07/30  10:25:01  BASE  10.1724  24   12.5538  24   -1.4  88    -3.2  0     0     992.9    NA       0.0000   9999     1970  0     0    
2019/07/30  10:26:00  BASE  9.6432   23   12.5538  24   -1.4  88    -3.2  0     0     993.0    NA       0.0000   9999     2230  0     0    
2019/07/30  10:27:00  BASE  9.60792  23   12.5538  24   -1.4  88    -3.1  0     0     993.0    NA       0.0000   9999     2170  0     0    
2019/07/30  10:28:00  BASE  9.04932  22   12.5538  24   -1.4  88    -3.1  0     0     993.1    NA       0.0000   9999     2330  0     0    
2019/07/30  10:29:00  BASE  8.2908   17   12.5538  24   -1.3  88    -3.1  0     0     993.1    NA       0.0000   9999     2230  0     0    
2019/07/30  10:30:01  BASE  8.45544  16   12.5538  24   -1.3  88    -3.0  0     0     993.1    NA       0.0000   9999     2230  0     0    
2019/07/30  10:31:00  BASE  8.6142   17   12.5538  24   -1.3  88    -3.0  0     0     993.2    NA       0.0000   9999     2070  0     0    
2019/07/30  10:32:00  BASE  8.63772  14   12.5538  24   -1.3  88    -3.0  0     0     993.2    NA       0.0000   9999     2000  0     0    
2019/07/30  10:33:00  BASE  9.04344  13   11.5542  22   -1.2  88    -3.0  0     0     993.2    NA       0.0000   9999     2070  0     0    
2019/07/30  10:34:00  BASE  9.7608   14   11.7071  14   -1.2  88    -3.0  0     0     993.1    NA       0.0000   9999     2070  0     0    
2019/07/30  10:35:00  BASE  10.5311  16   11.7071  14   -1.2  88    -3.0  0     0     993.1    NA       0.0000   9999     2070  0     0    
2019/07/30  10:36:01  BASE  10.2488  16   11.7071  14   -1.3  88    -3.0  0     0     993.2    NA       0.0000   9999     2070  0     0    
2019/07/30  10:37:00  BASE  9.41976  16   11.7071  14   -1.3  88    -3.0  0     0     993.3    NA       0.0000   9999     1870  0     0    
2019/07/30  10:38:01  BASE  8.84352  16   11.7071  14   -1.3  88    -3.0  0     0     993.3    NA       0.0000   9999     1640  0     0    
2019/07/30  10:39:00  BASE  8.42016  12   11.7071  14   -1.4  89    -3.0  0     0     993.3    NA       0.0000   9999     2000  0     0    
2019/07/30  10:40:00  BASE  8.52012  8    11.7071  14   -1.4  89    -2.9  0     0     993.3    NA       0.0000   9999     2400  0     0    
2019/07/30  10:41:00  BASE  8.89056  6    11.7071  14   -1.4  90    -2.9  0     0     993.3    NA       0.0000   9999     2000  2920  0    
2019/07/30  10:42:01  BASE  8.3202   5    11.7071  14   -1.4  90    -2.8  0     0     993.4    NA       0.0000   9999     590   0     0    
2019/07/30  10:43:00  BASE  7.47936  5    11.7071  14   -1.4  91    -2.8  0     0     993.4    NA       0.0000   9999     520   0     0    
2019/07/30  10:44:00  BASE  7.50288  6    11.6483  19   -1.4  91    -2.7  0     0     993.4    NA       0.0000   9999     1770  0     0    
2019/07/30  10:45:00  BASE  8.19672  11   10.3782  16   -1.4  91    -2.6  0     0     993.4    NA       0.0000   9999     1480  0     0    
2019/07/30  10:46:00  BASE  8.59068  13   10.1959  17   -1.4  91    -2.6  0     0     993.4    NA       0.0000   9999     1310  0     0    
2019/07/30  10:47:00  BASE  9.07284  14   10.5252  18   -1.4  92    -2.6  0     0     993.4    NA       0.0000   9999     1570  0     0    
2019/07/30  10:48:01  BASE  9.80784  20   10.6781  23   -1.4  92    -2.6  0     0     993.4    NA       0.0000   9999     1900  0     0    
2019/07/30  10:49:01  BASE  9.97836  22   10.6781  23   -1.4  92    -2.6  0     0     993.4    NA       0.0000   9999     1970  0     0    
2019/07/30  10:50:00  BASE  9.82548  21   10.6781  23   -1.5  92    -2.6  0     0     993.4    NA       0.0000   9999     1380  0     0    
2019/07/30  10:51:00  BASE  9.28452  23   10.6781  23   -1.5  92    -2.6  0     0     993.5    NA       0.0000   9999     1150  0     0    
2019/07/30  10:52:00  BASE  8.86704  23   10.6781  23   -1.5  92    -2.7  0     0     993.5    NA       0.0000   9999     620   0     0    
2019/07/30  10:53:00  BASE  8.56716  21   10.6781  23   -1.5  92    -2.7  0     0     993.5    NA       0.0000   9999     720   0     0    
2019/07/30  10:54:00  BASE  8.4672   18   10.6781  23   -1.5  92    -2.7  0     0     993.5    NA       0.0000   9999     820   1970  0    
2019/07/30  10:55:00  BASE  8.49072  18   10.6781  23   -1.5  92    -2.6  0     0     993.5    NA       0.0000   9999     1410  0     0    
2019/07/30  10:56:00  BASE  8.18496  23   10.6781  23   -1.5  92    -2.6  0     0     993.5    NA       0.0000   9999     890   0     0    
2019/07/30  10:57:00  BASE  7.60284  25   10.6781  23   -1.5  92    -2.6  0     0     993.5    NA       0.0000   9999     750   0     0    
2019/07/30  10:58:00  BASE  7.45584  26   10.5899  19   -1.5  92    -2.6  0     0     993.5    NA       0.0000   9999     1610  0     0    
2019/07/30  10:59:00  BASE  7.791    24   10.4664  15   -1.5  92    -2.6  0     0     993.5    NA       0.0000   9999     1870  0     0    
2019/07/30  11:00:00  BASE  7.938    20   9.77256  25   -1.5  92    -2.6  0     0     993.5    NA       0.0000   9999     1570  0     0    
2019/07/30  11:01:00  BASE  7.94976  19   9.5256   17   -1.5  92    -2.6  0     0     993.5    NA       0.0000   9999     2330  0     0    
2019/07/30  11:02:00  BASE  8.10264  16   9.16692  18   -1.5  92    -2.6  0     0     993.4    NA       0.0000   9999     2030  0     0    
2019/07/30  11:03:00  BASE  8.23788  16   9.16692  18   -1.4  92    -2.6  0     0     993.5    NA       0.0000   9999     1940  0     0    
2019/07/30  11:04:00  BASE  8.41428  16   9.22572  15   -1.4  92    -2.5  0     0     993.4    NA       0.0000   9999     1940  0     0    
2019/07/30  11:05:00  BASE  8.44368  13   9.22572  15   -1.4  92    -2.5  0     0     993.4    NA       0.0000   9999     1800  0     0    
2019/07/30  11:06:01  BASE  8.7612   13   9.64908  17   -1.4  92    -2.5  0     0     993.4    NA       0.0000   9999     1050  2230  0    
2019/07/30  11:07:00  BASE  9.53736  13   10.437   19   -1.4  92    -2.5  0     0     993.4    NA       0.0000   9999     890   0     0    
2019/07/30  11:08:00  BASE  9.8784   14   10.4958  23   -1.4  92    -2.5  0     0     993.3    NA       0.0000   9999     1380  2260  0    
2019/07/30  11:09:00  BASE  9.89016  17   10.8016  18   -1.4  92    -2.5  0     0     993.3    NA       0.0000   9999     1020  0     0    
2019/07/30  11:10:00  BASE  9.96072  18   11.1308  15   -1.4  92    -2.6  0     0     993.4    NA       0.0000   9999     1710  0     0    
2019/07/30  11:11:00  BASE  10.0783  18   11.1896  18   -1.5  92    -2.6  0     0     993.4    NA       0.0000   9999     1800  0     0    
2019/07/30  11:12:00  BASE  10.39    20   11.2543  19   -1.5  92    -2.6  0     0     993.4    NA       0.0000   9999     1380  0     0    
2019/07/30  11:13:00  BASE  10.3429  23   11.2543  19   -1.5  92    -2.6  0     0     993.4    NA       0.0000   9999     1120  0     0    
2019/07/30  11:14:00  BASE  9.63732  24   11.2543  19   -1.6  93    -2.6  0     0     993.5    NA       0.0000   9999     920   2200  0    
2019/07/30  11:15:00  BASE  9.3492   23   11.2543  19   -1.6  93    -2.6  0     0     993.5    NA       0.0000   9999     1900  0     0    
2019/07/30  11:16:00  BASE  8.97288  19   11.2543  19   -1.6  93    -2.6  0     0     993.5    NA       0.0000   9999     1610  0     0    
2019/07/30  11:17:00  BASE  8.67888  17   11.2543  19   -1.6  93    -2.6  0     0     993.6    NA       0.0000   9999     2460  0     0    
2019/07/30  11:18:00  BASE  8.80824  18   11.2543  19   -1.6  93    -2.6  0     0     993.6    NA       0.0000   9999     2590  0     0    
2019/07/30  11:19:00  BASE  8.73768  17   11.2543  19   -1.6  94    -2.5  0     0     993.6    NA       0.0000   9999     2430  0     0    
2019/07/30  11:20:00  BASE  8.95524  16   11.2543  19   -1.6  94    -2.5  0     0     993.6    NA       0.0000   9999     2400  0     0    
2019/07/30  11:21:00  BASE  8.83764  16   11.2543  19   -1.6  94    -2.4  0     0     993.6    NA       0.0000   9999     2460  3640  0    
2019/07/30  11:22:00  BASE  8.35548  16   11.0132  19   -1.6  94    -2.5  0     0     993.6    NA       0.0000   9999     2620  3840  0    
2019/07/30  11:23:00  BASE  8.72004  17   10.0724  21   -1.6  94    -2.5  0     0     993.6    NA       0.0000   9999     2620  4000  0    
2019/07/30  11:24:00  BASE  9.01404  18   10.0724  21   -1.6  94    -2.5  0     0     993.7    NA       0.0000   9999     2620  0     0    
2019/07/30  11:25:01  BASE  9.0258   16   9.91956  14   -1.7  94    -2.6  0     0     993.6    NA       0.0000   9999     2530  0     0    
2019/07/30  11:26:00  BASE  9.22572  14   10.1018  13   -1.7  93    -2.6  0     0     993.7    NA       0.0000   9999     1970  0     0    
2019/07/30  11:27:00  BASE  8.97288  12   10.1018  13   -1.6  93    -2.6  0     0     993.8    NA       0.0000   9999     1800  0     0    
2019/07/30  11:28:00  BASE  8.44956  13   10.1018  13   -1.6  93    -2.6  0     0     993.8    NA       0.0000   9999     1080  2360  0    
2019/07/30  11:29:00  BASE  8.83764  16   10.8016  17   -1.7  93    -2.6  0     0     993.8    NA       0.0000   9999     1350  0     0    
2019/07/30  11:30:00  BASE  8.75532  16   10.8016  17   -1.7  93    -2.6  0     0     993.9    NA       0.0000   9999     1120  3480  0    
2019/07/30  11:31:00  BASE  7.6734   16   10.8016  17   -1.7  93    -2.7  0     0     994.0    NA       0.0000   9999     2300  0     0    
2019/07/30  11:32:00  BASE  7.1442   16   10.8016  17   -1.7  93    -2.7  0     0     994.1    NA       0.0000   9999     2430  0     0    
2019/07/30  11:33:00  BASE  6.68556  16   10.8016  17   -1.7  93    -2.7  0     0     994.2    NA       0.0000   9999     2170  0     0    
2019/07/30  11:34:00  BASE  7.09128  2    10.8016  17   -1.7  93    -2.7  0     0     994.2    NA       0.0000   9999     1970  0     0    
2019/07/30  11:35:00  BASE  8.04384  335  10.8016  17   -1.8  94    -2.7  0     0     994.2    NA       0.0000   9999     1410  0     0    
2019/07/30  11:36:00  BASE  7.90272  331  10.8016  17   -1.8  94    -2.7  0     0     994.2    NA       0.0000   6000     0     0     0    
2019/07/30  11:37:00  BASE  7.31472  340  10.8016  17   -1.9  94    -2.8  0     0     994.3    NA       0.0000   6000     0     0     0    
2019/07/30  11:38:00  BASE  7.056    343  10.8016  17   -2.1  95    -2.8  0     0     994.3    NA       0.0000   UP       8000  0     0    
2019/07/30  11:39:00  BASE  6.56796  343  8.80236  18   -2.2  96    -2.8  0     0     994.3    NA       0.0000   UP       8000  0     0    
2019/07/30  11:40:01  BASE  5.92704  325  8.71416  332  -2.3  97    -2.7  0     0     994.4    NA       0.0000   UP       BR    8000  0    
2019/07/30  11:41:00  BASE  6.37392  298  8.71416  332  -2.3  98    -2.6  0     0     994.4    NA       0.0000   UP       BR    6000  0    
2019/07/30  11:42:00  BASE  6.9678   290  8.71416  332  -2.4  99    -2.5  0     0     994.4    NA       0.0000   UP       BR    4000  0    
2019/07/30  11:43:00  BASE  6.80316  293  8.71416  332  -2.4  99    -2.5  0     0     994.4    NA       0.0000   UP       BR    3300  0    
2019/07/30  11:44:00  BASE  6.8208   295  8.71416  332  -2.5  100   -2.5  0     0     994.4    NA       0.0000   UP       BR    3500  0    
2019/07/30  11:45:00  BASE  7.07364  297  8.64948  336  -2.5  100   -2.5  0     0     994.4    NA       0.0000   UP       BR    3500  0    
2019/07/30  11:46:00  BASE  7.27356  301  8.379    347  -2.6  100   -2.6  0     0     994.4    NA       0.0000   UP       BR    3000  0    
2019/07/30  11:47:00  BASE  7.62048  305  8.379    308  -2.6  100   -2.6  0     0     994.4    NA       0.0000   UP       BR    2700  0    
2019/07/30  11:48:00  BASE  7.90272  305  8.379    308  -2.7  100   -2.7  0     0     994.5    NA       0.0000   UP       BR    2500  0    
2019/07/30  11:49:00  BASE  7.86744  302  8.379    308  -2.7  100   -2.7  0     0     994.5    NA       0.0000   UP       BR    2700  0    
2019/07/30  11:50:00  BASE  7.47936  301  8.379    308  -2.8  100   -2.8  0     0     994.5    NA       0.0000   UP       BR    3000  0    
2019/07/30  11:51:00  BASE  7.30296  303  8.379    308  -2.8  100   -2.8  0     0     994.5    NA       0.0000   UP       BR    3100  0    
2019/07/30  11:52:00  BASE  7.18536  303  8.379    308  -2.8  100   -2.8  0     0     994.5    NA       0.0000   UP       BR    2900  0    
2019/07/30  11:53:00  BASE  6.89136  302  8.379    308  -2.8  100   -2.8  0     0     994.5    NA       0.0000   UP       BR    3300  0    
2019/07/30  11:54:00  BASE  6.47976  300  8.379    308  -2.8  100   -2.8  0     0     994.5    NA       0.0000   UP       BR    4400  0    
2019/07/30  11:55:00  BASE  6.27984  302  8.379    308  -2.8  100   -2.8  0     0     994.4    NA       0.0000   UP       BR    4500  0    
2019/07/30  11:56:00  BASE  6.3504   303  8.379    308  -2.9  100   -2.9  0     0     994.5    NA       0.0000   UP       BR    4100  0    
2019/07/30  11:57:00  BASE  6.2034   302  8.19672  306  -2.9  100   -2.9  0     0     994.5    NA       0.0000   UP       BR    3600  0    
2019/07/30  11:58:00  BASE  6.1152   302  8.01444  299  -2.9  100   -2.9  0     0     994.5    NA       0.0000   UP       BR    3400  0    
2019/07/30  11:59:00  BASE  5.94468  303  7.71456  303  -2.9  100   -2.9  0     0     994.5    NA       0.0000   UP       BR    3100  0    
2019/07/30  12:00:00  BASE  5.88588  304  7.71456  303  -3.0  100   -3.0  0     0     994.5    NA       0.2540   UP       BR    2900  0    
2019/07/30  12:01:00  BASE  5.95644  308  7.65576  303  -3.0  100   -3.0  0     0     994.5    NA       0.0000   UP       BR    3200  0    
2019/07/30  12:02:00  BASE  5.97408  309  7.2324   298  -3.0  100   -3.0  0     0     994.5    NA       0.0000   UP       BR    3100  0    
2019/07/30  12:03:00  BASE  6.1152   310  6.86784  315  -2.9  100   -2.9  0     0     994.5    NA       0.0000   UP       BR    3400  0    
2019/07/30  12:04:00  BASE  6.22692  310  6.86784  315  -2.9  100   -2.9  0     0     994.5    NA       0.0000   UP       BR    3400  0    
2019/07/30  12:05:00  BASE  5.76828  307  6.86784  315  -2.9  100   -2.9  0     0     994.6    NA       0.0000   UP       BR    3400  0    
2019/07/30  12:06:00  BASE  5.19792  304  6.86784  315  -2.9  100   -2.9  0     0     994.6    NA       0.0000   UP       BR    3400  0    
2019/07/30  12:07:00  BASE  4.91568  302  6.86784  315  -2.9  100   -2.9  0     0     994.6    NA       0.0000   UP       BR    3400  0    
2019/07/30  12:08:00  BASE  4.71576  305  6.86784  315  -3.0  100   -3.0  0     0     994.6    NA       0.0000   UP       BR    3400  0    
2019/07/30  12:09:00  BASE  5.18028  309  6.86784  315  -3.0  100   -3.0  0     0     994.6    NA       0.0000   UP       BR    3400  230  
2019/07/30  12:10:00  BASE  5.73888  309  6.86784  315  -3.0  100   -3.0  0     0     994.6    NA       0.0000   UP       BR    3400  260  
2019/07/30  12:11:00  BASE  5.63892  309  6.86784  315  -3.0  100   -3.0  0     0     994.7    NA       0.0000   -SN      BR    3400  0    
2019/07/30  12:12:00  BASE  5.48016  309  6.86784  315  -3.0  100   -3.0  0     0     994.7    NA       0.0000   BR       3400  0     0    
2019/07/30  12:13:01  BASE  5.439    308  6.56208  308  -3.0  100   -3.0  0     0     994.7    NA       0.0000   BR       3400  230   0    
2019/07/30  12:14:00  BASE  5.36844  308  6.07992  310  -3.0  100   -3.0  0     0     994.7    NA       0.0000   BR       3400  260   0    
2019/07/30  12:15:00  BASE  5.30964  308  6.07992  310  -3.0  100   -3.0  0     0     994.7    NA       0.0000   BR       3400  260   0    
2019/07/30  12:16:00  BASE  5.18616  307  6.07992  310  -3.0  100   -3.0  0     0     994.7    NA       0.0000   BR       3400  260   0    
2019/07/30  12:17:00  BASE  5.06856  305  6.07992  310  -3.0  100   -3.0  0     0     994.7    NA       0.0000   BR       3400  260   0    
2019/07/30  12:18:00  BASE  5.10972  307  6.07992  310  -3.1  100   -3.1  0     0     994.7    NA       0.0000   BR       3400  0     0    
2019/07/30  12:19:00  BASE  5.02152  307  5.99172  310  -3.1  100   -3.1  0     0     994.7    NA       0.0000   BR       3400  0     0    
2019/07/30  12:20:01  BASE  5.00388  307  5.89764  310  -3.1  100   -3.1  0     0     994.7    NA       0.0000   BR       3400  0     0    
2019/07/30  12:21:00  BASE  5.25084  309  5.89764  310  -3.1  100   -3.1  0     0     994.7    NA       0.0000   BR       3400  200   0    
2019/07/30  12:22:00  BASE  5.42136  307  5.89764  310  -3.1  100   -3.1  0     0     994.7    NA       0.0000   BR       3400  260   0    
2019/07/30  12:23:00  BASE  5.39196  304  5.83884  303  -3.1  100   -3.1  0     0     994.7    NA       0.0000   BR       3400  260   0    
2019/07/30  12:24:00  BASE  5.36844  302  5.99172  303  -3.1  100   -3.1  0     0     994.7    NA       0.0000   BR       3400  0     0    
2019/07/30  12:25:00  BASE  5.18028  298  5.99172  303  -3.1  100   -3.1  0     0     994.7    NA       0.0000   BR       3900  0     0    
2019/07/30  12:26:00  BASE  4.81572  293  5.99172  303  -3.1  100   -3.1  0     0     994.8    NA       0.0000   -SN      BR    5000  0    
2019/07/30  12:27:00  BASE  5.2626   290  6.56208  281  -3.0  100   -3.0  0     0     994.8    NA       0.0000   -SN      BR    6000  0    
2019/07/30  12:28:00  BASE  5.75064  286  6.56208  281  -3.1  100   -3.1  0     0     994.8    NA       0.0000   -SN      BR    6000  0    
2019/07/30  12:29:01  BASE  5.7918   286  6.56208  281  -3.1  100   -3.1  0     0     994.8    NA       0.0000   -SN      BR    6000  230  
2019/07/30  12:30:01  BASE  6.03288  290  6.56208  281  -3.1  100   -3.1  0     0     994.9    NA       0.0000   -SN      BR    6000  260  
2019/07/30  12:31:00  BASE  5.87412  286  6.71496  282  -3.2  100   -3.2  0     0     994.9    NA       0.0000   -SN      BR    6000  300  
2019/07/30  12:32:00  BASE  5.6448   282  7.05012  282  -3.2  100   -3.2  0     0     994.9    NA       0.0000   -SN      BR    6000  330  
2019/07/30  12:33:00  BASE  6.27396  287  7.50288  292  -3.3  100   -3.3  0     0     994.9    NA       0.0000   -SN      BR    7000  330  
2019/07/30  12:34:00  BASE  6.09168  294  7.50288  292  -3.3  100   -3.3  0     0     994.9    NA       0.0000   -SN      BR    9999  330  
2019/07/30  12:35:01  BASE  5.7624   297  7.50288  292  -3.3  100   -3.3  0     0     994.9    NA       0.0000   -SN      BR    9999  330  
2019/07/30  12:36:01  BASE  5.9388   297  7.50288  292  -3.3  100   -3.3  0     0     994.9    NA       0.0000   -SN      BR    9999  300  
2019/07/30  12:37:00  BASE  5.50368  298  7.50288  292  -3.3  100   -3.3  0     0     994.9    NA       0.0000   BR       9999  300   0    
2019/07/30  12:38:00  BASE  4.98036  298  7.50288  292  -3.3  100   -3.3  0     0     994.9    NA       0.0000   BR       9999  330   0    
2019/07/30  12:39:00  BASE  4.8804   298  7.50288  292  -3.4  100   -3.4  0     0     995.0    NA       0.0000   BR       9999  390   0    
2019/07/30  12:40:01  BASE  5.41548  295  7.50288  292  -3.4  100   -3.4  0     0     995.0    NA       0.0000   9999     430   0     0    
2019/07/30  12:41:00  BASE  5.47428  294  7.50288  292  -3.4  100   -3.4  0     0     995.1    NA       0.0000   9999     390   0     0    
2019/07/30  12:42:00  BASE  5.28024  300  7.50288  292  -3.4  100   -3.4  0     0     995.1    NA       0.0000   9999     490   0     0    
2019/07/30  12:43:00  BASE  5.59776  303  6.59148  293  -3.4  100   -3.4  0     0     995.1    NA       0.0000   9999     690   0     0    
2019/07/30  12:44:01  BASE  5.76828  304  6.59148  293  -3.4  100   -3.4  0     0     995.1    NA       0.0000   9999     430   0     0    
2019/07/30  12:45:01  BASE  5.3802   304  6.2034   301  -3.4  100   -3.4  0     0     995.1    NA       0.0000   9999     390   0     0    
2019/07/30  12:46:00  BASE  5.7036   301  7.74396  296  -3.4  100   -3.4  0     0     995.1    NA       0.0000   9999     360   0     0    
2019/07/30  12:47:00  BASE  5.89176  296  7.74396  296  -3.4  100   -3.4  0     0     995.1    NA       0.0000   9999     360   0     0    
2019/07/30  12:48:00  BASE  5.39784  295  7.74396  296  -3.4  100   -3.4  0     0     995.1    NA       0.0000   9999     330   0     0    
2019/07/30  12:49:01  BASE  5.98584  294  7.74396  296  -3.4  100   -3.4  0     0     995.1    NA       0.0000   9999     330   0     0    
2019/07/30  12:50:01  BASE  6.468    292  7.74396  296  -3.4  100   -3.4  1     0     995.1    NA       0.0000   9999     360   0     0    
2019/07/30  12:51:00  BASE  6.468    294  7.74396  296  -3.5  100   -3.5  1     0     995.1    NA       0.0000   9999     360   0     0    
2019/07/30  12:52:00  BASE  6.97956  296  7.83216  299  -3.5  100   -3.5  1     0     995.1    NA       0.0000   9999     300   0     0    
2019/07/30  12:53:00  BASE  7.21476  298  8.25552  299  -3.5  100   -3.5  1     0     995.1    NA       0.0000   9999     300   0     0    
2019/07/30  12:54:00  BASE  6.75612  300  8.25552  299  -3.6  100   -3.6  1     0     995.1    NA       0.0000   9999     300   0     0    
2019/07/30  12:55:00  BASE  6.57384  300  8.25552  299  -3.6  100   -3.6  1     0     995.1    NA       0.0000   9999     330   0     0    
2019/07/30  12:56:00  BASE  6.70908  300  8.25552  299  -3.6  100   -3.6  1     0     995.1    NA       0.0000   9999     300   0     0    
2019/07/30  12:57:00  BASE  6.18576  303  8.25552  299  -3.6  100   -3.6  1     0     995.2    NA       0.0000   9999     330   0     0    
2019/07/30  12:58:00  BASE  5.733    305  8.25552  299  -3.6  100   -3.6  1     0     995.2    NA       0.0000   9999     330   0     0    
2019/07/30  12:59:00  BASE  5.95056  303  8.25552  299  -3.6  100   -3.6  1     0     995.2    NA       0.0000   9999     330   0     0    
2019/07/30  13:00:00  BASE  6.07404  302  8.25552  299  -3.6  100   -3.6  1     0     995.2    NA       0.0000   9999     330   0     0    
2019/07/30  13:01:00  BASE  6.01524  305  8.25552  299  -3.6  100   -3.6  1     0     995.2    NA       0.0000   9999     360   0     0    
2019/07/30  13:02:00  BASE  6.28572  303  8.25552  299  -3.6  100   -3.6  1     0     995.2    NA       0.0000   9999     390   0     0    
2019/07/30  13:03:00  BASE  6.12696  296  7.71456  301  -3.6  100   -3.6  2     0     995.3    NA       0.0000   9999     360   0     0    
2019/07/30  13:04:00  BASE  5.43312  294  7.71456  301  -3.6  100   -3.6  2     0     995.3    NA       0.0000   9999     300   0     0    
2019/07/30  13:05:00  BASE  5.5566   297  7.2618   307  -3.6  100   -3.6  2     0     995.3    NA       0.0000   9999     300   0     0    
2019/07/30  13:06:00  BASE  5.68008  296  7.2618   307  -3.6  100   -3.6  2     0     995.3    NA       0.0000   9999     330   0     0    
2019/07/30  13:07:00  BASE  5.23908  295  7.2618   307  -3.6  100   -3.6  2     0     995.3    NA       0.0000   9999     330   0     0    
2019/07/30  13:08:00  BASE  5.15088  295  7.2618   307  -3.6  100   -3.6  2     0     995.3    NA       0.0000   9999     330   0     0    
2019/07/30  13:09:00  BASE  5.09796  295  7.2618   307  -3.6  100   -3.6  2     0     995.3    NA       0.0000   9999     330   0     0    
2019/07/30  13:10:01  BASE  5.20968  294  7.2618   307  -3.6  100   -3.6  2     0     995.3    NA       0.0000   9999     330   0     0    
2019/07/30  13:11:00  BASE  5.3214   294  7.2618   307  -3.6  100   -3.6  2     0     995.3    NA       0.0000   9999     330   0     0    
2019/07/30  13:12:00  BASE  5.5272   292  6.47388  300  -3.6  100   -3.6  2     0     995.4    NA       0.0000   9999     330   0     0    
2019/07/30  13:13:00  BASE  6.0564   290  6.86784  282  -3.6  100   -3.6  2     0     995.3    NA       0.0000   9999     300   0     0    
2019/07/30  13:14:00  BASE  5.78004  293  6.86784  282  -3.6  100   -3.6  2     0     995.4    NA       0.0000   9999     300   0     0    
2019/07/30  13:15:00  BASE  5.4096   300  6.86784  282  -3.6  100   -3.6  3     0     995.4    NA       0.0000   9999     300   0     0    
2019/07/30  13:16:00  BASE  5.84472  302  6.86784  282  -3.6  100   -3.6  3     0     995.4    NA       0.0000   9999     300   0     0    
2019/07/30  13:17:00  BASE  6.027    302  6.86784  282  -3.6  100   -3.6  3     0     995.4    NA       0.0000   9999     300   0     0    
2019/07/30  13:18:00  BASE  5.85648  305  6.86784  282  -3.6  100   -3.6  3     0     995.4    NA       0.0000   9999     300   0     0    
2019/07/30  13:19:00  BASE  5.71536  308  6.86784  282  -3.7  100   -3.7  3     0     995.4    NA       0.0000   9999     360   0     0    
2019/07/30  13:20:00  BASE  5.89176  307  6.86784  282  -3.7  100   -3.7  3     0     995.4    NA       0.0000   9999     360   0     0    
2019/07/30  13:21:00  BASE  5.65068  302  6.86784  282  -3.7  100   -3.7  3     0     995.4    NA       0.0000   9999     360   0     0    
2019/07/30  13:22:00  BASE  4.98036  300  6.86784  282  -3.7  100   -3.7  3     0     995.4    NA       0.0000   9999     330   0     0    
2019/07/30  13:23:00  BASE  5.3214   302  6.41508  310  -3.7  100   -3.7  3     0     995.4    NA       0.0000   9999     360   0     0    
2019/07/30  13:24:00  BASE  5.83296  304  6.41508  310  -3.7  100   -3.7  3     0     995.4    NA       0.0000   9999     360   0     0    
2019/07/30  13:25:00  BASE  5.39196  302  6.41508  310  -3.7  100   -3.7  3     0     995.5    NA       0.0000   9999     390   0     0    
2019/07/30  13:26:00  BASE  5.01564  300  6.41508  310  -3.7  100   -3.7  3     0     995.5    NA       0.0000   9999     430   0     0    
2019/07/30  13:27:00  BASE  5.03916  304  6.41508  310  -3.8  100   -3.8  3     0     995.5    NA       0.0000   9999     360   0     0    
2019/07/30  13:28:00  BASE  5.439    308  6.41508  310  -3.8  100   -3.8  4     0     995.5    NA       0.0000   9999     330   0     0    
2019/07/30  13:29:00  BASE  5.75064  306  6.41508  310  -3.8  100   -3.8  4     0     995.5    NA       0.0000   9999     330   0     0    
2019/07/30  13:30:00  BASE  5.49192  303  6.41508  310  -3.7  100   -3.7  4     0     995.5    NA       0.0000   9999     330   0     0    
2019/07/30  13:31:00  BASE  5.10972  304  6.41508  310  -3.7  100   -3.7  4     0     995.5    NA       0.0000   9999     330   1250  0    
2019/07/30  13:32:00  BASE  4.99212  306  6.41508  310  -3.7  100   -3.7  4     0     995.5    NA       0.0000   9999     300   0     0    
2019/07/30  13:33:00  BASE  5.08032  306  6.321    306  -3.7  100   -3.7  4     0     995.5    NA       0.0000   9999     330   0     0    
2019/07/30  13:34:00  BASE  5.19792  299  6.321    306  -3.7  100   -3.7  4     0     995.5    NA       0.0000   9999     330   0     0    
2019/07/30  13:35:00  BASE  4.94508  297  6.321    306  -3.7  100   -3.7  5     0     995.6    NA       0.0000   9999     360   1510  0    
2019/07/30  13:36:00  BASE  4.7628   300  6.321    306  -3.7  100   -3.7  5     0     995.6    NA       0.0000   9999     360   0     0    
2019/07/30  13:37:00  BASE  4.78632  299  6.321    306  -3.7  100   -3.7  5     0     995.6    NA       0.0000   9999     360   0     0    
2019/07/30  13:38:00  BASE  4.6158   297  6.2328   300  -3.7  100   -3.7  5     0     995.7    NA       0.0000   9999     330   1250  0    
2019/07/30  13:39:00  BASE  4.65696  295  5.86824  301  -3.8  100   -3.8  5     0     995.7    NA       0.0000   9999     330   0     0    
2019/07/30  13:40:00  BASE  4.74516  292  5.86824  301  -3.8  100   -3.8  4     0     995.7    NA       0.0000   9999     330   0     0    
2019/07/30  13:41:00  BASE  4.66284  291  5.65656  305  -3.8  100   -3.8  4     0     995.6    NA       0.0000   9999     330   0     0    
2019/07/30  13:42:00  BASE  4.5864   291  5.65656  305  -3.8  100   -3.8  4     0     995.6    NA       0.0000   9000     300   0     0    
2019/07/30  13:43:00  BASE  4.68048  293  5.47428  290  -3.8  100   -3.8  4     0     995.6    NA       0.0000   9000     300   0     0    
2019/07/30  13:44:00  BASE  4.56876  291  5.2626   299  -3.9  100   -3.9  4     0     995.6    NA       0.0000   9999     330   0     0    
2019/07/30  13:45:00  BASE  4.2042   288  5.2626   299  -3.9  100   -3.9  4     0     995.6    NA       0.0000   9999     330   0     0    
2019/07/30  13:46:00  BASE  4.53348  290  5.47428  288  -3.8  100   -3.8  4     0     995.6    NA       0.0000   9999     360   0     0    
2019/07/30  13:47:00  BASE  4.98624  293  5.59776  298  -3.8  100   -3.8  5     0     995.6    NA       0.0000   9999     330   0     0    
2019/07/30  13:48:00  BASE  4.98036  294  5.59776  298  -3.8  100   -3.8  5     0     995.6    NA       0.0000   9999     330   0     0    
2019/07/30  13:49:00  BASE  5.29788  293  6.71496  290  -3.8  100   -3.8  5     0     995.6    NA       0.0000   9999     300   0     0    
2019/07/30  13:50:00  BASE  5.99172  295  6.92664  301  -3.8  100   -3.8  6     0     995.5    NA       0.0000   9999     300   0     0    
2019/07/30  13:51:00  BASE  6.43272  297  7.05012  297  -3.9  100   -3.9  6     0     995.5    NA       0.0000   9999     300   0     0    
2019/07/30  13:52:00  BASE  6.3504   296  7.05012  297  -3.9  100   -3.9  6     0     995.6    NA       0.0000   9999     330   0     0    
2019/07/30  13:53:00  BASE  5.81532  291  7.05012  297  -3.9  100   -3.9  7     0     995.6    NA       0.0000   9999     360   0     0    
2019/07/30  13:54:00  BASE  5.62128  283  7.05012  297  -3.9  100   -3.9  7     0     995.7    NA       0.0000   9999     390   1250  0    
2019/07/30  13:55:00  BASE  5.57424  275  7.05012  297  -3.9  100   -3.9  7     0     995.7    NA       0.0000   9999     330   1410  0    
2019/07/30  13:56:00  BASE  4.94508  276  7.05012  297  -3.9  100   -3.9  7     0     995.7    NA       0.0000   9999     390   0     0    
2019/07/30  13:57:00  BASE  4.63344  273  7.05012  297  -3.9  100   -3.9  7     0     995.7    NA       0.0000   9999     390   0     0    
2019/07/30  13:58:00  BASE  4.95096  271  7.05012  297  -3.9  100   -3.9  6     0     995.7    NA       0.0000   9999     430   0     0    
2019/07/30  13:59:00  BASE  5.35668  272  7.05012  297  -4.0  100   -4.0  6     0     995.7    NA       0.0000   9999     460   0     0    
2019/07/30  14:00:00  BASE  5.59776  269  7.05012  297  -4.0  100   -4.0  6     0     995.7    NA       0.0000   9999     460   0     0    
2019/07/30  14:01:00  BASE  5.09208  269  6.53268  273  -4.0  100   -4.0  6     0     995.8    NA       0.0000   9999     360   0     0    
2019/07/30  14:02:00  BASE  4.47468  275  6.53268  273  -4.0  100   -4.0  6     0     995.8    NA       0.0000   9999     330   0     0    
2019/07/30  14:03:00  BASE  4.86276  281  6.53268  273  -4.0  100   -4.0  6     0     995.8    NA       0.0000   9000     360   0     0    
2019/07/30  14:04:00  BASE  4.96272  278  6.53268  273  -4.0  100   -4.0  6     0     995.9    NA       0.0000   8000     360   0     0    
2019/07/30  14:05:00  BASE  4.89216  282  6.53268  273  -4.0  100   -4.0  6     0     995.9    NA       0.0000   9999     360   0     0    
2019/07/30  14:06:00  BASE  5.81532  291  6.71496  294  -4.0  100   -4.0  6     0     995.8    NA       0.0000   9999     330   0     0    
2019/07/30  14:07:00  BASE  6.27984  294  6.71496  294  -4.0  100   -4.0  7     0     995.8    NA       0.0000   9999     300   0     0    
2019/07/30  14:08:00  BASE  5.5566   294  6.71496  294  -4.1  100   -4.1  8     0     995.9    NA       0.0000   9999     330   0     0    
2019/07/30  14:09:00  BASE  5.145    291  6.71496  294  -4.1  100   -4.1  8     0     995.9    NA       0.0000   9999     360   0     0    
2019/07/30  14:10:00  BASE  5.18028  285  6.71496  294  -4.1  100   -4.1  9     0     995.8    NA       0.0000   9999     360   1180  0    
2019/07/30  14:11:00  BASE  4.9098   284  6.71496  294  -4.2  100   -4.2  10    0     995.9    NA       0.0000   9999     330   0     0    
2019/07/30  14:12:00  BASE  4.86276  288  6.71496  294  -4.1  100   -4.1  11    0     995.8    NA       0.0000   9999     360   1410  0    
2019/07/30  14:13:00  BASE  4.79808  291  6.71496  294  -4.1  100   -4.1  11    0     995.8    NA       0.0000   9999     330   1440  0    
2019/07/30  14:14:00  BASE  4.58052  293  6.71496  294  -4.2  100   -4.2  11    0     995.8    NA       0.0000   9999     360   0     0    
2019/07/30  14:15:00  BASE  4.89216  295  6.71496  294  -4.1  100   -4.1  11    0     995.8    NA       0.0000   9999     390   0     0    
2019/07/30  14:16:00  BASE  5.3214   295  6.53268  294  -4.2  100   -4.2  12    0     995.8    NA       0.0000   9999     360   1310  0    
2019/07/30  14:17:00  BASE  5.86824  295  6.53268  289  -4.2  100   -4.2  12    0     995.8    NA       0.0000   9999     360   1310  0    
2019/07/30  14:18:00  BASE  5.98584  294  6.53268  289  -4.2  100   -4.2  13    0     995.9    NA       0.0000   9999     360   0     0    
2019/07/30  14:19:00  BASE  5.44488  294  6.53268  289  -4.2  100   -4.2  14    0     995.9    NA       0.0000   9999     360   0     0    
2019/07/30  14:20:00  BASE  4.9686   294  6.53268  289  -4.3  100   -4.3  15    0     995.9    NA       0.0000   9999     360   0     0    
2019/07/30  14:21:00  BASE  4.63932  296  6.53268  289  -4.3  100   -4.3  16    0     996.0    NA       0.0000   9999     390   0     0    
2019/07/30  14:22:00  BASE  4.83924  294  6.53268  289  -4.3  100   -4.3  17    0     996.0    NA       0.0000   9999     390   1280  0    
2019/07/30  14:23:00  BASE  4.98036  291  6.53268  289  -4.3  100   -4.3  18    0     996.0    NA       0.0000   9999     360   1250  0    
2019/07/30  14:24:00  BASE  4.63932  290  6.53268  289  -4.3  100   -4.3  19    0     996.0    NA       0.0000   9999     390   0     0    
2019/07/30  14:25:00  BASE  4.46292  284  6.53268  289  -4.3  100   -4.3  19    0     996.0    NA       0.0000   9999     390   0     0    
2019/07/30  14:26:00  BASE  4.35708  289  6.53268  289  -4.3  100   -4.3  18    0     996.0    NA       0.0000   9999     890   0     0    
2019/07/30  14:27:00  BASE  4.65108  300  6.2622   294  -4.2  100   -4.2  18    0     996.0    NA       0.0000   9999     430   0     0    
2019/07/30  14:28:00  BASE  4.88628  299  5.47428  291  -4.2  100   -4.2  18    0     996.0    NA       0.0000   9999     360   0     0    
2019/07/30  14:29:00  BASE  4.87452  297  5.53308  296  -4.2  100   -4.2  18    0     996.0    NA       0.0000   9999     360   1050  0    
2019/07/30  14:30:00  BASE  5.46252  301  6.13872  311  -4.2  100   -4.2  19    0     996.0    NA       0.0000   9999     390   0     0    
2019/07/30  14:31:00  BASE  5.69772  304  6.16812  308  -4.2  100   -4.2  20    0     996.0    NA       0.0000   9999     720   0     0    
2019/07/30  14:32:00  BASE  5.73888  303  6.50328  307  -4.2  100   -4.2  21    0     996.0    NA       0.0000   9999     490   0     0    
2019/07/30  14:33:00  BASE  6.04464  307  6.56208  310  -4.2  100   -4.2  21    0     996.0    NA       0.0000   9999     690   0     0    
2019/07/30  14:34:00  BASE  5.9094   310  6.56208  310  -4.2  100   -4.2  21    0     996.0    NA       0.0000   9999     750   0     0    
2019/07/30  14:35:00  BASE  5.94468  309  6.77376  310  -4.2  100   -4.2  21    0     996.0    NA       0.0000   9999     890   0     0    
2019/07/30  14:36:00  BASE  5.95056  306  6.77376  310  -4.2  100   -4.2  21    0     996.0    NA       0.0000   9999     950   0     0    
2019/07/30  14:37:00  BASE  5.53308  305  6.77376  310  -4.1  100   -4.1  20    0     996.0    NA       0.0000   9999     980   0     0    
2019/07/30  14:38:00  BASE  5.76828  305  6.77376  310  -4.1  100   -4.1  20    0     996.0    NA       0.0000   9999     1050  0     0    
2019/07/30  14:39:00  BASE  6.06228  307  6.77376  310  -4.1  100   -4.1  20    0     996.0    NA       0.0000   9999     920   0     0    
2019/07/30  14:40:00  BASE  6.03288  309  6.77376  310  -4.1  100   -4.1  20    0     996.0    NA       0.0000   9999     1050  0     0    
2019/07/30  14:41:00  BASE  5.97408  306  6.77376  310  -4.1  100   -4.1  20    0     996.1    NA       0.0000   9999     920   0     0    
2019/07/30  14:42:00  BASE  5.62716  304  6.77376  310  -4.1  100   -4.1  21    0     996.1    NA       0.0000   9999     1050  0     0    
2019/07/30  14:43:00  BASE  5.3508   301  6.77376  310  -4.1  100   -4.1  21    0     996.1    NA       0.0000   9999     1080  0     0    
2019/07/30  14:44:00  BASE  5.04504  298  6.77376  310  -4.1  100   -4.1  22    0     996.1    NA       0.0000   9999     1350  0     0    
2019/07/30  14:45:00  BASE  5.01564  296  6.56208  308  -4.1  100   -4.1  23    0     996.1    NA       0.0000   9999     1310  0     0    
2019/07/30  14:46:00  BASE  5.07444  297  6.56208  308  -4.1  100   -4.1  23    0     996.1    NA       0.0000   9999     1380  0     0    
2019/07/30  14:47:00  BASE  5.30376  296  6.56208  308  -4.1  100   -4.1  24    0     996.1    NA       0.0000   9999     1180  0     0    
2019/07/30  14:48:00  BASE  5.73888  294  6.50328  305  -4.1  100   -4.1  24    0     996.1    NA       0.0000   9999     1380  0     0    
2019/07/30  14:49:00  BASE  5.8212   298  6.50328  305  -4.1  100   -4.1  23    0     996.1    NA       0.0000   9999     890   1870  0    
2019/07/30  14:50:01  BASE  6.00936  298  6.53268  297  -4.1  100   -4.1  24    0     996.1    NA       0.0000   9999     920   0     0    
2019/07/30  14:51:00  BASE  5.82708  293  6.53268  297  -4.1  100   -4.1  25    0     996.2    NA       0.0000   9999     390   0     0    
2019/07/30  14:52:00  BASE  5.6448   293  6.53268  297  -4.2  100   -4.2  25    0     996.2    NA       0.0000   9999     390   0     0    
2019/07/30  14:53:00  BASE  5.72712  294  6.53268  297  -4.2  100   -4.2  24    0     996.2    NA       0.0000   9999     360   1310  0    
2019/07/30  14:54:00  BASE  4.9098   289  6.53268  297  -4.2  100   -4.2  23    0     996.3    NA       0.0000   9999     430   1610  0    
2019/07/30  14:55:00  BASE  4.59816  282  6.53268  297  -4.2  100   -4.2  23    0     996.3    NA       0.0000   9999     1310  0     0    
2019/07/30  14:56:00  BASE  4.97448  283  6.53268  297  -4.2  100   -4.2  22    0     996.2    NA       0.0000   9999     1350  0     0    
2019/07/30  14:57:00  BASE  4.6746   289  6.53268  297  -4.2  100   -4.2  21    0     996.4    NA       0.0000   9999     1870  0     0    
2019/07/30  14:58:00  BASE  4.75692  293  6.53268  297  -4.2  100   -4.2  21    0     996.3    NA       0.0000   9999     1800  0     0    
2019/07/30  14:59:00  BASE  5.06856  293  6.53268  297  -4.2  100   -4.2  21    0     996.3    NA       0.0000   9999     1800  0     0    
2019/07/30  15:00:00  BASE  4.86276  291  6.3504   294  -4.2  100   -4.2  21    0     996.4    NA       0.0000   9999     1900  0     0    
2019/07/30  15:01:00  BASE  4.77456  291  6.3504   294  -4.2  100   -4.2  22    1     996.5    NA       0.0000   9999     1150  1770  0    
2019/07/30  15:02:00  BASE  5.1744   296  6.3504   294  -4.2  100   -4.2  23    1     996.5    NA       0.0000   9999     1150  0     0    
2019/07/30  15:03:00  BASE  5.35668  297  5.80944  299  -4.2  100   -4.2  24    0     996.5    NA       0.0000   9999     1280  0     0    
2019/07/30  15:04:00  BASE  5.0862   295  5.80944  299  -4.2  100   -4.2  24    0     996.5    NA       0.0000   9999     1050  0     0    
2019/07/30  15:05:00  BASE  4.72164  294  5.80944  299  -4.3  100   -4.3  25    0     996.5    NA       0.0000   9999     1050  0     0    
2019/07/30  15:06:00  BASE  4.72164  293  6.02112  290  -4.3  100   -4.3  25    1     996.5    NA       0.0000   9999     1180  0     0    
2019/07/30  15:07:00  BASE  5.28612  290  6.02112  290  -4.3  100   -4.3  26    0     996.5    NA       0.0000   9999     1610  0     0    
2019/07/30  15:08:00  BASE  5.22144  291  6.02112  290  -4.3  100   -4.3  27    0     996.6    NA       0.0000   9999     720   0     0    
2019/07/30  15:09:00  BASE  4.6746   294  6.02112  290  -4.3  100   -4.3  27    0     996.5    NA       0.0000   9999     1610  0     0    
2019/07/30  15:10:00  BASE  4.33944  296  6.02112  290  -4.3  100   -4.3  27    0     996.5    NA       0.0000   9999     1150  1710  0    
2019/07/30  15:11:00  BASE  4.3806   300  6.02112  290  -4.3  100   -4.3  27    0     996.5    NA       0.0000   9999     1080  2070  0    
2019/07/30  15:12:00  BASE  4.8216   303  6.02112  290  -4.2  100   -4.2  27    1     996.5    NA       0.0000   9999     1080  0     0    
2019/07/30  15:13:00  BASE  4.88628  300  6.02112  290  -4.2  100   -4.2  26    0     996.6    NA       0.0000   9999     1180  0     0    
2019/07/30  15:14:00  BASE  4.57464  298  6.02112  290  -4.3  100   -4.3  26    0     996.6    NA       0.0000   9999     690   0     0    
2019/07/30  15:15:00  BASE  4.5864   299  6.02112  290  -4.3  100   -4.3  26    0     996.6    NA       0.0000   9999     750   0     0    
2019/07/30  15:16:00  BASE  4.97448  301  5.92704  290  -4.3  100   -4.3  26    0     996.6    NA       0.0000   9999     690   0     0    
2019/07/30  15:17:00  BASE  5.0274   302  5.41548  293  -4.3  100   -4.3  26    0     996.6    NA       0.0000   9999     1280  0     0    
2019/07/30  15:18:00  BASE  4.65696  297  5.41548  293  -4.3  100   -4.3  27    0     996.6    NA       0.0000   9999     820   0     0    
2019/07/30  15:19:00  BASE  4.29828  297  5.41548  293  -4.3  100   -4.3  28    1     996.6    NA       0.0000   9999     590   0     0    
2019/07/30  15:20:00  BASE  4.45116  308  5.41548  293  -4.4  100   -4.4  28    0     996.6    NA       0.0000   9999     850   0     0    
2019/07/30  15:21:00  BASE  4.62168  316  5.41548  293  -4.4  100   -4.4  29    1     996.6    NA       0.0000   9999     560   0     0    
2019/07/30  15:22:00  BASE  4.41     315  5.41548  293  -4.4  100   -4.4  30    0     996.6    NA       0.0000   9999     980   0     0    
2019/07/30  15:23:00  BASE  4.33356  312  5.41548  293  -4.3  100   -4.4  29    1     996.6    NA       0.0000   9999     1410  0     0    
2019/07/30  15:24:00  BASE  4.18068  315  5.41548  293  -4.3  100   -4.3  28    0     996.6    NA       0.0000   9999     1440  0     0    
2019/07/30  15:25:00  BASE  4.16304  320  5.41548  293  -4.3  100   -4.3  27    2     996.5    NA       0.0000   9999     1250  2070  0    
2019/07/30  15:26:00  BASE  4.72164  316  5.50368  314  -4.3  100   -4.3  26    0     996.5    NA       0.0000   9999     890   1900  0    
2019/07/30  15:27:00  BASE  4.81572  311  5.50368  314  -4.3  100   -4.3  26    0     996.6    NA       0.0000   9999     460   0     0    
2019/07/30  15:28:00  BASE  4.28652  313  5.50368  314  -4.3  100   -4.3  27    1     996.6    NA       0.0000   9999     750   0     0    
2019/07/30  15:29:00  BASE  3.92196  314  5.50368  314  -4.3  100   -4.3  27    1     996.6    NA       0.0000   9999     850   0     0    
2019/07/30  15:30:00  BASE  3.57504  311  5.50368  314  -4.3  100   -4.3  28    0     996.6    NA       0.0000   9999     560   0     0    
2019/07/30  15:31:00  BASE  3.81024  302  5.50368  314  -4.3  100   -4.3  28    0     996.6    NA       0.0000   9999     1120  0     0    
2019/07/30  15:32:00  BASE  4.01016  294  5.50368  314  -4.3  100   -4.3  29    2     996.6    NA       0.0000   9999     1480  0     0    
2019/07/30  15:33:00  BASE  3.81024  297  5.50368  314  -4.3  100   -4.3  30    0     996.6    NA       0.0000   9999     1610  0     0    
2019/07/30  15:34:00  BASE  3.95136  297  5.50368  314  -4.3  100   -4.3  32    1     996.6    NA       0.0000   9999     1180  0     0    
2019/07/30  15:35:00  BASE  4.18068  298  5.50368  314  -4.3  100   -4.3  33    1     996.6    NA       0.0000   9999     1250  0     0    
2019/07/30  15:36:00  BASE  4.19244  299  4.99212  298  -4.3  100   -4.3  33    0     996.6    NA       0.0000   9999     1280  1840  0    
2019/07/30  15:37:00  BASE  3.86316  293  4.75104  305  -4.3  100   -4.3  32    0     996.6    NA       0.0000   9999     1280  0     0    
2019/07/30  15:38:00  BASE  3.89844  291  4.75104  305  -4.3  100   -4.3  32    1     996.6    NA       0.0000   9999     1280  0     0    
2019/07/30  15:39:00  BASE  3.969    290  4.75104  305  -4.3  100   -4.3  33    0     996.6    NA       0.0000   9999     1250  1870  0    
2019/07/30  15:40:00  BASE  4.06896  289  4.75104  305  -4.3  100   -4.3  35    0     996.6    NA       0.0000   9999     1350  0     0    
2019/07/30  15:41:00  BASE  4.30416  287  4.80984  280  -4.3  100   -4.3  36    0     996.6    NA       0.0000   9999     1870  0     0    
2019/07/30  15:42:00  BASE  4.21596  285  4.86864  296  -4.3  100   -4.3  35    0     996.6    NA       0.0000   9999     1380  0     0    
2019/07/30  15:43:00  BASE  3.99252  284  4.86864  296  -4.3  100   -4.3  33    0     996.6    NA       0.0000   9999     950   0     0    
2019/07/30  15:44:00  BASE  3.86904  282  4.86864  296  -4.3  100   -4.3  31    0     996.7    NA       0.0000   9999     950   0     0    
2019/07/30  15:45:00  BASE  4.00428  283  4.86864  296  -4.2  100   -4.2  30    0     996.7    NA       0.0000   9999     1150  0     0    
2019/07/30  15:46:00  BASE  4.3806   286  5.41548  279  -4.2  100   -4.2  29    0     996.7    NA       0.0000   9999     1210  0     0    
2019/07/30  15:47:00  BASE  4.6452   285  5.41548  279  -4.2  100   -4.2  28    0     996.7    NA       0.0000   9999     1250  0     0    
2019/07/30  15:48:00  BASE  4.43352  285  5.41548  279  -4.3  100   -4.3  27    0     996.7    NA       0.0000   9999     1120  2260  0    
2019/07/30  15:49:00  BASE  4.4688   286  5.41548  279  -4.3  100   -4.3  27    0     996.7    NA       0.0000   9999     1640  0     0    
2019/07/30  15:50:00  BASE  4.80984  285  5.41548  279  -4.3  100   -4.3  27    0     996.7    NA       0.0000   9999     590   0     0    
2019/07/30  15:51:00  BASE  4.78632  283  5.41548  279  -4.4  100   -4.4  27    0     996.7    NA       0.0000   9999     1020  0     0    
2019/07/30  15:52:00  BASE  4.72752  291  5.41548  300  -4.4  100   -4.4  27    0     996.7    NA       0.0000   9999     1080  0     0    
2019/07/30  15:53:00  BASE  4.96272  300  5.47428  294  -4.4  100   -4.4  27    0     996.7    NA       0.0000   9999     1770  0     0    
2019/07/30  15:54:00  BASE  5.04504  300  5.59776  302  -4.4  100   -4.4  27    0     996.8    NA       0.0000   9999     1570  0     0    
2019/07/30  15:55:00  BASE  5.09796  301  5.59776  302  -4.4  100   -4.4  27    0     996.8    NA       0.0000   9999     750   0     0    
2019/07/30  15:56:00  BASE  5.2038   300  5.71536  295  -4.5  100   -4.5  28    0     996.8    NA       0.0000   9999     790   1900  0    
2019/07/30  15:57:00  BASE  4.998    298  5.71536  295  -4.5  100   -4.5  28    0     996.8    NA       0.0000   9999     660   0     0    
2019/07/30  15:58:00  BASE  4.55112  296  5.71536  295  -4.5  100   -4.5  29    0     996.9    NA       0.0000   9999     1120  0     0    
2019/07/30  15:59:00  BASE  4.35708  292  5.71536  295  -4.6  100   -4.6  29    0     997.0    NA       0.0000   9999     1440  0     0    
2019/07/30  16:00:00  BASE  4.19832  290  5.71536  295  -4.6  100   -4.6  29    0     997.0    NA       0.0000   9999     590   0     0    
2019/07/30  16:01:00  BASE  4.18068  294  5.71536  295  -4.6  100   -4.6  30    0     997.0    NA       0.0000   9999     720   0     0    
2019/07/30  16:02:00  BASE  4.42764  302  5.71536  295  -4.5  100   -4.5  33    0     997.0    NA       0.0000   9999     1050  0     0    
2019/07/30  16:03:00  BASE  4.78044  300  5.71536  295  -4.5  100   -4.5  35    0     997.0    NA       0.0000   9999     890   0     0    
2019/07/30  16:04:00  BASE  5.16852  292  5.71536  295  -4.5  100   -4.5  37    0     997.0    NA       0.0000   9999     590   0     0    
2019/07/30  16:05:00  BASE  5.04504  291  5.71536  295  -4.5  100   -4.5  37    0     997.0    NA       0.0000   9999     1840  0     0    
2019/07/30  16:06:00  BASE  4.66872  291  5.53308  293  -4.5  100   -4.5  37    0     997.0    NA       0.0000   9999     1540  0     0    
2019/07/30  16:07:00  BASE  4.50996  293  5.53308  293  -4.5  100   -4.5  37    0     997.0    NA       0.0000   9999     1510  0     0    
2019/07/30  16:08:00  BASE  4.41588  295  5.53308  293  -4.5  100   -4.5  37    0     997.0    NA       0.0000   9999     1540  0     0    
2019/07/30  16:09:00  BASE  4.30416  296  5.53308  293  -4.5  100   -4.5  38    0     997.0    NA       0.0000   9999     490   1410  0    
2019/07/30  16:10:00  BASE  4.18068  300  5.53308  293  -4.5  100   -4.5  39    0     997.0    NA       0.0000   9999     460   0     0    
2019/07/30  16:11:00  BASE  4.6452   305  5.99172  311  -4.4  100   -4.4  40    0     997.0    NA       0.0000   9999     750   0     0    
2019/07/30  16:12:00  BASE  5.24496  304  5.99172  311  -4.4  100   -4.4  41    0     997.0    NA       0.0000   9999     1800  0     0    
2019/07/30  16:13:00  BASE  4.99212  303  5.99172  311  -4.5  100   -4.5  42    0     997.1    NA       0.0000   9999     1640  0     0    
2019/07/30  16:14:00  BASE  4.7334   302  5.99172  311  -4.5  100   -4.5  44    0     997.1    NA       0.0000   9999     1350  0     0    
2019/07/30  16:15:00  BASE  5.08032  303  5.99172  311  -4.5  100   -4.5  48    0     997.1    NA       0.0000   9999     1050  0     0    
2019/07/30  16:16:00  BASE  5.4978   307  5.99172  311  -4.5  100   -4.5  52    0     997.1    NA       0.0000   9999     1250  0     0    
2019/07/30  16:17:00  BASE  5.52132  309  5.99172  311  -4.5  100   -4.5  54    0     997.1    NA       0.0000   9999     1710  0     0    
2019/07/30  16:18:00  BASE  5.39784  308  5.99172  311  -4.5  100   -4.5  54    0     997.1    NA       0.0000   9999     1870  0     0    
2019/07/30  16:19:00  BASE  5.10384  306  5.99172  311  -4.6  100   -4.6  49    0     997.1    NA       0.0000   9999     1570  0     0    
2019/07/30  16:20:00  BASE  4.63932  304  5.99172  311  -4.6  100   -4.6  43    0     997.1    NA       0.0000   9999     1440  0     0    
2019/07/30  16:21:00  BASE  4.36296  300  5.86824  307  -4.6  100   -4.6  40    0     997.1    NA       0.0000   9999     1900  0     0    
2019/07/30  16:22:00  BASE  4.43352  298  5.86824  307  -4.7  100   -4.7  42    0     997.1    NA       0.0000   9999     2100  0     0    
2019/07/30  16:23:00  BASE  4.46292  299  5.86824  307  -4.7  100   -4.7  49    0     997.1    NA       0.0000   9999     2130  0     0    
2019/07/30  16:24:00  BASE  4.06308  299  5.86824  307  -4.7  100   -4.7  58    0     997.2    NA       0.0000   9999     2000  0     0    
2019/07/30  16:25:00  BASE  3.63384  300  5.86824  307  -4.7  100   -4.7  62    0     997.2    NA       0.0000   9999     1570  0     0    
2019/07/30  16:26:00  BASE  3.69264  303  5.68596  308  -4.7  100   -4.7  63    0     997.2    NA       0.0000   9999     590   2170  0    
2019/07/30  16:27:00  BASE  3.69852  304  5.47428  310  -4.7  100   -4.7  61    0     997.2    NA       0.0000   9999     620   0     0    
2019/07/30  16:28:00  BASE  3.34572  303  5.3214   300  -4.7  100   -4.7  55    0     997.2    NA       0.0000   9999     1480  0     0    
2019/07/30  16:29:00  BASE  3.35748  308  4.93332  299  -4.7  100   -4.7  51    0     997.2    NA       0.0000   9999     1410  0     0    
2019/07/30  16:30:01  BASE  3.75144  311  4.93332  299  -4.7  100   -4.7  51    0     997.2    NA       0.0000   9999     1410  0     0    
2019/07/30  16:31:00  BASE  4.10424  317  4.93332  299  -4.6  100   -4.6  52    0     997.2    NA       0.0000   9999     1410  0     0    
2019/07/30  16:32:00  BASE  4.89216  319  6.02112  316  -4.6  100   -4.6  50    0     997.2    NA       0.0000   9999     1380  0     0    
2019/07/30  16:33:00  BASE  5.2038   313  6.02112  316  -4.6  100   -4.6  47    0     997.2    NA       0.0000   9999     1380  0     0    
2019/07/30  16:34:00  BASE  4.48644  312  6.02112  316  -4.6  100   -4.6  43    0     997.2    NA       0.0000   9999     590   0     0    
2019/07/30  16:35:00  BASE  4.63344  307  6.3798   307  -4.6  100   -4.6  39    0     997.2    NA       0.0000   9999     1410  0     0    
2019/07/30  16:36:00  BASE  5.2332   303  6.3798   307  -4.7  100   -4.7  38    0     997.2    NA       0.0000   9999     1120  0     0    
2019/07/30  16:37:00  BASE  5.02152  314  6.3798   307  -4.7  100   -4.7  39    0     997.2    NA       0.0000   9999     1050  0     0    
2019/07/30  16:38:00  BASE  4.7922   327  6.3798   307  -4.8  100   -4.8  42    0     997.2    NA       0.0000   9999     980   0     0    
2019/07/30  16:39:00  BASE  4.62168  328  6.3798   307  -4.8  100   -4.8  47    0     997.2    NA       0.0000   9999     1610  0     0    
2019/07/30  16:40:00  BASE  4.263    322  6.3798   307  -4.8  100   -4.8  50    0     997.2    NA       0.0000   9999     1480  0     0    
2019/07/30  16:41:00  BASE  4.56288  318  6.47388  308  -4.8  100   -4.8  52    0     997.2    NA       0.0000   9999     1480  0     0    
2019/07/30  16:42:00  BASE  5.60952  314  6.53268  318  -4.7  100   -4.8  52    0     997.2    NA       0.0000   9999     1510  0     0    
2019/07/30  16:43:00  BASE  6.321    310  6.74436  305  -4.7  100   -4.7  50    0     997.2    NA       0.0000   9999     1350  0     0    
2019/07/30  16:44:00  BASE  6.20928  309  6.74436  305  -4.6  99    -4.7  48    0     997.2    NA       0.0000   9999     1410  0     0    
2019/07/30  16:45:00  BASE  5.72712  311  6.74436  305  -4.6  99    -4.7  48    0     997.2    NA       0.0000   9999     1310  0     0    
2019/07/30  16:46:00  BASE  5.2626   313  6.74436  305  -4.6  99    -4.7  49    0     997.3    NA       0.0000   9999     1310  0     0    
2019/07/30  16:47:00  BASE  5.01564  310  6.74436  305  -4.6  99    -4.7  51    0     997.3    NA       0.0000   9999     1210  0     0    
2019/07/30  16:48:00  BASE  4.80984  308  6.74436  305  -4.6  99    -4.7  53    0     997.3    NA       0.0000   9999     1310  0     0    
2019/07/30  16:49:00  BASE  4.69224  310  6.74436  305  -4.6  100   -4.7  54    0     997.3    NA       0.0000   9999     1210  0     0    
2019/07/30  16:50:00  BASE  4.69812  317  6.74436  305  -4.6  100   -4.6  55    0     997.3    NA       0.0000   9999     520   0     0    
2019/07/30  16:51:00  BASE  4.72164  316  6.74436  305  -4.6  100   -4.6  55    0     997.3    NA       0.0000   9999     460   22310 0    
2019/07/30  16:52:00  BASE  4.98624  314  6.74436  305  -4.6  100   -4.6  53    0     997.3    NA       0.0000   9999     460   0     0    
2019/07/30  16:53:00  BASE  5.13912  316  6.47388  308  -4.6  100   -4.6  51    0     997.3    NA       0.0000   9999     1350  0     0    
2019/07/30  16:54:00  BASE  4.7628   315  5.59776  318  -4.7  100   -4.7  48    0     997.4    NA       0.0000   9999     980   0     0    
2019/07/30  16:55:00  BASE  4.19832  310  5.53308  316  -4.7  100   -4.7  44    0     997.4    NA       0.0000   9999     1250  0     0    
2019/07/30  16:56:00  BASE  3.72204  310  5.53308  316  -4.7  100   -4.7  42    0     997.5    NA       0.0000   9999     1250  0     0    
2019/07/30  16:57:00  BASE  3.87492  312  5.53308  316  -4.7  100   -4.7  42    0     997.5    NA       0.0000   9999     1080  0     0    
2019/07/30  16:58:00  BASE  3.81024  305  5.53308  316  -4.7  100   -4.7  42    0     997.5    NA       0.0000   9999     1310  0     0    
2019/07/30  16:59:00  BASE  3.4398   295  5.53308  316  -4.8  100   -4.8  42    0     997.5    NA       0.0000   9999     1280  0     0    
2019/07/30  17:00:00  BASE  3.3222   290  5.53308  316  -4.8  100   -4.8  42    0     997.5    NA       0.0000   9999     1050  0     0    
2019/07/30  17:01:00  BASE  3.25752  290  5.53308  316  -4.8  100   -4.8  44    0     997.5    NA       0.0000   9999     1250  0     0    
2019/07/30  17:02:00  BASE  3.6162   297  5.3214   318  -4.8  100   -4.8  46    0     997.5    NA       0.0000   9999     1310  0     0    
2019/07/30  17:03:00  BASE  3.94548  308  4.86864  310  -4.8  100   -4.8  48    0     997.5    NA       0.0000   9999     1280  0     0    
2019/07/30  17:04:00  BASE  3.86316  314  4.86864  310  -4.8  100   -4.8  49    0     997.5    NA       0.0000   9999     1350  0     0    
2019/07/30  17:05:00  BASE  3.822    315  4.86864  310  -4.8  100   -4.8  48    0     997.6    NA       0.0000   9999     1380  0     0    
2019/07/30  17:06:00  BASE  3.94548  315  4.86864  310  -4.8  100   -4.8  47    0     997.6    NA       0.0000   9999     1380  0     0    
2019/07/30  17:07:00  BASE  3.98664  319  4.78044  298  -4.8  100   -4.8  45    0     997.6    NA       0.0000   9999     1350  0     0    
2019/07/30  17:08:00  BASE  3.53976  318  4.78044  298  -4.8  100   -4.8  43    0     997.6    NA       0.0000   9999     1250  0     0    
2019/07/30  17:09:00  BASE  3.08112  306  4.78044  298  -4.8  100   -4.8  41    0     997.6    NA       0.0000   9999     1410  0     0    
2019/07/30  17:10:00  BASE  3.01056  298  4.78044  298  -4.8  100   -4.8  39    0     997.6    NA       0.0000   9999     1410  0     0    
2019/07/30  17:11:00  BASE  2.83416  296  4.78044  298  -4.8  100   -4.8  38    0     997.6    NA       0.0000   9999     1510  0     0    
2019/07/30  17:12:00  BASE  2.74008  294  4.68636  318  -4.8  100   -4.8  36    0     997.6    NA       0.0000   9999     1480  0     0    
2019/07/30  17:13:00  BASE  3.087    293  4.68636  318  -4.7  100   -4.7  34    0     997.6    NA       0.0000   9999     1440  0     0    
2019/07/30  17:14:00  BASE  3.45156  287  4.68636  318  -4.8  100   -4.8  32    0     997.6    NA       0.0000   9999     1510  0     0    
2019/07/30  17:15:00  BASE  3.56916  282  4.68636  318  -4.8  100   -4.8  30    0     997.6    NA       0.0000   9999     1540  0     0    
2019/07/30  17:16:00  BASE  3.52212  285  4.68636  318  -4.8  100   -4.8  29    0     997.6    NA       0.0000   9999     1610  0     0    
2019/07/30  17:17:00  BASE  3.8808   288  4.68636  290  -4.8  100   -4.8  28    0     997.6    NA       0.0000   9999     1640  0     0    
2019/07/30  17:18:00  BASE  4.15128  287  4.68636  290  -4.8  100   -4.8  28    0     997.6    NA       0.0000   9999     1610  0     0    
2019/07/30  17:19:00  BASE  3.528    281  4.68636  290  -4.8  100   -4.8  28    0     997.7    NA       0.0000   9999     1740  0     0    
2019/07/30  17:20:00  BASE  3.0576   278  4.68636  290  -4.9  100   -4.9  28    0     997.7    NA       0.0000   9999     1800  0     0    
2019/07/30  17:21:00  BASE  3.2046   288  4.68636  290  -4.9  100   -4.9  29    0     997.7    NA       0.0000   9999     1800  0     0    
2019/07/30  17:22:00  BASE  3.33984  295  4.68636  290  -4.9  100   -4.9  29    0     997.7    NA       0.0000   9999     1710  0     0    
2019/07/30  17:23:00  BASE  3.3516   293  4.68636  290  -4.9  100   -4.9  29    0     997.7    NA       0.0000   9999     1770  0     0    
2019/07/30  17:24:00  BASE  3.36336  288  4.68636  290  -4.9  100   -4.9  27    0     997.7    NA       0.0000   9999     1670  0     0    
2019/07/30  17:25:00  BASE  3.41628  288  4.68636  290  -4.9  100   -4.9  26    0     997.7    NA       0.0000   9999     1080  1900  0    
2019/07/30  17:26:00  BASE  3.68676  289  4.68636  290  -4.9  100   -4.9  25    0     997.7    NA       0.0000   9999     1020  0     0    
2019/07/30  17:27:00  BASE  3.9396   286  4.65696  292  -4.8  100   -4.8  24    0     997.7    NA       0.0000   9999     1120  0     0    
2019/07/30  17:28:00  BASE  3.95724  282  4.62756  280  -4.8  100   -4.8  24    0     997.7    NA       0.0000   9999     490   0     0    
2019/07/30  17:29:00  BASE  3.95136  277  4.62756  278  -4.8  100   -4.8  24    0     997.7    NA       0.0000   9999     460   0     0    
2019/07/30  17:30:00  BASE  3.89256  277  4.62756  278  -4.8  100   -4.8  24    0     997.7    NA       0.0000   9999     520   1280  0    
2019/07/30  17:31:00  BASE  3.92196  281  4.62756  278  -4.8  100   -4.8  24    0     997.7    NA       0.0000   9999     1510  0     0    
2019/07/30  17:32:00  BASE  4.1454   281  4.75104  284  -4.8  100   -4.8  25    0     997.7    NA       0.0000   9999     1210  0     0    
2019/07/30  17:33:00  BASE  4.27476  280  5.145    280  -4.8  100   -4.8  25    0     997.7    NA       0.0000   9999     1080  0     0    
2019/07/30  17:34:00  BASE  4.40412  287  5.145    280  -4.8  100   -4.8  26    0     997.7    NA       0.0000   9999     1020  0     0    
2019/07/30  17:35:00  BASE  4.41588  290  5.145    280  -4.8  100   -4.8  26    0     997.7    NA       0.0000   9999     430   0     0    
2019/07/30  17:36:00  BASE  4.30416  282  5.145    280  -4.8  100   -4.8  26    0     997.7    NA       0.0000   9999     390   1180  0    
2019/07/30  17:37:00  BASE  4.26888  280  5.145    280  -4.9  100   -4.9  27    0     997.7    NA       0.0000   9999     360   0     0    
2019/07/30  17:38:00  BASE  4.24536  279  5.145    280  -4.9  100   -4.9  28    0     997.7    NA       0.0000   9999     360   0     0    
2019/07/30  17:39:00  BASE  3.71616  281  5.145    280  -5.0  100   -5.0  28    0     997.8    NA       0.0000   9000     390   0     0    
2019/07/30  17:40:01  BASE  3.2634   280  5.145    280  -5.0  100   -5.0  28    0     997.7    NA       0.0000   9999     390   0     0    
2019/07/30  17:41:00  BASE  3.59268  278  5.145    280  -5.0  100   -5.1  28    0     997.8    NA       0.0000   7000     360   1380  0    
2019/07/30  17:42:00  BASE  3.6162   282  5.145    280  -5.1  100   -5.1  28    0     997.8    NA       0.0000   5000     330   0     0    
2019/07/30  17:43:00  BASE  3.09288  284  5.02152  284  -5.1  100   -5.1  28    1     997.8    NA       0.0000   BR       5000  300   0    
2019/07/30  17:44:00  BASE  2.95176  285  4.99212  278  -5.1  100   -5.1  30    0     997.8    NA       0.0000   BR       5000  260   0    
2019/07/30  17:45:00  BASE  2.85768  282  4.99212  278  -5.0  100   -5.1  30    0     997.8    NA       0.0000   BR       5000  0     0    
2019/07/30  17:46:00  BASE  2.66952  276  4.53936  276  -5.0  100   -5.1  30    0     997.8    NA       0.0000   BR       7000  300   0    
2019/07/30  17:47:00  BASE  2.76948  279  4.47468  280  -5.0  100   -5.0  30    0     997.8    NA       0.0000   BR       9999  390   0    
2019/07/30  17:48:00  BASE  3.25752  281  4.2042   272  -5.0  100   -5.0  31    2     997.8    NA       0.0000   BR       9000  300   0    
2019/07/30  17:49:00  BASE  3.528    282  4.2042   272  -5.0  100   -5.0  30    0     997.8    NA       0.0000   BR       6000  330   0    
2019/07/30  17:50:00  BASE  3.72792  290  4.93332  289  -5.0  100   -5.0  28    1     997.8    NA       0.0000   BR       9000  0     0    
2019/07/30  17:51:00  BASE  4.22772  287  4.93332  289  -5.0  100   -5.0  28    1     997.8    NA       0.0000   BR       9999  0     0    
2019/07/30  17:52:00  BASE  4.22184  276  4.93332  289  -5.0  100   -5.0  28    0     997.8    NA       0.0000   -SN      BR    8000  0    
2019/07/30  17:53:00  BASE  3.97488  273  5.02152  272  -5.0  100   -5.0  28    0     997.8    NA       0.0000   -SN      BR    7000  0    
2019/07/30  17:54:00  BASE  4.28652  277  5.89764  265  -4.9  100   -4.9  30    0     997.8    NA       0.0000   -SN      BR    6000  0    
2019/07/30  17:55:00  BASE  5.06268  282  5.89764  265  -4.9  100   -4.9  32    1     997.8    NA       0.0000   -SN      BR    6000  0    
2019/07/30  17:56:00  BASE  5.37432  284  5.89764  265  -4.9  100   -4.9  31    0     997.8    NA       0.0000   -SN      BR    5000  0    
2019/07/30  17:57:00  BASE  5.08032  284  5.89764  265  -4.9  100   -4.9  29    0     997.8    NA       0.0000   -SN      BR    8000  0    
2019/07/30  17:58:00  BASE  4.89804  278  5.89764  265  -4.9  100   -4.9  29    0     997.8    NA       0.0000   -SN      BR    9000  0    
2019/07/30  17:59:00  BASE  4.78632  270  5.89764  265  -5.0  100   -5.0  28    0     997.8    NA       0.0000   -SN      BR    9999  0    
2019/07/30  18:00:00  BASE  4.54524  265  5.89764  265  -5.0  100   -5.0  27    0     997.8    NA       0.0000   -SN      BR    9000  0    
2019/07/30  18:01:00  BASE  4.74516  261  5.89764  265  -5.0  100   -5.0  27    0     997.8    NA       0.0000   -SN      BR    9999  0    
2019/07/30  18:02:00  BASE  4.93332  260  5.89764  265  -5.1  100   -5.1  26    0     997.8    NA       0.0000   -SN      BR    9999  0    
2019/07/30  18:03:00  BASE  4.59228  259  5.89764  265  -5.1  100   -5.1  25    0     997.8    NA       0.0000   -SN      BR    9999  0    
2019/07/30  18:04:00  BASE  4.7922   259  5.86824  284  -5.1  100   -5.1  23    0     997.8    NA       0.0000   -SN      BR    9999  230  
2019/07/30  18:05:00  BASE  5.13912  260  5.68596  288  -5.1  100   -5.1  22    0     997.8    NA       0.0000   -SN      BR    9999  230  
2019/07/30  18:06:00  BASE  4.7922   259  5.68596  288  -5.2  100   -5.2  21    0     997.8    NA       0.0000   -SN      9999  0     0    
2019/07/30  18:07:00  BASE  4.76868  260  5.68596  288  -5.2  100   -5.2  20    0     997.8    NA       0.0000   -SN      9999  230   0    
2019/07/30  18:08:00  BASE  4.78044  263  5.65656  256  -5.3  100   -5.3  19    0     997.8    NA       0.0000   9000     0     0     0    
2019/07/30  18:09:00  BASE  4.49232  264  5.65656  256  -5.3  100   -5.3  18    0     997.8    NA       0.0000   -SN      8000  0     0    
2019/07/30  18:10:00  BASE  4.83924  263  5.86824  256  -5.3  100   -5.3  17    0     997.8    NA       0.0000   -SN      8000  0     0    
2019/07/30  18:11:00  BASE  4.80396  264  5.86824  256  -5.3  100   -5.3  17    0     997.9    NA       0.0000   -SN      9000  0     0    
2019/07/30  18:12:00  BASE  4.07484  265  5.86824  256  -5.4  100   -5.4  16    0     997.9    NA       0.0000   -SN      BR    9000  0    
2019/07/30  18:13:00  BASE  3.85728  267  5.86824  256  -5.4  100   -5.4  15    0     997.9    NA       0.0000   -SN      BR    9999  260  
2019/07/30  18:14:00  BASE  4.08072  269  5.86824  256  -5.4  100   -5.4  15    0     997.9    NA       0.0000   -SN      9999  260   0    
2019/07/30  18:15:00  BASE  4.03956  264  5.86824  256  -5.5  100   -5.5  14    0     997.9    NA       0.0000   -SN      9999  300   0    
2019/07/30  18:16:00  BASE  3.87492  261  5.86824  256  -5.5  100   -5.5  14    0     997.9    NA       0.0000   -SN      BR    9999  260  
2019/07/30  18:17:00  BASE  3.78084  264  5.86824  256  -5.5  100   -5.5  14    0     997.9    NA       0.0000   -SN      BR    9999  260  
2019/07/30  18:18:00  BASE  3.81612  260  5.86824  256  -5.5  100   -5.5  14    0     998.0    NA       0.0000   -SN      9999  300   0    
2019/07/30  18:19:00  BASE  4.09248  256  5.86824  256  -5.5  100   -5.5  13    0     998.0    NA       0.0000   -SN      9999  330   1280 
2019/07/30  18:20:00  BASE  4.00428  259  5.10972  265  -5.5  100   -5.5  13    0     998.0    NA       0.0000   9999     300   1180  0    
2019/07/30  18:21:00  BASE  3.72792  261  5.10972  265  -5.6  100   -5.6  14    0     998.0    NA       0.0000   9999     300   1150  0    
2019/07/30  18:22:00  BASE  3.71616  261  5.10972  265  -5.6  100   -5.6  14    0     998.0    NA       0.0000   9999     390   1210  0    
2019/07/30  18:23:00  BASE  3.75732  260  4.78044  269  -5.7  100   -5.7  14    0     998.0    NA       0.0000   9999     360   0     0    
2019/07/30  18:24:00  BASE  3.4398   260  4.78044  269  -5.7  100   -5.7  14    0     998.0    NA       0.0000   9999     390   1510  0    
2019/07/30  18:25:01  BASE  2.99292  268  4.78044  269  -5.7  100   -5.7  14    0     998.0    NA       0.0000   9999     560   0     0    
2019/07/30  18:26:00  BASE  3.11052  264  4.68636  259  -5.7  100   -5.7  14    0     998.0    NA       0.0000   9999     660   0     0    
2019/07/30  18:27:00  BASE  3.01644  253  4.68636  259  -5.7  100   -5.7  14    0     998.0    NA       0.0000   9999     1050  0     0    
2019/07/30  18:28:00  BASE  3.08112  256  4.68636  259  -5.7  100   -5.7  14    0     998.0    NA       0.0000   9999     460   0     0    
2019/07/30  18:29:00  BASE  3.06348  262  4.68636  259  -5.7  100   -5.7  14    0     998.0    NA       0.0000   9999     360   0     0    
2019/07/30  18:30:00  BASE  3.19872  263  4.68636  259  -5.7  100   -5.7  14    0     998.0    NA       0.0000   9999     430   0     0    
2019/07/30  18:31:00  BASE  3.57504  262  4.38648  254  -5.7  100   -5.7  14    0     998.0    NA       0.0000   9999     460   1310  0    
2019/07/30  18:32:00  BASE  3.33396  260  4.38648  254  -5.7  100   -5.7  15    0     998.0    NA       0.0000   9999     560   0     0    
2019/07/30  18:33:00  BASE  3.1458   260  4.38648  254  -5.7  100   -5.7  15    0     998.0    NA       0.0000   9999     690   2360  0    
2019/07/30  18:34:00  BASE  3.34572  270  4.38648  254  -5.7  100   -5.7  15    0     998.0    NA       0.0000   9999     660   0     0    
2019/07/30  18:35:00  BASE  3.82788  276  4.38648  254  -5.7  100   -5.7  15    0     998.1    NA       0.0000   9999     590   0     0    
2019/07/30  18:36:00  BASE  3.72204  277  4.38648  254  -5.7  100   -5.7  15    0     998.1    NA       0.0000   9999     950   0     0    
2019/07/30  18:37:00  BASE  3.24576  274  4.38648  254  -5.6  100   -5.6  15    0     998.1    NA       0.0000   9999     1080  0     0    
2019/07/30  18:38:00  BASE  2.96352  274  4.38648  254  -5.6  100   -5.6  15    0     998.2    NA       0.0000   9999     920   0     0    
2019/07/30  18:39:00  BASE  3.2046   283  4.38648  254  -5.6  100   -5.6  15    0     998.2    NA       0.0000   9999     920   0     0    
2019/07/30  18:40:00  BASE  3.36924  285  4.32768  271  -5.6  100   -5.6  16    0     998.2    NA       0.0000   9999     560   0     0    
2019/07/30  18:41:00  BASE  3.12816  277  4.32768  271  -5.6  100   -5.6  16    0     998.2    NA       0.0000   9999     490   0     0    
2019/07/30  18:42:00  BASE  3.2634   268  4.32768  271  -5.6  100   -5.6  16    0     998.2    NA       0.0000   9999     520   0     0    
2019/07/30  18:43:00  BASE  3.38688  275  4.32768  271  -5.6  100   -5.6  16    0     998.2    NA       0.0000   9999     520   0     0    
2019/07/30  18:44:00  BASE  3.26928  282  4.32768  271  -5.6  100   -5.6  16    0     998.2    NA       0.0000   9999     490   0     0    
2019/07/30  18:45:00  BASE  3.25752  275  4.2336   271  -5.6  100   -5.6  16    0     998.2    NA       0.0000   9999     560   0     0    
2019/07/30  18:46:00  BASE  3.29868  274  4.2336   271  -5.6  100   -5.6  16    0     998.2    NA       0.0000   9999     360   0     0    
2019/07/30  18:47:00  BASE  3.41628  272  4.2336   271  -5.6  100   -5.6  16    0     998.2    NA       0.0000   9999     430   0     0    
2019/07/30  18:48:00  BASE  3.39276  266  4.2336   271  -5.6  100   -5.6  16    0     998.2    NA       0.0000   9999     430   0     0    
2019/07/30  18:49:00  BASE  3.12228  270  4.2336   271  -5.6  100   -5.6  15    0     998.2    NA       0.0000   9999     390   0     0    
2019/07/30  18:50:00  BASE  3.15168  274  4.2336   271  -5.6  100   -5.6  14    0     998.2    NA       0.0000   -SN      9999  430   0    
2019/07/30  18:51:00  BASE  3.47508  267  4.2336   271  -5.6  100   -5.6  14    0     998.2    NA       0.0000   -SN      9999  430   0    
2019/07/30  18:52:00  BASE  3.19872  262  4.1454   259  -5.6  100   -5.6  13    0     998.2    NA       0.0000   -SN      9999  430   0    
2019/07/30  18:53:00  BASE  3.234    269  4.2336   273  -5.6  100   -5.6  12    0     998.2    NA       0.0000   -SN      9999  460   0    
2019/07/30  18:54:00  BASE  3.43392  272  4.2336   273  -5.6  100   -5.6  11    0     998.2    NA       0.0000   -SN      9999  590   0    
2019/07/30  18:55:00  BASE  3.1458   267  4.2336   273  -5.6  100   -5.6  10    0     998.2    NA       0.0000   -SN      9999  390   0    
2019/07/30  18:56:00  BASE  3.36336  262  4.2336   273  -5.6  100   -5.6  10    0     998.3    NA       0.0000   -SN      9999  360   0    
2019/07/30  18:57:00  BASE  3.53976  260  4.2336   255  -5.6  100   -5.6  10    0     998.3    NA       0.0000   -SN      9999  360   0    
2019/07/30  18:58:00  BASE  3.48096  255  4.2336   255  -5.6  100   -5.6  9     0     998.3    NA       0.0000   -SN      9999  590   0    
2019/07/30  18:59:00  BASE  3.58092  248  4.2336   255  -5.7  100   -5.7  9     0     998.2    NA       0.0000   -SN      9999  660   0    
2019/07/30  19:00:00  BASE  3.60444  248  4.2336   255  -5.7  100   -5.7  9     0     998.3    NA       0.0000   -SN      9999  690   0    
2019/07/30  19:01:00  BASE  3.44568  253  4.2336   255  -5.7  100   -5.7  9     0     998.3    NA       0.0000   -SN      9999  1310  0    
2019/07/30  19:02:00  BASE  3.47508  254  4.2336   255  -5.7  100   -5.7  9     0     998.4    NA       0.0000   -SN      9999  980   0    
2019/07/30  19:03:00  BASE  3.822    260  4.75104  262  -5.8  100   -5.8  9     0     998.4    NA       0.0000   -SN      9999  850   0    
2019/07/30  19:04:00  BASE  3.75732  270  4.75104  262  -5.8  100   -5.8  9     1     998.4    NA       0.0000   -SN      9999  720   1870 
2019/07/30  19:05:00  BASE  3.60444  268  4.75104  262  -5.8  100   -5.8  9     0     998.4    NA       0.0000   -SN      9999  1080  0    
2019/07/30  19:06:00  BASE  3.36336  264  4.75104  262  -5.8  100   -5.8  9     0     998.4    NA       0.0000   -SN      9999  1770  0    
2019/07/30  19:07:00  BASE  2.89884  266  4.75104  262  -5.8  100   -5.8  9     0     998.4    NA       0.0000   9999     2000  0     0    
2019/07/30  19:08:00  BASE  2.95176  270  4.75104  262  -5.8  100   -5.8  9     0     998.4    NA       0.0000   9999     2000  0     0    
2019/07/30  19:09:00  BASE  2.87532  269  4.75104  262  -5.8  100   -5.8  8     0     998.4    NA       0.0000   9999     2000  0     0    
2019/07/30  19:10:00  BASE  2.8224   267  4.75104  262  -5.8  100   -5.8  8     0     998.4    NA       0.0000   9999     1970  0     0    
2019/07/30  19:11:00  BASE  2.93412  268  4.75104  262  -5.8  100   -5.8  7     0     998.5    NA       0.0000   9999     2030  0     0    
2019/07/30  19:12:00  BASE  3.46332  271  4.83924  274  -5.8  100   -5.8  7     0     998.4    NA       0.0000   9999     0     0     0    
2019/07/30  19:13:00  BASE  4.25712  276  4.86864  273  -5.8  100   -5.8  7     0     998.5    NA       0.0000   9999     0     0     0    
2019/07/30  19:14:00  BASE  4.19244  279  4.86864  273  -5.8  100   -5.8  7     0     998.5    NA       0.0000   9999     1020  0     0    
2019/07/30  19:15:00  BASE  3.80436  282  4.86864  273  -5.8  100   -5.8  7     0     998.5    NA       0.0000   9999     890   0     0    
2019/07/30  19:16:00  BASE  3.72204  280  4.86864  273  -5.8  100   -5.8  7     0     998.5    NA       0.0000   9999     0     0     0    
2019/07/30  19:17:00  BASE  3.95136  277  4.86864  287  -5.8  100   -5.8  7     1     998.5    NA       0.0000   9999     1080  0     0    
2019/07/30  19:18:00  BASE  4.29828  280  4.86864  287  -5.8  100   -5.8  8     0     998.5    NA       0.0000   9999     1020  0     0    
2019/07/30  19:19:00  BASE  4.33944  284  4.86864  287  -5.8  100   -5.8  8     0     998.5    NA       0.0000   9999     890   0     0    
2019/07/30  19:20:00  BASE  3.8808   285  4.86864  287  -5.8  100   -5.8  7     0     998.5    NA       0.0000   9999     1080  0     0    
2019/07/30  19:21:00  BASE  3.22812  281  4.86864  287  -5.8  100   -5.8  7     0     998.5    NA       0.0000   9999     1210  0     0    
2019/07/30  19:22:00  BASE  2.89296  273  4.86864  287  -5.8  100   -5.8  7     0     998.5    NA       0.0000   9999     0     0     0    
2019/07/30  19:23:00  BASE  2.89296  270  4.86864  287  -5.8  100   -5.8  7     1     998.5    NA       0.0000   9999     0     0     0    
2019/07/30  19:24:00  BASE  2.90472  275  4.86864  287  -5.9  100   -5.9  7     0     998.5    NA       0.0000   9999     720   0     0    
2019/07/30  19:25:00  BASE  3.087    277  4.86864  287  -5.9  100   -5.9  7     0     998.5    NA       0.0000   9999     950   0     0    
2019/07/30  19:26:00  BASE  3.23988  278  4.86864  287  -5.9  100   -5.9  7     0     998.5    NA       0.0000   9999     5350  0     0    
2019/07/30  19:27:00  BASE  2.9694   278  4.83924  286  -5.9  100   -5.9  7     1     998.5    NA       0.0000   9999     5350  0     0    
2019/07/30  19:28:00  BASE  2.71068  279  4.83924  286  -5.9  100   -5.9  7     0     998.5    NA       0.0000   9999     750   5350  0    
2019/07/30  19:29:00  BASE  2.62836  284  4.47468  277  -5.9  100   -5.9  7     0     998.5    NA       0.0000   9999     690   5320  0    
2019/07/30  19:30:00  BASE  2.53428  290  3.86904  273  -5.8  100   -5.8  7     0     998.5    NA       0.0000   9999     620   0     0    
2019/07/30  19:31:00  BASE  2.69304  286  3.86904  273  -5.8  100   -5.8  7     1     998.5    NA       0.0000   9999     820   0     0    
2019/07/30  19:32:00  BASE  3.32808  269  4.2042   262  -5.8  100   -5.8  7     0     998.5    NA       0.0000   9999     560   0     0    
2019/07/30  19:33:00  BASE  3.62208  262  4.2042   262  -5.8  100   -5.8  7     0     998.5    NA       0.0000   9999     520   0     0    
2019/07/30  19:34:00  BASE  3.51624  267  4.2042   262  -5.8  100   -5.8  6     0     998.6    NA       0.0000   9999     790   5150  0    
2019/07/30  19:35:00  BASE  3.36336  267  4.2042   262  -5.9  100   -5.9  6     1     998.6    NA       0.0000   9999     520   5120  0    
2019/07/30  19:36:00  BASE  3.07524  265  4.2042   262  -5.9  100   -5.9  6     1     998.6    NA       0.0000   9999     300   5090  0    
2019/07/30  19:37:00  BASE  2.69304  264  4.2042   262  -5.9  100   -5.9  5     0     998.6    NA       0.0000   6000     0     0     0    
2019/07/30  19:38:00  BASE  2.29908  261  4.2042   262  -5.9  100   -5.9  5     1     998.7    NA       0.0000   5000     0     0     0    
2019/07/30  19:39:00  BASE  2.89884  260  4.2042   262  -5.9  100   -5.9  5     0     998.7    NA       0.0000   BR       6000  0     0    
2019/07/30  19:40:00  BASE  3.54564  258  4.2042   262  -5.9  100   -5.9  5     1     998.7    NA       0.0000   BR       6000  0     0    
2019/07/30  19:41:00  BASE  3.33396  255  4.2042   262  -5.9  100   -5.9  4     1     998.8    NA       0.0000   BR       8000  0     0    
2019/07/30  19:42:00  BASE  3.15756  253  4.116    267  -5.9  100   -5.9  4     0     998.7    NA       0.0000   BR       9999  560   5020 
2019/07/30  19:43:00  BASE  2.86356  260  4.116    267  -5.9  100   -5.9  4     0     998.8    NA       0.0000   BR       9999  620   5020 
2019/07/30  19:44:00  BASE  2.74008  268  4.02192  259  -6.0  100   -6.0  3     1     998.8    NA       0.0000   BR       9999  750   5050 
2019/07/30  19:45:00  BASE  2.646    266  4.02192  259  -6.0  100   -6.0  3     0     998.8    NA       0.0000   BR       9999  360   4860 
2019/07/30  19:46:00  BASE  2.63424  271  4.02192  259  -6.0  100   -6.0  3     0     998.8    NA       0.0000   BR       9999  4820  5320 
2019/07/30  19:47:00  BASE  2.72244  274  4.02192  259  -6.0  100   -6.0  3     0     998.9    NA       0.0000   BR       9999  490   4920 
2019/07/30  19:48:00  BASE  2.89296  271  4.02192  259  -6.0  100   -6.0  2     1     998.9    NA       0.0000   9999     360   0     0    
2019/07/30  19:49:00  BASE  3.02232  262  3.99252  261  -6.0  100   -6.0  2     1     998.9    NA       0.0000   9999     360   0     0    
2019/07/30  19:50:00  BASE  2.793    251  3.78084  262  -6.1  100   -6.1  2     0     998.9    NA       0.0000   9999     460   4990  0    
2019/07/30  19:51:00  BASE  2.72244  248  3.78084  262  -6.1  100   -6.1  2     0     998.9    NA       0.0000   9999     5090  0     0    
2019/07/30  19:52:00  BASE  2.62836  252  3.78084  262  -6.1  100   -6.1  2     1     998.9    NA       0.0000   9999     5090  0     0    
2019/07/30  19:53:00  BASE  2.48724  256  3.62796  276  -6.1  100   -6.1  2     0     998.9    NA       0.0000   9999     4920  0     0    
2019/07/30  19:54:00  BASE  2.5578   255  3.62796  276  -6.2  100   -6.2  2     0     998.9    NA       0.0000   9999     4950  0     0    
2019/07/30  19:55:00  BASE  2.74596  246  3.62796  276  -6.2  100   -6.2  2     1     998.9    NA       0.0000   9999     490   4990  0    
2019/07/30  19:56:00  BASE  2.62248  240  3.62796  276  -6.2  100   -6.2  2     0     998.9    NA       0.0000   9999     660   4820  0    
2019/07/30  19:57:00  BASE  2.37552  242  3.62796  276  -6.2  100   -6.2  1     0     998.9    NA       0.0000   9999     4760  0     0    
2019/07/30  19:58:00  BASE  2.21676  242  3.32808  256  -6.2  100   -6.2  1     0     998.9    NA       0.0000   9999     4660  0     0    
2019/07/30  19:59:00  BASE  2.16384  243  3.2046   240  -6.2  100   -6.2  1     0     999.0    NA       0.0000   9999     4720  0     0    
2019/07/30  20:00:00  BASE  2.15796  248  3.2046   240  -6.2  100   -6.2  1     0     999.0    NA       0.0000   9999     4490  0     0    
2019/07/30  20:01:00  BASE  2.1168   247  3.2046   240  -6.2  100   -6.2  1     0     998.9    NA       0.0000   9999     920   4590  0    
2019/07/30  20:02:00  BASE  2.0874   247  3.2046   240  -6.2  100   -6.2  1     0     999.0    NA       0.0000   9999     920   0     0    
2019/07/30  20:03:00  BASE  1.84632  248  3.2046   240  -6.2  100   -6.2  1     0     999.0    NA       0.0000   9999     920   0     0    
2019/07/30  20:04:00  BASE  1.87572  239  3.2046   240  -6.2  100   -6.2  1     1     999.0    NA       0.0000   9999     980   0     0    
2019/07/30  20:05:00  BASE  1.98156  240  2.87532  240  -6.1  100   -6.1  1     0     998.9    NA       0.0000   9999     1080  0     0    
2019/07/30  20:06:00  BASE  1.91688  245  2.56956  250  -6.1  100   -6.1  1     0     998.9    NA       0.0000   9999     1080  0     0    
2019/07/30  20:07:00  BASE  2.0874   246  2.56956  257  -6.2  100   -6.2  1     0     998.9    NA       0.0000   9999     1080  2170  0    
2019/07/30  20:08:00  BASE  2.25792  253  2.59896  258  -6.2  100   -6.2  0     0     998.9    NA       0.0000   9999     980   0     0    
2019/07/30  20:09:00  BASE  2.31084  253  2.59896  258  -6.2  100   -6.2  0     0     998.9    NA       0.0000   9999     1020  2170  0    
2019/07/30  20:10:00  BASE  2.60484  251  3.1752   245  -6.2  100   -6.2  0     0     998.9    NA       0.0000   9999     1080  2100  0    
2019/07/30  20:11:00  BASE  3.40452  251  4.263    260  -6.1  100   -6.1  0     0     998.9    NA       0.0000   9999     890   0     0    
2019/07/30  20:12:00  BASE  3.65148  247  4.263    260  -6.1  100   -6.1  0     1     998.9    NA       0.0000   9999     720   0     0    
2019/07/30  20:13:00  BASE  3.51036  245  4.263    260  -6.1  100   -6.1  0     0     998.9    NA       0.0000   9999     690   0     0    
2019/07/30  20:14:00  BASE  3.72792  246  4.263    260  -6.1  100   -6.1  0     0     998.9    NA       0.0000   9999     790   0     0    
2019/07/30  20:15:00  BASE  3.72792  243  4.263    260  -6.1  100   -6.1  0     0     998.9    NA       0.0000   9999     390   0     0    
2019/07/30  20:16:00  BASE  3.4692   244  4.263    260  -6.1  100   -6.1  0     0     998.9    NA       0.0000   9999     330   980   0    
2019/07/30  20:17:00  BASE  2.83416  251  4.263    260  -6.1  100   -6.1  0     0     998.9    NA       0.0000   9999     300   0     0    
2019/07/30  20:18:00  BASE  2.6754   256  4.263    260  -6.1  100   -6.1  0     1     998.9    NA       0.0000   9999     360   1180  0    
2019/07/30  20:19:00  BASE  2.63424  263  4.263    260  -6.1  100   -6.1  0     0     998.9    NA       0.0000   9999     330   0     0    
2019/07/30  20:20:00  BASE  2.18736  262  4.263    260  -6.1  100   -6.1  0     0     998.9    NA       0.0000   9999     2170  0     0    
2019/07/30  20:21:00  BASE  1.54056  254  4.02192  243  -6.1  100   -6.1  0     0     998.9    NA       0.0000   9999     390   0     0    
2019/07/30  20:22:00  BASE  1.0878   259  4.02192  243  -6.1  100   -6.1  0     0     998.9    NA       0.0000   9999     590   0     0    
2019/07/30  20:23:00  BASE  1.34652  266  4.02192  243  -6.1  100   -6.1  0     0     998.9    NA       0.0000   9999     660   0     0    
2019/07/30  20:24:00  BASE  1.5876   251  3.96312  248  -6.1  100   -6.1  0     0     998.9    NA       0.0000   9999     660   0     0    
2019/07/30  20:25:00  BASE  2.11092  234  3.96312  248  -6.1  100   -6.1  0     0     998.9    NA       0.0000   9999     490   0     0    
2019/07/30  20:26:00  BASE  2.5872   234  3.53976  264  -6.1  100   -6.1  0     0     998.9    NA       0.0000   6000     300   0     0    
2019/07/30  20:27:00  BASE  2.5578   237  3.53976  264  -6.1  100   -6.1  0     0     998.9    NA       0.0000   5000     300   0     0    
2019/07/30  20:28:00  BASE  2.47548  241  3.0576   235  -6.0  100   -6.0  0     1     999.0    NA       0.0000   8000     390   0     0    
2019/07/30  20:29:00  BASE  2.54016  248  3.0576   235  -6.0  100   -6.0  0     0     999.0    NA       0.0000   9000     330   0     0    
2019/07/30  20:30:00  BASE  2.34612  257  3.0576   235  -6.0  100   -6.0  0     0     999.0    NA       0.0000   BR       9999  230   0    
2019/07/30  20:31:00  BASE  1.9698   259  3.0576   235  -6.1  100   -6.1  0     0     999.0    NA       0.0000   BR       9999  360   0    
2019/07/30  20:32:00  BASE  1.5876   259  3.0576   235  -6.1  100   -6.1  0     0     999.0    NA       0.0000   BR       9999  360   790  
2019/07/30  20:33:00  BASE  1.19364  256  3.0576   235  -6.2  100   -6.2  0     0     999.0    NA       0.0000   BR       9999  1280  0    
2019/07/30  20:34:00  BASE  1.01724  247  3.0576   235  -6.2  100   -6.2  0     1     999.0    NA       0.0000   BR       9999  1610  0    
2019/07/30  20:35:00  BASE  1.12308  248  3.0576   235  -6.2  100   -6.2  0     0     999.0    NA       0.0000   BR       9999  1710  0    
2019/07/30  20:36:00  BASE  1.34064  255  2.99292  247  -6.2  100   -6.2  0     0     999.0    NA       0.0000   9999     1640  0     0    
2019/07/30  20:37:00  BASE  1.33476  258  2.99292  247  -6.2  100   -6.2  0     0     998.9    NA       0.0000   9999     1610  2260  0    
2019/07/30  20:38:00  BASE  1.18188  266  2.87532  250  -6.2  100   -6.2  0     0     998.9    NA       0.0000   9999     1800  0     0    
2019/07/30  20:39:00  BASE  0.92904  284  2.26968  256  -6.2  100   -6.2  0     0     998.9    NA       0.0000   9999     1210  1870  0    
2019/07/30  20:40:00  BASE  1.18188  302  2.24028  258  -6.2  100   -6.2  0     1     998.9    NA       0.0000   9999     1050  2170  0    
2019/07/30  20:41:00  BASE  1.6464   306  2.0286   308  -6.2  100   -6.2  0     0     998.9    NA       0.0000   9999     980   0     0    
2019/07/30  20:42:00  BASE  1.7052   301  2.0286   308  -6.2  100   -6.2  0     0     998.9    NA       0.0000   9999     950   0     0    
2019/07/30  20:43:00  BASE  1.54056  297  2.0286   308  -6.1  100   -6.1  0     1     998.9    NA       0.0000   9999     1020  0     0    
2019/07/30  20:44:00  BASE  1.86984  292  2.75184  288  -6.1  100   -6.1  0     0     998.9    NA       0.0000   9999     660   0     0    
2019/07/30  20:45:00  BASE  2.43432  283  2.96352  280  -6.0  100   -6.0  0     1     998.9    NA       0.0000   9999     390   0     0    
2019/07/30  20:46:00  BASE  2.78124  267  3.93372  251  -6.0  100   -6.0  0     0     998.9    NA       0.0000   9999     390   0     0    
2019/07/30  20:47:00  BASE  3.4104   256  3.93372  257  -5.9  100   -5.9  0     1     998.9    NA       0.0000   9999     460   0     0    
2019/07/30  20:48:00  BASE  3.675    259  4.08072  269  -5.9  100   -5.9  0     0     998.9    NA       0.0000   9999     390   0     0    
2019/07/30  20:49:00  BASE  3.32808  265  4.08072  269  -5.9  100   -5.9  0     1     998.9    NA       0.0000   9999     360   0     0    
2019/07/30  20:50:00  BASE  3.30456  266  4.2336   268  -5.9  100   -5.9  0     0     998.9    NA       0.0000   9999     330   0     0    
2019/07/30  20:51:00  BASE  3.21636  265  4.2336   268  -5.9  100   -5.9  0     0     999.0    NA       0.0000   9999     260   0     0    
2019/07/30  20:52:00  BASE  2.85768  263  4.2336   268  -5.9  100   -5.9  0     1     999.0    NA       0.0000   9999     260   0     0    
2019/07/30  20:53:00  BASE  2.72244  260  4.2336   268  -5.9  100   -5.9  0     0     999.0    NA       0.0000   9999     300   0     0    
2019/07/30  20:54:00  BASE  2.8224   257  4.2336   268  -5.9  100   -5.9  0     0     999.0    NA       0.0000   9999     330   0     0    
2019/07/30  20:55:00  BASE  2.90472  251  4.2336   268  -5.9  100   -5.9  0     0     999.0    NA       0.0000   9999     330   0     0    
2019/07/30  20:56:00  BASE  2.85768  254  4.2336   268  -5.9  100   -5.9  0     1     999.0    NA       0.0000   9999     330   0     0    
2019/07/30  20:57:00  BASE  2.9106   258  4.2336   268  -6.0  100   -6.0  0     0     999.0    NA       0.0000   9999     330   0     0    
2019/07/30  20:58:00  BASE  2.89884  252  4.2336   268  -6.0  100   -6.0  0     0     999.1    NA       0.0000   9999     260   0     0    
2019/07/30  20:59:00  BASE  2.74596  247  4.2336   268  -6.1  100   -6.1  0     0     999.1    NA       0.0000   9999     300   1150  0    
2019/07/30  21:00:00  BASE  2.56368  241  3.26928  255  -6.1  100   -6.1  0     0     999.1    NA       0.0000   9999     300   1310  0    
2019/07/30  21:01:00  BASE  2.44608  237  3.26928  255  -6.1  100   -6.1  0     1     999.1    NA       0.0000   9999     360   1210  0    
2019/07/30  21:02:00  BASE  2.21676  241  3.26928  255  -6.2  100   -6.2  0     0     999.1    NA       0.0000   9999     330   1410  0    
2019/07/30  21:03:00  BASE  2.09916  248  3.26928  255  -6.2  100   -6.2  0     0     999.1    NA       0.0000   9999     560   0     0    
2019/07/30  21:04:00  BASE  2.02272  253  3.1458   256  -6.2  100   -6.2  0     0     999.1    NA       0.0000   9999     920   1570  0    
2019/07/30  21:05:00  BASE  1.80516  256  3.1458   256  -6.2  100   -6.2  0     0     999.1    NA       0.0000   9999     920   0     0    
2019/07/30  21:06:00  BASE  1.77576  255  3.1164   250  -6.2  100   -6.2  0     0     999.1    NA       0.0000   9999     1380  0     0    
2019/07/30  21:07:00  BASE  1.81692  252  3.02232  244  -6.2  100   -6.2  0     0     999.1    NA       0.0000   9999     1310  0     0    
2019/07/30  21:08:00  BASE  1.88748  256  2.87532  233  -6.2  100   -6.2  0     0     999.1    NA       0.0000   9999     1310  0     0    
2019/07/30  21:09:00  BASE  1.88748  262  2.87532  233  -6.2  100   -6.2  0     0     999.1    NA       0.0000   9999     1180  0     0    
2019/07/30  21:10:00  BASE  1.7052   254  2.78124  231  -6.2  100   -6.2  0     0     999.1    NA       0.0000   9999     1080  0     0    
2019/07/30  21:11:00  BASE  1.69344  246  2.48136  264  -6.2  100   -6.2  0     0     999.1    NA       0.0000   9999     1020  0     0    
2019/07/30  21:12:00  BASE  1.75812  240  2.48136  264  -6.2  100   -6.2  0     0     999.1    NA       0.0000   9999     620   0     0    
2019/07/30  21:13:00  BASE  1.58172  228  2.48136  264  -6.2  100   -6.2  0     1     999.1    NA       0.0000   9999     850   0     0    
2019/07/30  21:14:00  BASE  1.41708  222  2.48136  264  -6.2  100   -6.2  0     0     999.1    NA       0.0000   9999     920   0     0    
2019/07/30  21:15:00  BASE  1.30536  221  2.48136  264  -6.2  100   -6.2  0     0     999.1    NA       0.0000   9999     980   0     0    
2019/07/30  21:16:00  BASE  1.12308  232  2.48136  264  -6.2  100   -6.2  0     1     999.1    NA       0.0000   9999     1080  0     0    
2019/07/30  21:17:00  BASE  1.04076  243  2.48136  264  -6.1  100   -6.1  0     0     999.1    NA       0.0000   9999     1150  1940  0    
2019/07/30  21:18:00  BASE  0.74088  242  2.21088  234  -6.1  100   -6.1  0     1     999.1    NA       0.0000   9999     1150  1970  0    
2019/07/30  21:19:00  BASE  0.58212  243  2.21088  234  -6.1  100   -6.1  0     0     999.1    NA       0.0000   9999     1150  0     0    
2019/07/30  21:20:00  BASE  0.72324  233  2.21088  234  -6.1  100   -6.1  0     0     999.2    NA       0.0000   9999     1080  0     0    
2019/07/30  21:21:00  BASE  0.7938   213  2.21088  234  -6.1  100   -6.1  0     0     999.2    NA       0.0000   9999     1050  0     0    
2019/07/30  21:22:00  BASE  0.89964  213  1.54056  221  -6.1  100   -6.1  0     0     999.2    NA       0.0000   9999     1120  0     0    
2019/07/30  21:23:00  BASE  1.0878   222  1.90512  230  -6.1  100   -6.1  0     0     999.2    NA       0.0000   9999     920   0     0    
2019/07/30  21:24:00  BASE  1.83456  228  2.84592  236  -6.1  100   -6.1  0     0     999.2    NA       0.0000   9999     920   0     0    
2019/07/30  21:25:00  BASE  2.59308  243  3.26928  263  -6.0  100   -6.0  0     0     999.2    NA       0.0000   9999     430   0     0    
2019/07/30  21:26:00  BASE  2.65776  259  3.26928  263  -6.1  100   -6.1  0     0     999.2    NA       0.0000   9999     360   0     0    
2019/07/30  21:27:00  BASE  2.66364  257  3.26928  251  -6.0  100   -6.0  0     0     999.2    NA       0.0000   9999     360   0     0    
2019/07/30  21:28:00  BASE  2.79888  257  3.26928  251  -6.1  100   -6.1  0     0     999.2    NA       0.0000   9000     330   0     0    
2019/07/30  21:29:00  BASE  2.45196  266  3.26928  251  -6.1  100   -6.1  0     1     999.3    NA       0.0000   8000     330   0     0    
2019/07/30  21:30:00  BASE  1.74636  266  3.26928  251  -6.1  100   -6.1  0     0     999.3    NA       0.0000   9000     300   0     0    
2019/07/30  21:31:00  BASE  1.69344  258  3.26928  251  -6.1  100   -6.1  0     0     999.3    NA       0.0000   9999     330   0     0    
2019/07/30  21:32:00  BASE  2.00508  254  3.26928  251  -6.1  100   -6.1  0     1     999.4    NA       0.0000   9999     390   0     0    
2019/07/30  21:33:00  BASE  2.01684  254  3.26928  251  -6.1  100   -6.1  0     0     999.4    NA       0.0000   9999     390   0     0    
2019/07/30  21:34:00  BASE  1.96392  251  3.26928  251  -6.1  100   -6.1  0     0     999.4    NA       0.0000   9999     430   0     0    
2019/07/30  21:35:00  BASE  2.00508  251  3.26928  251  -6.2  100   -6.2  0     0     999.4    NA       0.0000   9999     490   0     0    
2019/07/30  21:36:00  BASE  2.00508  253  3.26928  251  -6.2  100   -6.2  0     0     999.4    NA       0.0000   9999     520   0     0    
2019/07/30  21:37:00  BASE  2.16972  250  3.234    242  -6.1  100   -6.1  0     1     999.4    NA       0.0000   9999     660   0     0    
2019/07/30  21:38:00  BASE  2.66952  245  3.234    242  -6.1  100   -6.1  0     0     999.4    NA       0.0000   9999     560   0     0    
2019/07/30  21:39:00  BASE  2.69304  243  3.234    242  -6.1  100   -6.1  0     1     999.5    NA       0.0000   9999     590   0     0    
2019/07/30  21:40:00  BASE  2.66364  248  3.234    242  -6.0  100   -6.0  0     0     999.5    NA       0.0000   9999     660   0     0    
2019/07/30  21:41:00  BASE  3.06348  254  3.41628  255  -6.0  100   -6.0  0     0     999.5    NA       0.0000   9999     920   0     0    
2019/07/30  21:42:00  BASE  3.02232  255  3.41628  255  -6.0  100   -6.0  0     0     999.5    NA       0.0000   9999     950   0     0    
2019/07/30  21:43:00  BASE  2.84592  254  3.41628  255  -6.0  100   -6.0  0     0     999.5    NA       0.0000   9999     850   0     0    
2019/07/30  21:44:00  BASE  2.72832  252  3.41628  255  -6.1  100   -6.1  0     0     999.5    NA       0.0000   9999     820   0     0    
2019/07/30  21:45:00  BASE  2.45784  252  3.41628  255  -6.1  100   -6.1  0     0     999.5    NA       0.0000   9999     820   0     0    
2019/07/30  21:46:00  BASE  2.46372  255  3.41628  255  -6.1  100   -6.1  0     0     999.5    NA       0.0000   9999     790   1970  0    
2019/07/30  21:47:00  BASE  2.71068  264  3.41628  255  -6.1  100   -6.1  0     0     999.5    NA       0.0000   9999     790   1800  0    
2019/07/30  21:48:00  BASE  2.78124  273  3.41628  255  -6.1  100   -6.1  0     1     999.5    NA       0.0000   9999     1050  1870  0    
2019/07/30  21:49:00  BASE  2.56956  272  3.41628  255  -6.1  100   -6.1  0     0     999.6    NA       0.0000   9999     2130  0     0    
2019/07/30  21:50:00  BASE  2.54604  273  3.41628  255  -6.1  100   -6.1  0     0     999.6    NA       0.0000   9999     1050  0     0    
2019/07/30  21:51:00  BASE  2.76948  277  3.26928  269  -6.1  100   -6.1  0     0     999.6    NA       0.0000   9999     1050  0     0    
2019/07/30  21:52:00  BASE  2.793    276  3.26928  269  -6.1  100   -6.1  0     0     999.6    NA       0.0000   9999     0     0     0    
2019/07/30  21:53:00  BASE  2.58132  277  3.26928  269  -6.2  100   -6.2  0     0     999.6    NA       0.0000   9999     1410  0     0    
2019/07/30  21:54:00  BASE  2.38728  279  3.26928  269  -6.2  100   -6.2  0     0     999.6    NA       0.0000   9999     790   0     0    
2019/07/30  21:55:00  BASE  2.06388  281  3.26928  269  -6.2  100   -6.2  0     0     999.6    NA       0.0000   9999     0     0     0    
2019/07/30  21:56:00  BASE  1.59348  289  3.26928  269  -6.2  100   -6.2  0     1     999.6    NA       0.0000   9999     1480  0     0    
2019/07/30  21:57:00  BASE  1.33476  286  3.1164   277  -6.3  100   -6.3  0     0     999.6    NA       0.0000   9999     1610  0     0    
2019/07/30  21:58:00  BASE  1.09956  269  3.1164   277  -6.3  100   -6.3  0     0     999.6    NA       0.0000   9999     1670  0     0    
2019/07/30  21:59:00  BASE  0.91728  264  3.1164   277  -6.3  100   -6.3  0     0     999.6    NA       0.0000   9999     1800  0     0    
2019/07/30  22:00:00  BASE  0.94668  265  2.99292  276  -6.2  100   -6.2  0     0     999.6    NA       0.0000   9999     850   0     0    
2019/07/30  22:01:00  BASE  0.67032  260  2.96352  276  -6.2  100   -6.2  0     0     999.6    NA       0.0000   9999     850   0     0    
2019/07/30  22:02:00  BASE  0.62328  265  2.87532  277  -6.2  100   -6.2  0     0     999.6    NA       0.0000   9999     920   0     0    
2019/07/30  22:03:00  BASE  1.15836  274  2.75184  281  -6.1  100   -6.1  0     1     999.6    NA       0.0000   9999     950   0     0    
2019/07/30  22:04:00  BASE  1.617    274  2.1756   265  -6.1  100   -6.1  0     0     999.7    NA       0.0000   9999     920   0     0    
2019/07/30  22:05:00  BASE  2.13444  274  3.02232  280  -6.1  100   -6.1  0     0     999.7    NA       0.0000   9999     790   1640  0    
2019/07/30  22:06:00  BASE  2.86944  266  3.81024  257  -6.1  100   -6.1  0     0     999.7    NA       0.0000   9999     590   0     0    
2019/07/30  22:07:00  BASE  3.21636  258  3.81024  257  -6.1  100   -6.1  0     1     999.7    NA       0.0000   9999     560   1120  0    
2019/07/30  22:08:00  BASE  3.29868  255  3.81024  257  -6.1  100   -6.1  0     0     999.7    NA       0.0000   9999     490   0     0    
2019/07/30  22:09:00  BASE  3.43392  248  3.81024  257  -6.1  100   -6.1  0     0     999.7    NA       0.0000   9999     460   0     0    
2019/07/30  22:10:00  BASE  3.27516  243  3.81024  257  -6.1  100   -6.1  0     0     999.7    NA       0.0000   9999     660   0     0    
2019/07/30  22:11:00  BASE  2.94588  246  3.81024  257  -6.2  100   -6.2  0     0     999.7    NA       0.0000   9999     720   0     0    
2019/07/30  22:12:00  BASE  2.64012  254  3.81024  257  -6.2  100   -6.2  0     1     999.7    NA       0.0000   9999     590   0     0    
2019/07/30  22:13:00  BASE  2.4696   256  3.81024  257  -6.2  100   -6.2  0     1     999.7    NA       0.0000   9999     520   0     0    
2019/07/30  22:14:00  BASE  2.39316  257  3.81024  257  -6.3  100   -6.3  0     0     999.7    NA       0.0000   9999     360   0     0    
2019/07/30  22:15:00  BASE  2.22264  264  3.81024  257  -6.3  100   -6.3  0     0     999.7    NA       0.0000   9999     330   0     0    
2019/07/30  22:16:00  BASE  1.35828  271  3.75144  266  -6.3  100   -6.3  0     0     999.7    NA       0.0000   9000     260   0     0    
2019/07/30  22:17:00  BASE  0.78792  270  3.75144  266  -6.3  100   -6.3  0     0     999.7    NA       0.0000   8000     950   0     0    
2019/07/30  22:18:00  BASE  0.95844  262  3.51036  244  -6.3  100   -6.3  0     1     999.7    NA       0.0000   9999     1180  0     0    
2019/07/30  22:19:00  BASE  1.2054   260  3.35748  243  -6.3  100   -6.3  0     0     999.7    NA       0.0000   9999     1570  0     0    
2019/07/30  22:20:00  BASE  1.4994   259  2.96352  244  -6.3  100   -6.3  0     0     999.7    NA       0.0000   9999     1640  0     0    
2019/07/30  22:21:00  BASE  1.617    258  2.93412  254  -6.3  100   -6.3  0     0     999.8    NA       0.0000   9999     0     0     0    
2019/07/30  22:22:00  BASE  1.46412  256  2.75184  255  -6.3  100   -6.3  0     0     999.8    NA       0.0000   9999     1410  0     0    
2019/07/30  22:23:00  BASE  1.10544  253  2.54016  254  -6.3  100   -6.3  0     1     999.8    NA       0.0000   9999     1410  0     0    
2019/07/30  22:24:00  BASE  0.84672  260  2.45196  273  -6.3  100   -6.3  0     0     999.8    NA       0.0000   9999     0     0     0    
2019/07/30  22:25:00  BASE  0.84672  284  1.81692  254  -6.3  100   -6.3  0     0     999.8    NA       0.0000   9999     0     0     0    
2019/07/30  22:26:00  BASE  0.93492  293  1.81692  254  -6.3  100   -6.3  0     0     999.8    NA       0.0000   9999     1480  0     0    
2019/07/30  22:27:00  BASE  0.6468   290  1.81692  254  -6.2  100   -6.2  0     0     999.8    NA       0.0000   9999     1740  0     0    
2019/07/30  22:28:00  BASE  0.6468   301  1.81692  254  -6.2  100   -6.2  0     0     999.8    NA       0.0000   9999     890   0     0    
2019/07/30  22:29:00  BASE  1.04076  311  1.81692  254  -6.3  100   -6.3  0     1     999.8    NA       0.0000   9999     690   0     0    
2019/07/30  22:30:00  BASE  0.94668  311  1.78752  257  -6.3  100   -6.3  0     0     999.8    NA       0.0000   9999     750   0     0    
2019/07/30  22:31:00  BASE  0.48216  310  1.42296  259  -6.3  100   -6.3  0     1     999.8    NA       0.0000   9999     980   1670  0    
2019/07/30  22:32:00  BASE  0.28224  318  1.35828  302  -6.3  100   -6.3  0     0     999.8    NA       0.0000   9999     980   0     0    
2019/07/30  22:33:00  BASE  0.2352   323  1.35828  302  -6.3  100   -6.3  0     1     999.8    NA       0.0000   9999     950   0     0    
2019/07/30  22:34:00  BASE  0.05292  307  1.35828  302  -6.3  100   -6.3  0     1     999.8    NA       0.0000   9999     920   0     0    
2019/07/30  22:35:00  BASE  0        299  1.35828  302  -6.2  100   -6.2  0     0     999.8    NA       0.0000   9999     980   0     0    
2019/07/30  22:36:00  BASE  0        303  1.35828  302  -6.2  100   -6.2  0     0     999.8    NA       0.0000   9999     1050  0     0    
2019/07/30  22:37:00  BASE  0        303  1.35828  302  -6.2  100   -6.2  0     0     999.8    NA       0.0000   9999     1020  0     0    
2019/07/30  22:38:00  BASE  0.19404  285  1.35828  302  -6.2  100   -6.2  0     1     999.8    NA       0.0000   9999     1180  0     0    
2019/07/30  22:39:00  BASE  0.27636  263  1.1172   274  -6.2  100   -6.2  0     0     999.8    NA       0.0000   9999     1210  1900  0    
2019/07/30  22:40:00  BASE  0.58212  262  1.45236  265  -6.1  100   -6.1  0     1     999.7    NA       0.0000   9999     1050  0     0    
2019/07/30  22:41:00  BASE  1.11132  263  1.45236  265  -6.1  100   -6.1  0     1     999.7    NA       0.0000   9999     1120  0     0    
2019/07/30  22:42:00  BASE  1.1172   264  1.45236  265  -6.1  100   -6.1  0     0     999.7    NA       0.0000   9999     1080  0     0    
2019/07/30  22:43:00  BASE  0.99372  256  1.45236  265  -6.1  100   -6.1  0     0     999.8    NA       0.0000   9999     1180  0     0    
2019/07/30  22:44:00  BASE  1.43472  254  2.69304  272  -6.2  100   -6.2  0     1     999.8    NA       0.0000   9999     1050  0     0    
2019/07/30  22:45:00  BASE  1.7052   263  2.69304  272  -6.2  100   -6.2  0     1     999.8    NA       0.0000   9999     750   0     0    
2019/07/30  22:46:00  BASE  1.617    248  2.69304  272  -6.2  100   -6.2  0     0     999.8    NA       0.0000   9999     660   0     0    
2019/07/30  22:47:00  BASE  1.68168  197  2.69304  272  -6.2  100   -6.2  0     0     999.8    NA       0.0000   9999     520   0     0    
2019/07/30  22:48:00  BASE  1.93452  181  2.78124  204  -6.4  100   -6.4  0     0     999.9    NA       0.0000   9999     390   0     0    
2019/07/30  22:49:00  BASE  2.56368  196  3.29868  208  -6.4  100   -6.4  0     0     999.9    NA       0.0000   9999     300   0     0    
2019/07/30  22:50:00  BASE  3.12816  208  3.53976  205  -6.4  100   -6.4  0     0     999.9    NA       0.0000   7000     330   0     0    
2019/07/30  22:51:00  BASE  3.29868  207  3.69264  209  -6.4  100   -6.4  0     0     999.9    NA       0.0000   6000     330   0     0    
2019/07/30  22:52:00  BASE  3.13992  204  3.69264  209  -6.4  100   -6.4  0     0     999.9    NA       0.0000   5000     300   0     0    
2019/07/30  22:53:00  BASE  3.02232  203  3.69264  209  -6.3  100   -6.3  0     0     1000.0   NA       0.0000   BR       5000  330   0    
2019/07/30  22:54:00  BASE  2.79888  205  3.69264  209  -6.2  100   -6.2  0     0     1000.1   NA       0.0000   BR       5000  330   0    
2019/07/30  22:55:00  BASE  2.47548  206  3.69264  209  -6.2  100   -6.2  0     0     1000.1   NA       0.0000   BR       6000  360   0    
2019/07/30  22:56:00  BASE  2.42256  210  3.69264  209  -6.1  100   -6.1  0     1     1000.1   NA       0.0000   BR       7000  390   0    
2019/07/30  22:57:00  BASE  2.22264  216  3.69264  209  -6.1  100   -6.1  0     0     1000.1   NA       0.0000   BR       9000  360   0    
2019/07/30  22:58:00  BASE  1.99332  224  3.69264  209  -6.1  100   -6.1  0     0     1000.1   NA       0.0000   BR       9999  390   0    
2019/07/30  22:59:00  BASE  1.91688  242  3.69264  209  -6.0  100   -6.0  0     0     1000.1   NA       0.0000   BR       9999  430   0    
2019/07/30  23:00:01  BASE  1.62876  253  3.69264  209  -6.0  100   -6.0  0     0     1000.1   NA       0.0000   BR       9999  660   1640 
2019/07/30  23:01:00  BASE  1.66404  252  3.26928  210  -6.0  100   -6.0  0     0     1000.1   NA       0.0000   BR       9999  790   1640 
2019/07/30  23:02:00  BASE  2.06388  246  3.26928  210  -6.0  100   -6.0  0     0     1000.1   NA       0.0000   BR       9999  890   1800 
2019/07/30  23:03:00  BASE  2.16384  242  2.87532  208  -6.1  100   -6.1  0     0     1000.1   NA       0.0000   BR       9999  390   1640 
2019/07/30  23:04:00  BASE  1.98744  242  2.75184  219  -6.1  100   -6.1  0     0     1000.1   NA       0.0000   9999     330   1540  0    
2019/07/30  23:05:00  BASE  1.92864  237  2.75184  219  -6.1  100   -6.1  0     0     1000.1   NA       0.0000   9999     360   1310  0    
2019/07/30  23:06:00  BASE  2.07564  228  2.72244  243  -6.0  100   -6.0  0     1     1000.1   NA       0.0000   9999     520   0     0    
2019/07/30  23:07:00  BASE  2.06976  213  2.72244  243  -6.0  100   -6.0  0     0     1000.1   NA       0.0000   9999     490   1180  0    
2019/07/30  23:08:00  BASE  1.77576  203  2.72244  243  -6.0  100   -6.0  0     0     1000.1   NA       0.0000   9999     430   1250  0    
2019/07/30  23:09:00  BASE  1.54056  209  2.72244  243  -6.0  100   -6.0  0     0     1000.1   NA       0.0000   9999     460   1410  0    
2019/07/30  23:10:00  BASE  1.68168  220  2.72244  243  -6.0  100   -6.0  0     0     1000.1   NA       0.0000   9999     460   1670  0    
2019/07/30  23:11:00  BASE  1.78752  229  2.48136  249  -6.0  100   -6.0  0     0     1000.1   NA       0.0000   9999     1570  0     0    
2019/07/30  23:12:00  BASE  1.89336  225  2.45196  237  -6.0  100   -6.0  0     0     1000.1   NA       0.0000   9999     390   1610  0    
2019/07/30  23:13:00  BASE  1.96392  217  2.45196  237  -6.0  100   -6.0  0     0     1000.1   NA       0.0000   4400     0     0     0    
2019/07/30  23:14:00  BASE  1.71108  219  2.45196  237  -6.0  100   -6.0  0     0     1000.2   NA       0.0000   BR       2900  0     0    
2019/07/30  23:15:00  BASE  1.27008  216  2.42256  221  -6.0  100   -6.0  0     1     1000.2   NA       0.0000   BR       3700  230   1180 
2019/07/30  23:16:00  BASE  0.9702   211  2.29908  205  -6.0  100   -6.0  0     0     1000.2   NA       0.0000   BR       5000  360   0    
2019/07/30  23:17:00  BASE  0.87612  228  2.24028  216  -6.0  100   -6.0  0     0     1000.2   NA       0.0000   BR       5000  260   0    
2019/07/30  23:18:00  BASE  0.9996   257  2.24028  216  -6.1  100   -6.1  0     0     1000.2   NA       0.0000   BR       4600  230   0    
2019/07/30  23:19:00  BASE  1.16424  256  2.24028  216  -6.1  100   -6.1  0     0     1000.2   NA       0.0000   BR       5000  230   0    
2019/07/30  23:20:00  BASE  1.00548  247  2.24028  216  -6.1  100   -6.1  0     1     1000.2   NA       0.0000   BR       5000  0     0    
2019/07/30  23:21:00  BASE  0.58212  255  2.24028  216  -6.1  100   -6.1  0     0     1000.2   NA       0.0000   BR       5000  260   0    
2019/07/30  23:22:00  BASE  0.33516  259  2.1462   209  -6.1  100   -6.1  0     0     1000.2   NA       0.0000   BR       7000  360   0    
2019/07/30  23:23:00  BASE  0.15876  259  1.81692  218  -6.1  100   -6.1  0     0     1000.3   NA       0.0000   BR       7000  390   0    
2019/07/30  23:24:00  BASE  0        244  1.54056  246  -6.1  100   -6.1  0     0     1000.3   NA       0.0000   BR       9000  460   0    
2019/07/30  23:25:00  BASE  0        227  1.54056  246  -6.1  100   -6.1  0     0     1000.3   NA       0.0000   BR       9000  430   0    
2019/07/30  23:26:00  BASE  0        228  1.54056  246  -6.1  100   -6.1  0     0     1000.3   NA       0.0000   BR       9999  520   0    
2019/07/30  23:27:00  BASE  0.33516  213  1.54056  246  -6.0  100   -6.1  0     0     1000.3   NA       0.0000   BR       9999  490   0    
2019/07/30  23:28:00  BASE  1.08192  199  2.51076  210  -6.0  100   -6.0  0     0     1000.3   NA       0.0000   BR       9999  490   0    
2019/07/30  23:29:00  BASE  2.10504  210  2.96352  217  -6.0  100   -6.0  0     0     1000.3   NA       0.0000   BR       9999  390   0    
2019/07/30  23:30:00  BASE  2.4402   219  2.96352  226  -6.0  100   -6.0  0     0     1000.3   NA       0.0000   BR       9999  590   0    
2019/07/30  23:31:00  BASE  2.15796  216  2.96352  226  -6.0  100   -6.0  0     1     1000.3   NA       0.0000   9999     720   0     0    
2019/07/30  23:32:00  BASE  2.41668  214  3.02232  218  -6.0  100   -6.0  0     0     1000.3   NA       0.0000   9999     920   0     0    
2019/07/30  23:33:00  BASE  2.57544  221  3.02232  218  -5.9  100   -5.9  0     0     1000.4   NA       0.0000   9999     1670  0     0    
2019/07/30  23:34:00  BASE  2.47548  223  3.02232  218  -5.9  100   -5.9  0     0     1000.3   NA       0.0000   9999     750   1740  0    
2019/07/30  23:35:00  BASE  2.56368  226  3.02232  218  -5.9  100   -5.9  0     0     1000.4   NA       0.0000   9999     0     0     0    
2019/07/30  23:36:00  BASE  2.54604  232  3.02232  218  -5.9  100   -5.9  0     0     1000.4   NA       0.0000   9999     0     0     0    
2019/07/30  23:37:00  BASE  2.34612  230  3.02232  218  -6.0  100   -6.0  0     0     1000.4   NA       0.0000   9999     0     0     0    
2019/07/30  23:38:00  BASE  2.56368  227  3.48096  222  -6.0  100   -6.0  0     0     1000.4   NA       0.0000   9999     0     0     0    
2019/07/30  23:39:00  BASE  2.9694   225  3.48096  215  -6.0  100   -6.0  0     0     1000.4   NA       0.0000   9999     690   0     0    
2019/07/30  23:40:00  BASE  2.7342   224  3.48096  215  -6.0  100   -6.0  0     0     1000.4   NA       0.0000   9999     660   0     0    
2019/07/30  23:41:00  BASE  2.47548  229  3.48096  215  -6.0  100   -6.0  0     0     1000.4   NA       0.0000   9999     330   0     0    
2019/07/30  23:42:00  BASE  2.57544  230  3.48096  215  -6.0  100   -6.0  0     0     1000.4   NA       0.0000   9999     430   0     0    
2019/07/30  23:43:00  BASE  2.71068  230  3.48096  215  -6.0  100   -6.0  0     0     1000.4   NA       0.0000   9999     360   0     0    
2019/07/30  23:44:00  BASE  2.4696   231  3.48096  215  -6.0  100   -6.0  0     0     1000.5   NA       0.0000   9999     390   0     0    
2019/07/30  23:45:00  BASE  2.19912  233  3.48096  215  -6.0  100   -6.0  0     0     1000.5   NA       0.0000   9999     520   0     0    
2019/07/30  23:46:00  BASE  2.53428  231  3.48096  215  -6.0  100   -6.0  0     0     1000.5   NA       0.0000   9999     430   0     0    
2019/07/30  23:47:00  BASE  2.82828  224  3.48096  215  -6.0  100   -6.0  0     0     1000.5   NA       0.0000   9999     430   0     0    
2019/07/30  23:48:00  BASE  2.78124  222  3.48096  215  -6.0  100   -6.0  0     0     1000.5   NA       0.0000   9999     390   0     0    
2019/07/30  23:49:00  BASE  2.62836  223  3.41628  232  -5.9  100   -5.9  0     0     1000.5   NA       0.0000   9999     0     0     0    
2019/07/30  23:50:00  BASE  2.42256  231  3.41628  232  -5.9  100   -5.9  0     0     1000.5   NA       0.0000   9999     330   0     0    
2019/07/30  23:51:00  BASE  2.09916  233  3.41628  232  -5.9  100   -5.9  0     1     1000.5   NA       0.0000   9999     390   0     0    
2019/07/30  23:52:00  BASE  2.24616  234  3.41628  232  -5.9  100   -5.9  0     0     1000.5   NA       0.0000   9999     390   0     0    
2019/07/30  23:53:00  BASE  2.69304  238  3.26928  237  -6.0  100   -6.0  0     1     1000.6   NA       0.0000   9999     390   0     0    
2019/07/30  23:54:00  BASE  2.72244  237  3.26928  237  -6.0  100   -6.0  0     0     1000.6   NA       0.0000   9999     330   1280  0    
2019/07/30  23:55:00  BASE  2.69892  240  3.26928  237  -6.1  100   -6.1  0     0     1000.5   NA       0.0000   9999     360   1380  0    
2019/07/30  23:56:00  BASE  2.71068  243  3.26928  237  -6.1  100   -6.1  0     0     1000.6   NA       0.0000   9999     390   0     0    
2019/07/30  23:57:00  BASE  2.54604  242  3.26928  237  -6.2  100   -6.2  0     0     1000.6   NA       0.0000   9999     0     0     0    
2019/07/30  23:58:00  BASE  2.36964  243  3.26928  237  -6.2  100   -6.2  0     0     1000.7   NA       0.0000   9999     0     0     0    
2019/07/30  23:59:00  BASE  2.0874   242  3.26928  237  -6.2  100   -6.2  0     0     1000.7   NA       0.0000   9999     0     0     0